<?xml version="1.0" encoding="UTF-8" standalone="no" ?>
<gpx xmlns="http://www.topografix.com/GPX/1/1" xmlns:xsi="http://www.w3.org/2001/XMLSchema-instance" xsi:schemaLocation="http://www.topografix.com/GPX/1/1 http://www.topografix.com/GPX/1/1/gpx.xsd" version="1.1" creator="VisuGPX - https://www.visugpx.com">
  <metadata>
    <name>St Jacques sur Darnétal 11Km9</name>
    <desc><![CDATA[Boucle A-R au départ de l'eglise de st jacques]]></desc>
  </metadata>
  <trk>
    <name><![CDATA[St Jacques sur Darnétal 11Km9_1]]></name>
    <trkseg>
      <trkpt lat="49.4399" lon="1.20224">
        <ele>160</ele>
        <time>2017-08-01T13:54:24Z</time>
      </trkpt>
      <trkpt lat="49.4399" lon="1.20224">
        <ele>160</ele>
        <time>2017-08-01T13:54:24Z</time>
      </trkpt>
      <trkpt lat="49.4399" lon="1.20225">
        <ele>160</ele>
        <time>2017-08-01T13:54:24Z</time>
      </trkpt>
      <trkpt lat="49.43993" lon="1.20236">
        <ele>160</ele>
        <time>2017-08-01T13:54:24Z</time>
      </trkpt>
      <trkpt lat="49.4399" lon="1.20243">
        <ele>160</ele>
        <time>2017-08-01T13:54:24Z</time>
      </trkpt>
      <trkpt lat="49.43993" lon="1.20244">
        <ele>160</ele>
        <time>2017-08-01T13:54:56Z</time>
      </trkpt>
      <trkpt lat="49.43994" lon="1.20244">
        <ele>160</ele>
        <time>2017-08-01T13:54:56Z</time>
      </trkpt>
      <trkpt lat="49.43994" lon="1.20244">
        <ele>160</ele>
        <time>2017-08-01T13:54:56Z</time>
      </trkpt>
      <trkpt lat="49.43994" lon="1.20244">
        <ele>160</ele>
        <time>2017-08-01T13:54:56Z</time>
      </trkpt>
      <trkpt lat="49.44002" lon="1.20243">
        <ele>160</ele>
        <time>2017-08-01T13:54:56Z</time>
      </trkpt>
      <trkpt lat="49.44015" lon="1.20246">
        <ele>160</ele>
        <time>2017-08-01T13:55:12Z</time>
      </trkpt>
      <trkpt lat="49.44015" lon="1.20249">
        <ele>160</ele>
        <time>2017-08-01T13:55:12Z</time>
      </trkpt>
      <trkpt lat="49.44022" lon="1.20243">
        <ele>160</ele>
        <time>2017-08-01T13:55:12Z</time>
      </trkpt>
      <trkpt lat="49.44028" lon="1.20243">
        <ele>160</ele>
        <time>2017-08-01T13:55:12Z</time>
      </trkpt>
      <trkpt lat="49.4403" lon="1.20249">
        <ele>160</ele>
        <time>2017-08-01T13:55:28Z</time>
      </trkpt>
      <trkpt lat="49.4403" lon="1.20246">
        <ele>160</ele>
        <time>2017-08-01T13:55:28Z</time>
      </trkpt>
      <trkpt lat="49.44032" lon="1.2024">
        <ele>160</ele>
        <time>2017-08-01T13:55:28Z</time>
      </trkpt>
      <trkpt lat="49.44041" lon="1.20248">
        <ele>160</ele>
        <time>2017-08-01T13:55:28Z</time>
      </trkpt>
      <trkpt lat="49.44044" lon="1.20252">
        <ele>157</ele>
        <time>2017-08-01T13:55:44Z</time>
      </trkpt>
      <trkpt lat="49.44044" lon="1.20257">
        <ele>157</ele>
        <time>2017-08-01T13:55:44Z</time>
      </trkpt>
      <trkpt lat="49.44048" lon="1.20262">
        <ele>157</ele>
        <time>2017-08-01T13:55:44Z</time>
      </trkpt>
      <trkpt lat="49.44048" lon="1.20267">
        <ele>157</ele>
        <time>2017-08-01T13:55:44Z</time>
      </trkpt>
      <trkpt lat="49.44059" lon="1.20267">
        <ele>157</ele>
        <time>2017-08-01T13:56:04Z</time>
      </trkpt>
      <trkpt lat="49.44061" lon="1.20266">
        <ele>157</ele>
        <time>2017-08-01T13:56:04Z</time>
      </trkpt>
      <trkpt lat="49.44066" lon="1.20264">
        <ele>157</ele>
        <time>2017-08-01T13:56:04Z</time>
      </trkpt>
      <trkpt lat="49.44067" lon="1.20263">
        <ele>157</ele>
        <time>2017-08-01T13:56:04Z</time>
      </trkpt>
      <trkpt lat="49.44073" lon="1.20265">
        <ele>157</ele>
        <time>2017-08-01T13:56:04Z</time>
      </trkpt>
      <trkpt lat="49.44099" lon="1.20255">
        <ele>157</ele>
        <time>2017-08-01T13:56:52Z</time>
      </trkpt>
      <trkpt lat="49.44106" lon="1.20254">
        <ele>157</ele>
        <time>2017-08-01T13:56:52Z</time>
      </trkpt>
      <trkpt lat="49.44107" lon="1.20258">
        <ele>157</ele>
        <time>2017-08-01T13:56:52Z</time>
      </trkpt>
      <trkpt lat="49.44115" lon="1.20264">
        <ele>157</ele>
        <time>2017-08-01T13:56:52Z</time>
      </trkpt>
      <trkpt lat="49.44122" lon="1.20261">
        <ele>157</ele>
        <time>2017-08-01T13:56:52Z</time>
      </trkpt>
      <trkpt lat="49.44131" lon="1.20265">
        <ele>155</ele>
        <time>2017-08-01T13:57:12Z</time>
      </trkpt>
      <trkpt lat="49.44133" lon="1.20269">
        <ele>155</ele>
        <time>2017-08-01T13:57:12Z</time>
      </trkpt>
      <trkpt lat="49.44133" lon="1.20273">
        <ele>155</ele>
        <time>2017-08-01T13:57:12Z</time>
      </trkpt>
      <trkpt lat="49.44135" lon="1.20274">
        <ele>155</ele>
        <time>2017-08-01T13:57:12Z</time>
      </trkpt>
      <trkpt lat="49.44139" lon="1.20281">
        <ele>155</ele>
        <time>2017-08-01T13:57:12Z</time>
      </trkpt>
      <trkpt lat="49.44142" lon="1.2028">
        <ele>155</ele>
        <time>2017-08-01T13:57:28Z</time>
      </trkpt>
      <trkpt lat="49.44149" lon="1.20285">
        <ele>155</ele>
        <time>2017-08-01T13:57:28Z</time>
      </trkpt>
      <trkpt lat="49.44151" lon="1.20293">
        <ele>155</ele>
        <time>2017-08-01T13:57:28Z</time>
      </trkpt>
      <trkpt lat="49.44153" lon="1.20295">
        <ele>155</ele>
        <time>2017-08-01T13:57:28Z</time>
      </trkpt>
      <trkpt lat="49.44154" lon="1.20296">
        <ele>155</ele>
        <time>2017-08-01T13:57:48Z</time>
      </trkpt>
      <trkpt lat="49.44157" lon="1.20299">
        <ele>155</ele>
        <time>2017-08-01T13:57:48Z</time>
      </trkpt>
      <trkpt lat="49.44158" lon="1.20301">
        <ele>155</ele>
        <time>2017-08-01T13:57:48Z</time>
      </trkpt>
      <trkpt lat="49.44161" lon="1.20303">
        <ele>155</ele>
        <time>2017-08-01T13:57:48Z</time>
      </trkpt>
      <trkpt lat="49.44171" lon="1.20303">
        <ele>155</ele>
        <time>2017-08-01T13:57:48Z</time>
      </trkpt>
      <trkpt lat="49.44177" lon="1.20305">
        <ele>155</ele>
        <time>2017-08-01T13:58:04Z</time>
      </trkpt>
      <trkpt lat="49.44186" lon="1.20308">
        <ele>155</ele>
        <time>2017-08-01T13:58:04Z</time>
      </trkpt>
      <trkpt lat="49.44187" lon="1.2031">
        <ele>155</ele>
        <time>2017-08-01T13:58:04Z</time>
      </trkpt>
      <trkpt lat="49.44194" lon="1.20309">
        <ele>155</ele>
        <time>2017-08-01T13:58:04Z</time>
      </trkpt>
      <trkpt lat="49.442" lon="1.20311">
        <ele>155</ele>
        <time>2017-08-01T13:58:20Z</time>
      </trkpt>
      <trkpt lat="49.44211" lon="1.20311">
        <ele>152</ele>
        <time>2017-08-01T13:58:20Z</time>
      </trkpt>
      <trkpt lat="49.44212" lon="1.20303">
        <ele>152</ele>
        <time>2017-08-01T13:58:20Z</time>
      </trkpt>
      <trkpt lat="49.44221" lon="1.20317">
        <ele>152</ele>
        <time>2017-08-01T13:58:20Z</time>
      </trkpt>
      <trkpt lat="49.44222" lon="1.20318">
        <ele>152</ele>
        <time>2017-08-01T13:58:36Z</time>
      </trkpt>
      <trkpt lat="49.44221" lon="1.20318">
        <ele>152</ele>
        <time>2017-08-01T13:58:36Z</time>
      </trkpt>
      <trkpt lat="49.44233" lon="1.20312">
        <ele>152</ele>
        <time>2017-08-01T13:58:36Z</time>
      </trkpt>
      <trkpt lat="49.44235" lon="1.2031">
        <ele>152</ele>
        <time>2017-08-01T13:58:36Z</time>
      </trkpt>
      <trkpt lat="49.44237" lon="1.20307">
        <ele>152</ele>
        <time>2017-08-01T13:58:52Z</time>
      </trkpt>
      <trkpt lat="49.44243" lon="1.20294">
        <ele>152</ele>
        <time>2017-08-01T13:58:52Z</time>
      </trkpt>
      <trkpt lat="49.44248" lon="1.20293">
        <ele>152</ele>
        <time>2017-08-01T13:58:52Z</time>
      </trkpt>
      <trkpt lat="49.44252" lon="1.20297">
        <ele>152</ele>
        <time>2017-08-01T13:58:52Z</time>
      </trkpt>
      <trkpt lat="49.4426" lon="1.20296">
        <ele>152</ele>
        <time>2017-08-01T13:59:08Z</time>
      </trkpt>
      <trkpt lat="49.44264" lon="1.20295">
        <ele>152</ele>
        <time>2017-08-01T13:59:08Z</time>
      </trkpt>
      <trkpt lat="49.44258" lon="1.20312">
        <ele>152</ele>
        <time>2017-08-01T13:59:08Z</time>
      </trkpt>
      <trkpt lat="49.44268" lon="1.20312">
        <ele>152</ele>
        <time>2017-08-01T13:59:08Z</time>
      </trkpt>
      <trkpt lat="49.44283" lon="1.20284">
        <ele>152</ele>
        <time>2017-08-01T13:59:36Z</time>
      </trkpt>
      <trkpt lat="49.44289" lon="1.20286">
        <ele>152</ele>
        <time>2017-08-01T13:59:36Z</time>
      </trkpt>
      <trkpt lat="49.44292" lon="1.20293">
        <ele>153</ele>
        <time>2017-08-01T13:59:36Z</time>
      </trkpt>
      <trkpt lat="49.44302" lon="1.20294">
        <ele>153</ele>
        <time>2017-08-01T13:59:36Z</time>
      </trkpt>
      <trkpt lat="49.44314" lon="1.2029">
        <ele>153</ele>
        <time>2017-08-01T13:59:36Z</time>
      </trkpt>
      <trkpt lat="49.44316" lon="1.20291">
        <ele>153</ele>
        <time>2017-08-01T13:59:52Z</time>
      </trkpt>
      <trkpt lat="49.44316" lon="1.20294">
        <ele>153</ele>
        <time>2017-08-01T13:59:52Z</time>
      </trkpt>
      <trkpt lat="49.44321" lon="1.20297">
        <ele>153</ele>
        <time>2017-08-01T13:59:52Z</time>
      </trkpt>
      <trkpt lat="49.44332" lon="1.20291">
        <ele>153</ele>
        <time>2017-08-01T13:59:52Z</time>
      </trkpt>
      <trkpt lat="49.4434" lon="1.20293">
        <ele>153</ele>
        <time>2017-08-01T14:00:08Z</time>
      </trkpt>
      <trkpt lat="49.44342" lon="1.20291">
        <ele>153</ele>
        <time>2017-08-01T14:00:08Z</time>
      </trkpt>
      <trkpt lat="49.44349" lon="1.20295">
        <ele>153</ele>
        <time>2017-08-01T14:00:08Z</time>
      </trkpt>
      <trkpt lat="49.44355" lon="1.20295">
        <ele>153</ele>
        <time>2017-08-01T14:00:08Z</time>
      </trkpt>
      <trkpt lat="49.44373" lon="1.20298">
        <ele>153</ele>
        <time>2017-08-01T14:00:48Z</time>
      </trkpt>
      <trkpt lat="49.44379" lon="1.20298">
        <ele>156</ele>
        <time>2017-08-01T14:00:48Z</time>
      </trkpt>
      <trkpt lat="49.44388" lon="1.20296">
        <ele>156</ele>
        <time>2017-08-01T14:00:48Z</time>
      </trkpt>
      <trkpt lat="49.44394" lon="1.20295">
        <ele>156</ele>
        <time>2017-08-01T14:00:48Z</time>
      </trkpt>
      <trkpt lat="49.44401" lon="1.20297">
        <ele>156</ele>
        <time>2017-08-01T14:00:48Z</time>
      </trkpt>
      <trkpt lat="49.44402" lon="1.20298">
        <ele>156</ele>
        <time>2017-08-01T14:01:04Z</time>
      </trkpt>
      <trkpt lat="49.44405" lon="1.20297">
        <ele>156</ele>
        <time>2017-08-01T14:01:04Z</time>
      </trkpt>
      <trkpt lat="49.44407" lon="1.203">
        <ele>156</ele>
        <time>2017-08-01T14:01:04Z</time>
      </trkpt>
      <trkpt lat="49.44414" lon="1.20303">
        <ele>156</ele>
        <time>2017-08-01T14:01:04Z</time>
      </trkpt>
      <trkpt lat="49.44417" lon="1.20305">
        <ele>156</ele>
        <time>2017-08-01T14:01:20Z</time>
      </trkpt>
      <trkpt lat="49.44421" lon="1.20304">
        <ele>156</ele>
        <time>2017-08-01T14:01:20Z</time>
      </trkpt>
      <trkpt lat="49.44424" lon="1.20305">
        <ele>156</ele>
        <time>2017-08-01T14:01:20Z</time>
      </trkpt>
      <trkpt lat="49.44427" lon="1.20301">
        <ele>156</ele>
        <time>2017-08-01T14:01:20Z</time>
      </trkpt>
      <trkpt lat="49.44435" lon="1.203">
        <ele>156</ele>
        <time>2017-08-01T14:01:36Z</time>
      </trkpt>
      <trkpt lat="49.4444" lon="1.20298">
        <ele>156</ele>
        <time>2017-08-01T14:01:36Z</time>
      </trkpt>
      <trkpt lat="49.44445" lon="1.20297">
        <ele>156</ele>
        <time>2017-08-01T14:01:36Z</time>
      </trkpt>
      <trkpt lat="49.44452" lon="1.20299">
        <ele>156</ele>
        <time>2017-08-01T14:01:36Z</time>
      </trkpt>
      <trkpt lat="49.44459" lon="1.20295">
        <ele>157</ele>
        <time>2017-08-01T14:01:52Z</time>
      </trkpt>
      <trkpt lat="49.44465" lon="1.20298">
        <ele>157</ele>
        <time>2017-08-01T14:01:52Z</time>
      </trkpt>
      <trkpt lat="49.44467" lon="1.20299">
        <ele>157</ele>
        <time>2017-08-01T14:01:52Z</time>
      </trkpt>
      <trkpt lat="49.44473" lon="1.20296">
        <ele>157</ele>
        <time>2017-08-01T14:01:52Z</time>
      </trkpt>
      <trkpt lat="49.44483" lon="1.20299">
        <ele>157</ele>
        <time>2017-08-01T14:02:24Z</time>
      </trkpt>
      <trkpt lat="49.44491" lon="1.20298">
        <ele>157</ele>
        <time>2017-08-01T14:02:24Z</time>
      </trkpt>
      <trkpt lat="49.44496" lon="1.20296">
        <ele>157</ele>
        <time>2017-08-01T14:02:24Z</time>
      </trkpt>
      <trkpt lat="49.44503" lon="1.20295">
        <ele>157</ele>
        <time>2017-08-01T14:02:24Z</time>
      </trkpt>
      <trkpt lat="49.44504" lon="1.20297">
        <ele>157</ele>
        <time>2017-08-01T14:02:24Z</time>
      </trkpt>
      <trkpt lat="49.4451" lon="1.203">
        <ele>157</ele>
        <time>2017-08-01T14:02:40Z</time>
      </trkpt>
      <trkpt lat="49.44514" lon="1.20303">
        <ele>157</ele>
        <time>2017-08-01T14:02:40Z</time>
      </trkpt>
      <trkpt lat="49.44518" lon="1.20301">
        <ele>157</ele>
        <time>2017-08-01T14:02:40Z</time>
      </trkpt>
      <trkpt lat="49.44523" lon="1.20301">
        <ele>157</ele>
        <time>2017-08-01T14:02:40Z</time>
      </trkpt>
      <trkpt lat="49.44522" lon="1.20299">
        <ele>157</ele>
        <time>2017-08-01T14:03:16Z</time>
      </trkpt>
      <trkpt lat="49.44536" lon="1.20297">
        <ele>157</ele>
        <time>2017-08-01T14:03:16Z</time>
      </trkpt>
      <trkpt lat="49.44545" lon="1.20298">
        <ele>159</ele>
        <time>2017-08-01T14:03:16Z</time>
      </trkpt>
      <trkpt lat="49.44553" lon="1.20296">
        <ele>159</ele>
        <time>2017-08-01T14:03:16Z</time>
      </trkpt>
      <trkpt lat="49.44555" lon="1.203">
        <ele>159</ele>
        <time>2017-08-01T14:03:16Z</time>
      </trkpt>
      <trkpt lat="49.44562" lon="1.20298">
        <ele>159</ele>
        <time>2017-08-01T14:03:32Z</time>
      </trkpt>
      <trkpt lat="49.44566" lon="1.20297">
        <ele>159</ele>
        <time>2017-08-01T14:03:32Z</time>
      </trkpt>
      <trkpt lat="49.4457" lon="1.20296">
        <ele>159</ele>
        <time>2017-08-01T14:03:32Z</time>
      </trkpt>
      <trkpt lat="49.44575" lon="1.20296">
        <ele>159</ele>
        <time>2017-08-01T14:03:32Z</time>
      </trkpt>
      <trkpt lat="49.44579" lon="1.20291">
        <ele>158</ele>
        <time>2017-08-01T14:03:48Z</time>
      </trkpt>
      <trkpt lat="49.44585" lon="1.20292">
        <ele>158</ele>
        <time>2017-08-01T14:03:48Z</time>
      </trkpt>
      <trkpt lat="49.44587" lon="1.20287">
        <ele>158</ele>
        <time>2017-08-01T14:03:48Z</time>
      </trkpt>
      <trkpt lat="49.44589" lon="1.20287">
        <ele>158</ele>
        <time>2017-08-01T14:03:48Z</time>
      </trkpt>
      <trkpt lat="49.44598" lon="1.20289">
        <ele>158</ele>
        <time>2017-08-01T14:04:04Z</time>
      </trkpt>
      <trkpt lat="49.44601" lon="1.20287">
        <ele>158</ele>
        <time>2017-08-01T14:04:04Z</time>
      </trkpt>
      <trkpt lat="49.44604" lon="1.20284">
        <ele>158</ele>
        <time>2017-08-01T14:04:04Z</time>
      </trkpt>
      <trkpt lat="49.44611" lon="1.20281">
        <ele>158</ele>
        <time>2017-08-01T14:04:04Z</time>
      </trkpt>
      <trkpt lat="49.44628" lon="1.20285">
        <ele>158</ele>
        <time>2017-08-01T14:04:56Z</time>
      </trkpt>
      <trkpt lat="49.44628" lon="1.20285">
        <ele>158</ele>
        <time>2017-08-01T14:04:56Z</time>
      </trkpt>
      <trkpt lat="49.44631" lon="1.20283">
        <ele>158</ele>
        <time>2017-08-01T14:04:56Z</time>
      </trkpt>
      <trkpt lat="49.44634" lon="1.20286">
        <ele>158</ele>
        <time>2017-08-01T14:04:56Z</time>
      </trkpt>
      <trkpt lat="49.44638" lon="1.2029">
        <ele>158</ele>
        <time>2017-08-01T14:04:56Z</time>
      </trkpt>
      <trkpt lat="49.4464" lon="1.20289">
        <ele>158</ele>
        <time>2017-08-01T14:05:12Z</time>
      </trkpt>
      <trkpt lat="49.44648" lon="1.20291">
        <ele>158</ele>
        <time>2017-08-01T14:05:12Z</time>
      </trkpt>
      <trkpt lat="49.4465" lon="1.20293">
        <ele>159</ele>
        <time>2017-08-01T14:05:12Z</time>
      </trkpt>
      <trkpt lat="49.44652" lon="1.20293">
        <ele>159</ele>
        <time>2017-08-01T14:05:12Z</time>
      </trkpt>
      <trkpt lat="49.44659" lon="1.2029">
        <ele>158</ele>
        <time>2017-08-01T14:05:28Z</time>
      </trkpt>
      <trkpt lat="49.44664" lon="1.20294">
        <ele>159</ele>
        <time>2017-08-01T14:05:28Z</time>
      </trkpt>
      <trkpt lat="49.44672" lon="1.20294">
        <ele>159</ele>
        <time>2017-08-01T14:05:28Z</time>
      </trkpt>
      <trkpt lat="49.44678" lon="1.20292">
        <ele>159</ele>
        <time>2017-08-01T14:05:28Z</time>
      </trkpt>
      <trkpt lat="49.44693" lon="1.20278">
        <ele>158</ele>
        <time>2017-08-01T14:06:00Z</time>
      </trkpt>
      <trkpt lat="49.44696" lon="1.20272">
        <ele>158</ele>
        <time>2017-08-01T14:06:00Z</time>
      </trkpt>
      <trkpt lat="49.44701" lon="1.20263">
        <ele>158</ele>
        <time>2017-08-01T14:06:00Z</time>
      </trkpt>
      <trkpt lat="49.44705" lon="1.20261">
        <ele>158</ele>
        <time>2017-08-01T14:06:00Z</time>
      </trkpt>
      <trkpt lat="49.44709" lon="1.20254">
        <ele>159</ele>
        <time>2017-08-01T14:06:00Z</time>
      </trkpt>
      <trkpt lat="49.44712" lon="1.2025">
        <ele>159</ele>
        <time>2017-08-01T14:06:16Z</time>
      </trkpt>
      <trkpt lat="49.44719" lon="1.20243">
        <ele>159</ele>
        <time>2017-08-01T14:06:16Z</time>
      </trkpt>
      <trkpt lat="49.44722" lon="1.20242">
        <ele>159</ele>
        <time>2017-08-01T14:06:16Z</time>
      </trkpt>
      <trkpt lat="49.44726" lon="1.20236">
        <ele>159</ele>
        <time>2017-08-01T14:06:16Z</time>
      </trkpt>
      <trkpt lat="49.44731" lon="1.20231">
        <ele>159</ele>
        <time>2017-08-01T14:06:36Z</time>
      </trkpt>
      <trkpt lat="49.44735" lon="1.20228">
        <ele>159</ele>
        <time>2017-08-01T14:06:36Z</time>
      </trkpt>
      <trkpt lat="49.44737" lon="1.20224">
        <ele>159</ele>
        <time>2017-08-01T14:06:36Z</time>
      </trkpt>
      <trkpt lat="49.44738" lon="1.20223">
        <ele>159</ele>
        <time>2017-08-01T14:06:36Z</time>
      </trkpt>
      <trkpt lat="49.44741" lon="1.20218">
        <ele>159</ele>
        <time>2017-08-01T14:06:36Z</time>
      </trkpt>
      <trkpt lat="49.44746" lon="1.2021">
        <ele>159</ele>
        <time>2017-08-01T14:06:52Z</time>
      </trkpt>
      <trkpt lat="49.44753" lon="1.20198">
        <ele>157</ele>
        <time>2017-08-01T14:06:52Z</time>
      </trkpt>
      <trkpt lat="49.44756" lon="1.20195">
        <ele>157</ele>
        <time>2017-08-01T14:06:52Z</time>
      </trkpt>
      <trkpt lat="49.4476" lon="1.2019">
        <ele>157</ele>
        <time>2017-08-01T14:06:52Z</time>
      </trkpt>
      <trkpt lat="49.44764" lon="1.20183">
        <ele>157</ele>
        <time>2017-08-01T14:07:08Z</time>
      </trkpt>
      <trkpt lat="49.44768" lon="1.20176">
        <ele>157</ele>
        <time>2017-08-01T14:07:08Z</time>
      </trkpt>
      <trkpt lat="49.44772" lon="1.20168">
        <ele>157</ele>
        <time>2017-08-01T14:07:08Z</time>
      </trkpt>
      <trkpt lat="49.44776" lon="1.20165">
        <ele>157</ele>
        <time>2017-08-01T14:07:08Z</time>
      </trkpt>
      <trkpt lat="49.44779" lon="1.20162">
        <ele>157</ele>
        <time>2017-08-01T14:07:24Z</time>
      </trkpt>
      <trkpt lat="49.44782" lon="1.20157">
        <ele>157</ele>
        <time>2017-08-01T14:07:24Z</time>
      </trkpt>
      <trkpt lat="49.44787" lon="1.20149">
        <ele>157</ele>
        <time>2017-08-01T14:07:24Z</time>
      </trkpt>
      <trkpt lat="49.44791" lon="1.20146">
        <ele>157</ele>
        <time>2017-08-01T14:07:24Z</time>
      </trkpt>
      <trkpt lat="49.44794" lon="1.20144">
        <ele>159</ele>
        <time>2017-08-01T14:07:40Z</time>
      </trkpt>
      <trkpt lat="49.448" lon="1.20137">
        <ele>159</ele>
        <time>2017-08-01T14:07:40Z</time>
      </trkpt>
      <trkpt lat="49.44802" lon="1.20132">
        <ele>159</ele>
        <time>2017-08-01T14:07:40Z</time>
      </trkpt>
      <trkpt lat="49.44806" lon="1.20123">
        <ele>158</ele>
        <time>2017-08-01T14:07:40Z</time>
      </trkpt>
      <trkpt lat="49.44808" lon="1.2012">
        <ele>158</ele>
        <time>2017-08-01T14:07:56Z</time>
      </trkpt>
      <trkpt lat="49.44812" lon="1.20114">
        <ele>158</ele>
        <time>2017-08-01T14:07:56Z</time>
      </trkpt>
      <trkpt lat="49.44818" lon="1.20116">
        <ele>158</ele>
        <time>2017-08-01T14:07:56Z</time>
      </trkpt>
      <trkpt lat="49.44822" lon="1.20113">
        <ele>158</ele>
        <time>2017-08-01T14:07:56Z</time>
      </trkpt>
      <trkpt lat="49.44828" lon="1.20109">
        <ele>158</ele>
        <time>2017-08-01T14:08:12Z</time>
      </trkpt>
      <trkpt lat="49.44832" lon="1.20102">
        <ele>158</ele>
        <time>2017-08-01T14:08:12Z</time>
      </trkpt>
      <trkpt lat="49.44839" lon="1.20102">
        <ele>158</ele>
        <time>2017-08-01T14:08:12Z</time>
      </trkpt>
      <trkpt lat="49.44841" lon="1.20108">
        <ele>158</ele>
        <time>2017-08-01T14:08:12Z</time>
      </trkpt>
      <trkpt lat="49.44847" lon="1.20105">
        <ele>158</ele>
        <time>2017-08-01T14:08:28Z</time>
      </trkpt>
      <trkpt lat="49.44853" lon="1.20104">
        <ele>158</ele>
        <time>2017-08-01T14:08:28Z</time>
      </trkpt>
      <trkpt lat="49.44857" lon="1.201">
        <ele>158</ele>
        <time>2017-08-01T14:08:28Z</time>
      </trkpt>
      <trkpt lat="49.44862" lon="1.20099">
        <ele>158</ele>
        <time>2017-08-01T14:08:28Z</time>
      </trkpt>
      <trkpt lat="49.44866" lon="1.20095">
        <ele>158</ele>
        <time>2017-08-01T14:08:44Z</time>
      </trkpt>
      <trkpt lat="49.44873" lon="1.20095">
        <ele>158</ele>
        <time>2017-08-01T14:08:44Z</time>
      </trkpt>
      <trkpt lat="49.44879" lon="1.20089">
        <ele>157</ele>
        <time>2017-08-01T14:08:44Z</time>
      </trkpt>
      <trkpt lat="49.44885" lon="1.20087">
        <ele>157</ele>
        <time>2017-08-01T14:08:44Z</time>
      </trkpt>
      <trkpt lat="49.44889" lon="1.20087">
        <ele>157</ele>
        <time>2017-08-01T14:09:00Z</time>
      </trkpt>
      <trkpt lat="49.44894" lon="1.20086">
        <ele>157</ele>
        <time>2017-08-01T14:09:00Z</time>
      </trkpt>
      <trkpt lat="49.449" lon="1.20081">
        <ele>157</ele>
        <time>2017-08-01T14:09:00Z</time>
      </trkpt>
      <trkpt lat="49.44903" lon="1.20084">
        <ele>157</ele>
        <time>2017-08-01T14:09:00Z</time>
      </trkpt>
      <trkpt lat="49.44909" lon="1.20075">
        <ele>157</ele>
        <time>2017-08-01T14:09:16Z</time>
      </trkpt>
      <trkpt lat="49.44913" lon="1.20073">
        <ele>157</ele>
        <time>2017-08-01T14:09:16Z</time>
      </trkpt>
      <trkpt lat="49.44918" lon="1.20068">
        <ele>157</ele>
        <time>2017-08-01T14:09:16Z</time>
      </trkpt>
      <trkpt lat="49.44921" lon="1.20069">
        <ele>157</ele>
        <time>2017-08-01T14:09:16Z</time>
      </trkpt>
      <trkpt lat="49.44927" lon="1.20062">
        <ele>157</ele>
        <time>2017-08-01T14:09:32Z</time>
      </trkpt>
      <trkpt lat="49.44932" lon="1.20059">
        <ele>157</ele>
        <time>2017-08-01T14:09:32Z</time>
      </trkpt>
      <trkpt lat="49.44936" lon="1.20057">
        <ele>157</ele>
        <time>2017-08-01T14:09:32Z</time>
      </trkpt>
      <trkpt lat="49.4494" lon="1.20055">
        <ele>157</ele>
        <time>2017-08-01T14:09:32Z</time>
      </trkpt>
      <trkpt lat="49.44946" lon="1.20049">
        <ele>157</ele>
        <time>2017-08-01T14:09:48Z</time>
      </trkpt>
      <trkpt lat="49.44951" lon="1.20047">
        <ele>157</ele>
        <time>2017-08-01T14:09:48Z</time>
      </trkpt>
      <trkpt lat="49.44957" lon="1.20043">
        <ele>157</ele>
        <time>2017-08-01T14:09:48Z</time>
      </trkpt>
      <trkpt lat="49.44962" lon="1.20044">
        <ele>157</ele>
        <time>2017-08-01T14:09:48Z</time>
      </trkpt>
      <trkpt lat="49.44966" lon="1.2004">
        <ele>157</ele>
        <time>2017-08-01T14:10:04Z</time>
      </trkpt>
      <trkpt lat="49.44968" lon="1.20042">
        <ele>157</ele>
        <time>2017-08-01T14:10:04Z</time>
      </trkpt>
      <trkpt lat="49.44974" lon="1.20041">
        <ele>157</ele>
        <time>2017-08-01T14:10:04Z</time>
      </trkpt>
      <trkpt lat="49.44979" lon="1.20042">
        <ele>157</ele>
        <time>2017-08-01T14:10:04Z</time>
      </trkpt>
      <trkpt lat="49.44984" lon="1.20047">
        <ele>157</ele>
        <time>2017-08-01T14:10:20Z</time>
      </trkpt>
      <trkpt lat="49.44989" lon="1.20048">
        <ele>157</ele>
        <time>2017-08-01T14:10:20Z</time>
      </trkpt>
      <trkpt lat="49.44993" lon="1.2005">
        <ele>157</ele>
        <time>2017-08-01T14:10:20Z</time>
      </trkpt>
      <trkpt lat="49.44998" lon="1.20053">
        <ele>157</ele>
        <time>2017-08-01T14:10:20Z</time>
      </trkpt>
      <trkpt lat="49.45005" lon="1.20053">
        <ele>157</ele>
        <time>2017-08-01T14:10:52Z</time>
      </trkpt>
      <trkpt lat="49.45006" lon="1.20047">
        <ele>157</ele>
        <time>2017-08-01T14:10:52Z</time>
      </trkpt>
      <trkpt lat="49.4501" lon="1.20043">
        <ele>157</ele>
        <time>2017-08-01T14:10:52Z</time>
      </trkpt>
      <trkpt lat="49.45012" lon="1.20038">
        <ele>157</ele>
        <time>2017-08-01T14:10:52Z</time>
      </trkpt>
      <trkpt lat="49.45015" lon="1.20033">
        <ele>157</ele>
        <time>2017-08-01T14:10:52Z</time>
      </trkpt>
      <trkpt lat="49.45019" lon="1.20025">
        <ele>157</ele>
        <time>2017-08-01T14:11:12Z</time>
      </trkpt>
      <trkpt lat="49.4502" lon="1.20025">
        <ele>157</ele>
        <time>2017-08-01T14:11:12Z</time>
      </trkpt>
      <trkpt lat="49.4502" lon="1.20024">
        <ele>157</ele>
        <time>2017-08-01T14:11:12Z</time>
      </trkpt>
      <trkpt lat="49.45021" lon="1.20024">
        <ele>157</ele>
        <time>2017-08-01T14:11:12Z</time>
      </trkpt>
      <trkpt lat="49.45026" lon="1.20016">
        <ele>157</ele>
        <time>2017-08-01T14:11:12Z</time>
      </trkpt>
      <trkpt lat="49.45033" lon="1.20007">
        <ele>157</ele>
        <time>2017-08-01T14:11:28Z</time>
      </trkpt>
      <trkpt lat="49.45039" lon="1.2">
        <ele>157</ele>
        <time>2017-08-01T14:11:28Z</time>
      </trkpt>
      <trkpt lat="49.45044" lon="1.19995">
        <ele>156</ele>
        <time>2017-08-01T14:11:28Z</time>
      </trkpt>
      <trkpt lat="49.4505" lon="1.19991">
        <ele>156</ele>
        <time>2017-08-01T14:11:28Z</time>
      </trkpt>
      <trkpt lat="49.45048" lon="1.19984">
        <ele>156</ele>
        <time>2017-08-01T14:11:44Z</time>
      </trkpt>
      <trkpt lat="49.45056" lon="1.19978">
        <ele>156</ele>
        <time>2017-08-01T14:11:44Z</time>
      </trkpt>
      <trkpt lat="49.45058" lon="1.19972">
        <ele>156</ele>
        <time>2017-08-01T14:11:44Z</time>
      </trkpt>
      <trkpt lat="49.45063" lon="1.19964">
        <ele>156</ele>
        <time>2017-08-01T14:11:44Z</time>
      </trkpt>
      <trkpt lat="49.45066" lon="1.19962">
        <ele>156</ele>
        <time>2017-08-01T14:12:00Z</time>
      </trkpt>
      <trkpt lat="49.45071" lon="1.1996">
        <ele>156</ele>
        <time>2017-08-01T14:12:00Z</time>
      </trkpt>
      <trkpt lat="49.45073" lon="1.19957">
        <ele>156</ele>
        <time>2017-08-01T14:12:00Z</time>
      </trkpt>
      <trkpt lat="49.45075" lon="1.19951">
        <ele>156</ele>
        <time>2017-08-01T14:12:00Z</time>
      </trkpt>
      <trkpt lat="49.45081" lon="1.19947">
        <ele>156</ele>
        <time>2017-08-01T14:12:16Z</time>
      </trkpt>
      <trkpt lat="49.45085" lon="1.19947">
        <ele>156</ele>
        <time>2017-08-01T14:12:16Z</time>
      </trkpt>
      <trkpt lat="49.45093" lon="1.19944">
        <ele>156</ele>
        <time>2017-08-01T14:12:16Z</time>
      </trkpt>
      <trkpt lat="49.45098" lon="1.19941">
        <ele>156</ele>
        <time>2017-08-01T14:12:16Z</time>
      </trkpt>
      <trkpt lat="49.45113" lon="1.19941">
        <ele>156</ele>
        <time>2017-08-01T14:12:48Z</time>
      </trkpt>
      <trkpt lat="49.4512" lon="1.19937">
        <ele>156</ele>
        <time>2017-08-01T14:12:48Z</time>
      </trkpt>
      <trkpt lat="49.45127" lon="1.19941">
        <ele>153</ele>
        <time>2017-08-01T14:12:48Z</time>
      </trkpt>
      <trkpt lat="49.45132" lon="1.1994">
        <ele>153</ele>
        <time>2017-08-01T14:12:48Z</time>
      </trkpt>
      <trkpt lat="49.45138" lon="1.19943">
        <ele>153</ele>
        <time>2017-08-01T14:12:48Z</time>
      </trkpt>
      <trkpt lat="49.45143" lon="1.19942">
        <ele>153</ele>
        <time>2017-08-01T14:13:04Z</time>
      </trkpt>
      <trkpt lat="49.45151" lon="1.19945">
        <ele>153</ele>
        <time>2017-08-01T14:13:04Z</time>
      </trkpt>
      <trkpt lat="49.45155" lon="1.19946">
        <ele>153</ele>
        <time>2017-08-01T14:13:04Z</time>
      </trkpt>
      <trkpt lat="49.4516" lon="1.19946">
        <ele>153</ele>
        <time>2017-08-01T14:13:04Z</time>
      </trkpt>
      <trkpt lat="49.45165" lon="1.19946">
        <ele>153</ele>
        <time>2017-08-01T14:13:20Z</time>
      </trkpt>
      <trkpt lat="49.45168" lon="1.19945">
        <ele>153</ele>
        <time>2017-08-01T14:13:20Z</time>
      </trkpt>
      <trkpt lat="49.45173" lon="1.19947">
        <ele>153</ele>
        <time>2017-08-01T14:13:20Z</time>
      </trkpt>
      <trkpt lat="49.45178" lon="1.19947">
        <ele>153</ele>
        <time>2017-08-01T14:13:20Z</time>
      </trkpt>
      <trkpt lat="49.45183" lon="1.19948">
        <ele>153</ele>
        <time>2017-08-01T14:13:36Z</time>
      </trkpt>
      <trkpt lat="49.45188" lon="1.19947">
        <ele>153</ele>
        <time>2017-08-01T14:13:36Z</time>
      </trkpt>
      <trkpt lat="49.45193" lon="1.19945">
        <ele>153</ele>
        <time>2017-08-01T14:13:36Z</time>
      </trkpt>
      <trkpt lat="49.45198" lon="1.19943">
        <ele>153</ele>
        <time>2017-08-01T14:13:36Z</time>
      </trkpt>
      <trkpt lat="49.45201" lon="1.19936">
        <ele>153</ele>
        <time>2017-08-01T14:13:52Z</time>
      </trkpt>
      <trkpt lat="49.45201" lon="1.19933">
        <ele>153</ele>
        <time>2017-08-01T14:13:52Z</time>
      </trkpt>
      <trkpt lat="49.45208" lon="1.19927">
        <ele>149</ele>
        <time>2017-08-01T14:13:52Z</time>
      </trkpt>
      <trkpt lat="49.45212" lon="1.19925">
        <ele>149</ele>
        <time>2017-08-01T14:13:52Z</time>
      </trkpt>
      <trkpt lat="49.45218" lon="1.19921">
        <ele>149</ele>
        <time>2017-08-01T14:14:08Z</time>
      </trkpt>
      <trkpt lat="49.4522" lon="1.1992">
        <ele>149</ele>
        <time>2017-08-01T14:14:08Z</time>
      </trkpt>
      <trkpt lat="49.45227" lon="1.19916">
        <ele>149</ele>
        <time>2017-08-01T14:14:08Z</time>
      </trkpt>
      <trkpt lat="49.4523" lon="1.19908">
        <ele>149</ele>
        <time>2017-08-01T14:14:08Z</time>
      </trkpt>
      <trkpt lat="49.45237" lon="1.19901">
        <ele>149</ele>
        <time>2017-08-01T14:14:24Z</time>
      </trkpt>
      <trkpt lat="49.45243" lon="1.19901">
        <ele>149</ele>
        <time>2017-08-01T14:14:24Z</time>
      </trkpt>
      <trkpt lat="49.45246" lon="1.19895">
        <ele>149</ele>
        <time>2017-08-01T14:14:24Z</time>
      </trkpt>
      <trkpt lat="49.45251" lon="1.19898">
        <ele>149</ele>
        <time>2017-08-01T14:14:24Z</time>
      </trkpt>
      <trkpt lat="49.45267" lon="1.19889">
        <ele>149</ele>
        <time>2017-08-01T14:15:04Z</time>
      </trkpt>
      <trkpt lat="49.45272" lon="1.1988">
        <ele>149</ele>
        <time>2017-08-01T14:15:04Z</time>
      </trkpt>
      <trkpt lat="49.45272" lon="1.19878">
        <ele>149</ele>
        <time>2017-08-01T14:15:04Z</time>
      </trkpt>
      <trkpt lat="49.4528" lon="1.19868">
        <ele>148</ele>
        <time>2017-08-01T14:15:04Z</time>
      </trkpt>
      <trkpt lat="49.45285" lon="1.1986">
        <ele>148</ele>
        <time>2017-08-01T14:15:04Z</time>
      </trkpt>
      <trkpt lat="49.45291" lon="1.19854">
        <ele>148</ele>
        <time>2017-08-01T14:15:20Z</time>
      </trkpt>
      <trkpt lat="49.45295" lon="1.19853">
        <ele>146</ele>
        <time>2017-08-01T14:15:20Z</time>
      </trkpt>
      <trkpt lat="49.45298" lon="1.19853">
        <ele>146</ele>
        <time>2017-08-01T14:15:20Z</time>
      </trkpt>
      <trkpt lat="49.45303" lon="1.1986">
        <ele>146</ele>
        <time>2017-08-01T14:15:20Z</time>
      </trkpt>
      <trkpt lat="49.45304" lon="1.19868">
        <ele>146</ele>
        <time>2017-08-01T14:15:36Z</time>
      </trkpt>
      <trkpt lat="49.45307" lon="1.1987">
        <ele>146</ele>
        <time>2017-08-01T14:15:36Z</time>
      </trkpt>
      <trkpt lat="49.45309" lon="1.19872">
        <ele>146</ele>
        <time>2017-08-01T14:15:36Z</time>
      </trkpt>
      <trkpt lat="49.45316" lon="1.19875">
        <ele>146</ele>
        <time>2017-08-01T14:15:36Z</time>
      </trkpt>
      <trkpt lat="49.4532" lon="1.19872">
        <ele>146</ele>
        <time>2017-08-01T14:15:52Z</time>
      </trkpt>
      <trkpt lat="49.45327" lon="1.19869">
        <ele>146</ele>
        <time>2017-08-01T14:15:52Z</time>
      </trkpt>
      <trkpt lat="49.45331" lon="1.19865">
        <ele>146</ele>
        <time>2017-08-01T14:15:52Z</time>
      </trkpt>
      <trkpt lat="49.45335" lon="1.19863">
        <ele>146</ele>
        <time>2017-08-01T14:15:52Z</time>
      </trkpt>
      <trkpt lat="49.45336" lon="1.19863">
        <ele>146</ele>
        <time>2017-08-01T14:16:08Z</time>
      </trkpt>
      <trkpt lat="49.45335" lon="1.19859">
        <ele>146</ele>
        <time>2017-08-01T14:16:08Z</time>
      </trkpt>
      <trkpt lat="49.45339" lon="1.19858">
        <ele>146</ele>
        <time>2017-08-01T14:16:08Z</time>
      </trkpt>
      <trkpt lat="49.45342" lon="1.19854">
        <ele>146</ele>
        <time>2017-08-01T14:16:08Z</time>
      </trkpt>
      <trkpt lat="49.45346" lon="1.19852">
        <ele>146</ele>
        <time>2017-08-01T14:16:24Z</time>
      </trkpt>
      <trkpt lat="49.45351" lon="1.19841">
        <ele>146</ele>
        <time>2017-08-01T14:16:24Z</time>
      </trkpt>
      <trkpt lat="49.45355" lon="1.19843">
        <ele>146</ele>
        <time>2017-08-01T14:16:24Z</time>
      </trkpt>
      <trkpt lat="49.45361" lon="1.19845">
        <ele>146</ele>
        <time>2017-08-01T14:16:24Z</time>
      </trkpt>
      <trkpt lat="49.45363" lon="1.19839">
        <ele>146</ele>
        <time>2017-08-01T14:16:40Z</time>
      </trkpt>
      <trkpt lat="49.45364" lon="1.19836">
        <ele>146</ele>
        <time>2017-08-01T14:16:40Z</time>
      </trkpt>
      <trkpt lat="49.4537" lon="1.19831">
        <ele>146</ele>
        <time>2017-08-01T14:16:40Z</time>
      </trkpt>
      <trkpt lat="49.45377" lon="1.19827">
        <ele>152</ele>
        <time>2017-08-01T14:16:40Z</time>
      </trkpt>
      <trkpt lat="49.45387" lon="1.19809">
        <ele>152</ele>
        <time>2017-08-01T14:17:12Z</time>
      </trkpt>
      <trkpt lat="49.45394" lon="1.19808">
        <ele>152</ele>
        <time>2017-08-01T14:17:12Z</time>
      </trkpt>
      <trkpt lat="49.45395" lon="1.19806">
        <ele>152</ele>
        <time>2017-08-01T14:17:12Z</time>
      </trkpt>
      <trkpt lat="49.45399" lon="1.19798">
        <ele>152</ele>
        <time>2017-08-01T14:17:12Z</time>
      </trkpt>
      <trkpt lat="49.45401" lon="1.19799">
        <ele>152</ele>
        <time>2017-08-01T14:17:12Z</time>
      </trkpt>
      <trkpt lat="49.4541" lon="1.19788">
        <ele>152</ele>
        <time>2017-08-01T14:17:40Z</time>
      </trkpt>
      <trkpt lat="49.45416" lon="1.19787">
        <ele>152</ele>
        <time>2017-08-01T14:17:40Z</time>
      </trkpt>
      <trkpt lat="49.45419" lon="1.19782">
        <ele>152</ele>
        <time>2017-08-01T14:17:40Z</time>
      </trkpt>
      <trkpt lat="49.45424" lon="1.19774">
        <ele>152</ele>
        <time>2017-08-01T14:17:40Z</time>
      </trkpt>
      <trkpt lat="49.45427" lon="1.19769">
        <ele>152</ele>
        <time>2017-08-01T14:17:40Z</time>
      </trkpt>
      <trkpt lat="49.45431" lon="1.19763">
        <ele>152</ele>
        <time>2017-08-01T14:17:56Z</time>
      </trkpt>
      <trkpt lat="49.45437" lon="1.19758">
        <ele>152</ele>
        <time>2017-08-01T14:17:56Z</time>
      </trkpt>
      <trkpt lat="49.45441" lon="1.19752">
        <ele>152</ele>
        <time>2017-08-01T14:17:56Z</time>
      </trkpt>
      <trkpt lat="49.45443" lon="1.19749">
        <ele>152</ele>
        <time>2017-08-01T14:17:56Z</time>
      </trkpt>
      <trkpt lat="49.45453" lon="1.19734">
        <ele>152</ele>
        <time>2017-08-01T14:18:28Z</time>
      </trkpt>
      <trkpt lat="49.45453" lon="1.19732">
        <ele>152</ele>
        <time>2017-08-01T14:18:28Z</time>
      </trkpt>
      <trkpt lat="49.45457" lon="1.1973">
        <ele>152</ele>
        <time>2017-08-01T14:18:28Z</time>
      </trkpt>
      <trkpt lat="49.45463" lon="1.19719">
        <ele>155</ele>
        <time>2017-08-01T14:18:28Z</time>
      </trkpt>
      <trkpt lat="49.45467" lon="1.19717">
        <ele>155</ele>
        <time>2017-08-01T14:18:28Z</time>
      </trkpt>
      <trkpt lat="49.45467" lon="1.19717">
        <ele>155</ele>
        <time>2017-08-01T14:18:44Z</time>
      </trkpt>
      <trkpt lat="49.45468" lon="1.19716">
        <ele>155</ele>
        <time>2017-08-01T14:18:44Z</time>
      </trkpt>
      <trkpt lat="49.45475" lon="1.19711">
        <ele>155</ele>
        <time>2017-08-01T14:18:44Z</time>
      </trkpt>
      <trkpt lat="49.45477" lon="1.19708">
        <ele>155</ele>
        <time>2017-08-01T14:18:44Z</time>
      </trkpt>
      <trkpt lat="49.45481" lon="1.19705">
        <ele>155</ele>
        <time>2017-08-01T14:19:00Z</time>
      </trkpt>
      <trkpt lat="49.45483" lon="1.19704">
        <ele>155</ele>
        <time>2017-08-01T14:19:00Z</time>
      </trkpt>
      <trkpt lat="49.45489" lon="1.19702">
        <ele>155</ele>
        <time>2017-08-01T14:19:00Z</time>
      </trkpt>
      <trkpt lat="49.45491" lon="1.19696">
        <ele>155</ele>
        <time>2017-08-01T14:19:00Z</time>
      </trkpt>
      <trkpt lat="49.45502" lon="1.19681">
        <ele>155</ele>
        <time>2017-08-01T14:19:16Z</time>
      </trkpt>
      <trkpt lat="49.45508" lon="1.19672">
        <ele>155</ele>
        <time>2017-08-01T14:19:16Z</time>
      </trkpt>
      <trkpt lat="49.45514" lon="1.19669">
        <ele>155</ele>
        <time>2017-08-01T14:19:16Z</time>
      </trkpt>
      <trkpt lat="49.45518" lon="1.19666">
        <ele>155</ele>
        <time>2017-08-01T14:19:16Z</time>
      </trkpt>
      <trkpt lat="49.4553" lon="1.1965">
        <ele>155</ele>
        <time>2017-08-01T14:19:48Z</time>
      </trkpt>
      <trkpt lat="49.45531" lon="1.1965">
        <ele>155</ele>
        <time>2017-08-01T14:19:48Z</time>
      </trkpt>
      <trkpt lat="49.45537" lon="1.19645">
        <ele>155</ele>
        <time>2017-08-01T14:19:48Z</time>
      </trkpt>
      <trkpt lat="49.45538" lon="1.19644">
        <ele>155</ele>
        <time>2017-08-01T14:19:48Z</time>
      </trkpt>
      <trkpt lat="49.45539" lon="1.19641">
        <ele>155</ele>
        <time>2017-08-01T14:19:48Z</time>
      </trkpt>
      <trkpt lat="49.45541" lon="1.19641">
        <ele>155</ele>
        <time>2017-08-01T14:20:04Z</time>
      </trkpt>
      <trkpt lat="49.45545" lon="1.19634">
        <ele>157</ele>
        <time>2017-08-01T14:20:04Z</time>
      </trkpt>
      <trkpt lat="49.45552" lon="1.19627">
        <ele>157</ele>
        <time>2017-08-01T14:20:04Z</time>
      </trkpt>
      <trkpt lat="49.45557" lon="1.19617">
        <ele>157</ele>
        <time>2017-08-01T14:20:04Z</time>
      </trkpt>
      <trkpt lat="49.45565" lon="1.19605">
        <ele>157</ele>
        <time>2017-08-01T14:20:20Z</time>
      </trkpt>
      <trkpt lat="49.45569" lon="1.19601">
        <ele>157</ele>
        <time>2017-08-01T14:20:20Z</time>
      </trkpt>
      <trkpt lat="49.45575" lon="1.19597">
        <ele>157</ele>
        <time>2017-08-01T14:20:20Z</time>
      </trkpt>
      <trkpt lat="49.45578" lon="1.19594">
        <ele>157</ele>
        <time>2017-08-01T14:20:20Z</time>
      </trkpt>
      <trkpt lat="49.4558" lon="1.19594">
        <ele>157</ele>
        <time>2017-08-01T14:22:32Z</time>
      </trkpt>
      <trkpt lat="49.4558" lon="1.19594">
        <ele>157</ele>
        <time>2017-08-01T14:22:32Z</time>
      </trkpt>
      <trkpt lat="49.4558" lon="1.19592">
        <ele>157</ele>
        <time>2017-08-01T14:22:32Z</time>
      </trkpt>
      <trkpt lat="49.45578" lon="1.19583">
        <ele>157</ele>
        <time>2017-08-01T14:22:32Z</time>
      </trkpt>
      <trkpt lat="49.45576" lon="1.19574">
        <ele>157</ele>
        <time>2017-08-01T14:22:32Z</time>
      </trkpt>
      <trkpt lat="49.45572" lon="1.19562">
        <ele>157</ele>
        <time>2017-08-01T14:22:48Z</time>
      </trkpt>
      <trkpt lat="49.45569" lon="1.19553">
        <ele>157</ele>
        <time>2017-08-01T14:22:48Z</time>
      </trkpt>
      <trkpt lat="49.45568" lon="1.19551">
        <ele>157</ele>
        <time>2017-08-01T14:22:48Z</time>
      </trkpt>
      <trkpt lat="49.45565" lon="1.19544">
        <ele>157</ele>
        <time>2017-08-01T14:22:48Z</time>
      </trkpt>
      <trkpt lat="49.45561" lon="1.19537">
        <ele>156</ele>
        <time>2017-08-01T14:23:04Z</time>
      </trkpt>
      <trkpt lat="49.4556" lon="1.19531">
        <ele>156</ele>
        <time>2017-08-01T14:23:04Z</time>
      </trkpt>
      <trkpt lat="49.45558" lon="1.19522">
        <ele>156</ele>
        <time>2017-08-01T14:23:04Z</time>
      </trkpt>
      <trkpt lat="49.45554" lon="1.19512">
        <ele>156</ele>
        <time>2017-08-01T14:23:04Z</time>
      </trkpt>
      <trkpt lat="49.4555" lon="1.19503">
        <ele>156</ele>
        <time>2017-08-01T14:23:20Z</time>
      </trkpt>
      <trkpt lat="49.45547" lon="1.19496">
        <ele>156</ele>
        <time>2017-08-01T14:23:20Z</time>
      </trkpt>
      <trkpt lat="49.45548" lon="1.19493">
        <ele>156</ele>
        <time>2017-08-01T14:23:20Z</time>
      </trkpt>
      <trkpt lat="49.45546" lon="1.19488">
        <ele>156</ele>
        <time>2017-08-01T14:23:20Z</time>
      </trkpt>
      <trkpt lat="49.45546" lon="1.19479">
        <ele>156</ele>
        <time>2017-08-01T14:23:36Z</time>
      </trkpt>
      <trkpt lat="49.45542" lon="1.1947">
        <ele>156</ele>
        <time>2017-08-01T14:23:36Z</time>
      </trkpt>
      <trkpt lat="49.45538" lon="1.19461">
        <ele>155</ele>
        <time>2017-08-01T14:23:36Z</time>
      </trkpt>
      <trkpt lat="49.45538" lon="1.19457">
        <ele>157</ele>
        <time>2017-08-01T14:23:36Z</time>
      </trkpt>
      <trkpt lat="49.4553" lon="1.1943">
        <ele>157</ele>
        <time>2017-08-01T14:24:08Z</time>
      </trkpt>
      <trkpt lat="49.45529" lon="1.19426">
        <ele>157</ele>
        <time>2017-08-01T14:24:08Z</time>
      </trkpt>
      <trkpt lat="49.45529" lon="1.19423">
        <ele>157</ele>
        <time>2017-08-01T14:24:08Z</time>
      </trkpt>
      <trkpt lat="49.45526" lon="1.19419">
        <ele>157</ele>
        <time>2017-08-01T14:24:08Z</time>
      </trkpt>
      <trkpt lat="49.45525" lon="1.19413">
        <ele>157</ele>
        <time>2017-08-01T14:24:08Z</time>
      </trkpt>
      <trkpt lat="49.45526" lon="1.19403">
        <ele>157</ele>
        <time>2017-08-01T14:24:44Z</time>
      </trkpt>
      <trkpt lat="49.4552" lon="1.19395">
        <ele>157</ele>
        <time>2017-08-01T14:24:44Z</time>
      </trkpt>
      <trkpt lat="49.4552" lon="1.1939">
        <ele>157</ele>
        <time>2017-08-01T14:24:44Z</time>
      </trkpt>
      <trkpt lat="49.45518" lon="1.19382">
        <ele>157</ele>
        <time>2017-08-01T14:24:44Z</time>
      </trkpt>
      <trkpt lat="49.45515" lon="1.1938">
        <ele>157</ele>
        <time>2017-08-01T14:24:44Z</time>
      </trkpt>
      <trkpt lat="49.45515" lon="1.19378">
        <ele>157</ele>
        <time>2017-08-01T14:25:04Z</time>
      </trkpt>
      <trkpt lat="49.45512" lon="1.19376">
        <ele>157</ele>
        <time>2017-08-01T14:25:04Z</time>
      </trkpt>
      <trkpt lat="49.45512" lon="1.19376">
        <ele>157</ele>
        <time>2017-08-01T14:25:04Z</time>
      </trkpt>
      <trkpt lat="49.45512" lon="1.19376">
        <ele>157</ele>
        <time>2017-08-01T14:25:04Z</time>
      </trkpt>
      <trkpt lat="49.45507" lon="1.19369">
        <ele>158</ele>
        <time>2017-08-01T14:25:04Z</time>
      </trkpt>
      <trkpt lat="49.45504" lon="1.19355">
        <ele>158</ele>
        <time>2017-08-01T14:25:20Z</time>
      </trkpt>
      <trkpt lat="49.45498" lon="1.19344">
        <ele>158</ele>
        <time>2017-08-01T14:25:20Z</time>
      </trkpt>
      <trkpt lat="49.45496" lon="1.19335">
        <ele>158</ele>
        <time>2017-08-01T14:25:20Z</time>
      </trkpt>
      <trkpt lat="49.45495" lon="1.19328">
        <ele>158</ele>
        <time>2017-08-01T14:25:20Z</time>
      </trkpt>
      <trkpt lat="49.45491" lon="1.19322">
        <ele>158</ele>
        <time>2017-08-01T14:25:40Z</time>
      </trkpt>
      <trkpt lat="49.45488" lon="1.19317">
        <ele>158</ele>
        <time>2017-08-01T14:25:40Z</time>
      </trkpt>
      <trkpt lat="49.45486" lon="1.19312">
        <ele>158</ele>
        <time>2017-08-01T14:25:40Z</time>
      </trkpt>
      <trkpt lat="49.45486" lon="1.19311">
        <ele>158</ele>
        <time>2017-08-01T14:25:40Z</time>
      </trkpt>
      <trkpt lat="49.45484" lon="1.19308">
        <ele>158</ele>
        <time>2017-08-01T14:25:40Z</time>
      </trkpt>
      <trkpt lat="49.45483" lon="1.19307">
        <ele>158</ele>
        <time>2017-08-01T14:26:00Z</time>
      </trkpt>
      <trkpt lat="49.45483" lon="1.19306">
        <ele>158</ele>
        <time>2017-08-01T14:26:00Z</time>
      </trkpt>
      <trkpt lat="49.45483" lon="1.19306">
        <ele>158</ele>
        <time>2017-08-01T14:26:00Z</time>
      </trkpt>
      <trkpt lat="49.45483" lon="1.19305">
        <ele>158</ele>
        <time>2017-08-01T14:26:00Z</time>
      </trkpt>
      <trkpt lat="49.45479" lon="1.19289">
        <ele>158</ele>
        <time>2017-08-01T14:26:00Z</time>
      </trkpt>
      <trkpt lat="49.45476" lon="1.19283">
        <ele>158</ele>
        <time>2017-08-01T14:26:20Z</time>
      </trkpt>
      <trkpt lat="49.45477" lon="1.19277">
        <ele>158</ele>
        <time>2017-08-01T14:26:20Z</time>
      </trkpt>
      <trkpt lat="49.45476" lon="1.19273">
        <ele>158</ele>
        <time>2017-08-01T14:26:20Z</time>
      </trkpt>
      <trkpt lat="49.45475" lon="1.1927">
        <ele>158</ele>
        <time>2017-08-01T14:26:20Z</time>
      </trkpt>
      <trkpt lat="49.45469" lon="1.19263">
        <ele>158</ele>
        <time>2017-08-01T14:26:20Z</time>
      </trkpt>
      <trkpt lat="49.45468" lon="1.19258">
        <ele>158</ele>
        <time>2017-08-01T14:26:36Z</time>
      </trkpt>
      <trkpt lat="49.45464" lon="1.19249">
        <ele>158</ele>
        <time>2017-08-01T14:26:36Z</time>
      </trkpt>
      <trkpt lat="49.4546" lon="1.19237">
        <ele>158</ele>
        <time>2017-08-01T14:26:36Z</time>
      </trkpt>
      <trkpt lat="49.45455" lon="1.19229">
        <ele>152</ele>
        <time>2017-08-01T14:26:36Z</time>
      </trkpt>
      <trkpt lat="49.45452" lon="1.19227">
        <ele>152</ele>
        <time>2017-08-01T14:26:52Z</time>
      </trkpt>
      <trkpt lat="49.45449" lon="1.19221">
        <ele>152</ele>
        <time>2017-08-01T14:26:52Z</time>
      </trkpt>
      <trkpt lat="49.45444" lon="1.19211">
        <ele>152</ele>
        <time>2017-08-01T14:26:52Z</time>
      </trkpt>
      <trkpt lat="49.4544" lon="1.19203">
        <ele>153</ele>
        <time>2017-08-01T14:26:52Z</time>
      </trkpt>
      <trkpt lat="49.45436" lon="1.19201">
        <ele>153</ele>
        <time>2017-08-01T14:27:08Z</time>
      </trkpt>
      <trkpt lat="49.45437" lon="1.19198">
        <ele>153</ele>
        <time>2017-08-01T14:27:08Z</time>
      </trkpt>
      <trkpt lat="49.45431" lon="1.19187">
        <ele>153</ele>
        <time>2017-08-01T14:27:08Z</time>
      </trkpt>
      <trkpt lat="49.45429" lon="1.19181">
        <ele>153</ele>
        <time>2017-08-01T14:27:08Z</time>
      </trkpt>
      <trkpt lat="49.45431" lon="1.19175">
        <ele>153</ele>
        <time>2017-08-01T14:27:24Z</time>
      </trkpt>
      <trkpt lat="49.4543" lon="1.19173">
        <ele>153</ele>
        <time>2017-08-01T14:27:24Z</time>
      </trkpt>
      <trkpt lat="49.45429" lon="1.19166">
        <ele>153</ele>
        <time>2017-08-01T14:27:24Z</time>
      </trkpt>
      <trkpt lat="49.45425" lon="1.19157">
        <ele>153</ele>
        <time>2017-08-01T14:27:24Z</time>
      </trkpt>
      <trkpt lat="49.45423" lon="1.19151">
        <ele>153</ele>
        <time>2017-08-01T14:27:40Z</time>
      </trkpt>
      <trkpt lat="49.45423" lon="1.19145">
        <ele>153</ele>
        <time>2017-08-01T14:27:40Z</time>
      </trkpt>
      <trkpt lat="49.45419" lon="1.19135">
        <ele>153</ele>
        <time>2017-08-01T14:27:40Z</time>
      </trkpt>
      <trkpt lat="49.45418" lon="1.1913">
        <ele>153</ele>
        <time>2017-08-01T14:27:40Z</time>
      </trkpt>
      <trkpt lat="49.45416" lon="1.1912">
        <ele>154</ele>
        <time>2017-08-01T14:27:56Z</time>
      </trkpt>
      <trkpt lat="49.45411" lon="1.19111">
        <ele>154</ele>
        <time>2017-08-01T14:27:56Z</time>
      </trkpt>
      <trkpt lat="49.45409" lon="1.19104">
        <ele>154</ele>
        <time>2017-08-01T14:27:56Z</time>
      </trkpt>
      <trkpt lat="49.45407" lon="1.191">
        <ele>154</ele>
        <time>2017-08-01T14:27:56Z</time>
      </trkpt>
      <trkpt lat="49.45406" lon="1.19098">
        <ele>154</ele>
        <time>2017-08-01T14:28:16Z</time>
      </trkpt>
      <trkpt lat="49.45405" lon="1.19096">
        <ele>154</ele>
        <time>2017-08-01T14:28:16Z</time>
      </trkpt>
      <trkpt lat="49.45405" lon="1.19095">
        <ele>154</ele>
        <time>2017-08-01T14:28:16Z</time>
      </trkpt>
      <trkpt lat="49.45405" lon="1.19095">
        <ele>154</ele>
        <time>2017-08-01T14:28:16Z</time>
      </trkpt>
      <trkpt lat="49.45403" lon="1.19084">
        <ele>154</ele>
        <time>2017-08-01T14:28:16Z</time>
      </trkpt>
      <trkpt lat="49.45394" lon="1.19065">
        <ele>154</ele>
        <time>2017-08-01T14:28:32Z</time>
      </trkpt>
      <trkpt lat="49.45391" lon="1.19055">
        <ele>154</ele>
        <time>2017-08-01T14:28:32Z</time>
      </trkpt>
      <trkpt lat="49.45388" lon="1.1905">
        <ele>154</ele>
        <time>2017-08-01T14:28:32Z</time>
      </trkpt>
      <trkpt lat="49.45383" lon="1.19043">
        <ele>154</ele>
        <time>2017-08-01T14:28:32Z</time>
      </trkpt>
      <trkpt lat="49.45378" lon="1.19034">
        <ele>151</ele>
        <time>2017-08-01T14:28:48Z</time>
      </trkpt>
      <trkpt lat="49.45374" lon="1.19028">
        <ele>144</ele>
        <time>2017-08-01T14:28:48Z</time>
      </trkpt>
      <trkpt lat="49.45371" lon="1.19023">
        <ele>144</ele>
        <time>2017-08-01T14:28:48Z</time>
      </trkpt>
      <trkpt lat="49.45369" lon="1.19018">
        <ele>144</ele>
        <time>2017-08-01T14:28:48Z</time>
      </trkpt>
      <trkpt lat="49.45366" lon="1.19014">
        <ele>144</ele>
        <time>2017-08-01T14:29:04Z</time>
      </trkpt>
      <trkpt lat="49.45364" lon="1.19007">
        <ele>144</ele>
        <time>2017-08-01T14:29:04Z</time>
      </trkpt>
      <trkpt lat="49.45363" lon="1.18999">
        <ele>144</ele>
        <time>2017-08-01T14:29:04Z</time>
      </trkpt>
      <trkpt lat="49.4536" lon="1.18995">
        <ele>144</ele>
        <time>2017-08-01T14:29:04Z</time>
      </trkpt>
      <trkpt lat="49.45357" lon="1.18987">
        <ele>144</ele>
        <time>2017-08-01T14:29:20Z</time>
      </trkpt>
      <trkpt lat="49.45353" lon="1.18981">
        <ele>144</ele>
        <time>2017-08-01T14:29:20Z</time>
      </trkpt>
      <trkpt lat="49.45351" lon="1.18978">
        <ele>144</ele>
        <time>2017-08-01T14:29:20Z</time>
      </trkpt>
      <trkpt lat="49.45349" lon="1.18972">
        <ele>144</ele>
        <time>2017-08-01T14:29:20Z</time>
      </trkpt>
      <trkpt lat="49.45347" lon="1.18968">
        <ele>144</ele>
        <time>2017-08-01T14:29:36Z</time>
      </trkpt>
      <trkpt lat="49.45343" lon="1.18961">
        <ele>144</ele>
        <time>2017-08-01T14:29:36Z</time>
      </trkpt>
      <trkpt lat="49.45341" lon="1.18952">
        <ele>144</ele>
        <time>2017-08-01T14:29:36Z</time>
      </trkpt>
      <trkpt lat="49.45339" lon="1.18949">
        <ele>144</ele>
        <time>2017-08-01T14:29:36Z</time>
      </trkpt>
      <trkpt lat="49.45339" lon="1.18938">
        <ele>144</ele>
        <time>2017-08-01T14:29:52Z</time>
      </trkpt>
      <trkpt lat="49.45337" lon="1.18936">
        <ele>144</ele>
        <time>2017-08-01T14:29:52Z</time>
      </trkpt>
      <trkpt lat="49.45335" lon="1.1893">
        <ele>144</ele>
        <time>2017-08-01T14:29:52Z</time>
      </trkpt>
      <trkpt lat="49.45332" lon="1.18924">
        <ele>144</ele>
        <time>2017-08-01T14:29:52Z</time>
      </trkpt>
      <trkpt lat="49.45332" lon="1.18916">
        <ele>144</ele>
        <time>2017-08-01T14:30:08Z</time>
      </trkpt>
      <trkpt lat="49.4533" lon="1.18909">
        <ele>144</ele>
        <time>2017-08-01T14:30:08Z</time>
      </trkpt>
      <trkpt lat="49.4533" lon="1.18903">
        <ele>144</ele>
        <time>2017-08-01T14:30:08Z</time>
      </trkpt>
      <trkpt lat="49.4533" lon="1.18896">
        <ele>144</ele>
        <time>2017-08-01T14:30:08Z</time>
      </trkpt>
      <trkpt lat="49.45325" lon="1.1889">
        <ele>144</ele>
        <time>2017-08-01T14:30:24Z</time>
      </trkpt>
      <trkpt lat="49.45324" lon="1.1888">
        <ele>144</ele>
        <time>2017-08-01T14:30:24Z</time>
      </trkpt>
      <trkpt lat="49.45321" lon="1.18873">
        <ele>144</ele>
        <time>2017-08-01T14:30:24Z</time>
      </trkpt>
      <trkpt lat="49.45318" lon="1.18865">
        <ele>144</ele>
        <time>2017-08-01T14:30:24Z</time>
      </trkpt>
      <trkpt lat="49.45316" lon="1.18856">
        <ele>144</ele>
        <time>2017-08-01T14:30:40Z</time>
      </trkpt>
      <trkpt lat="49.45314" lon="1.18848">
        <ele>144</ele>
        <time>2017-08-01T14:30:40Z</time>
      </trkpt>
      <trkpt lat="49.45311" lon="1.18842">
        <ele>144</ele>
        <time>2017-08-01T14:30:40Z</time>
      </trkpt>
      <trkpt lat="49.4531" lon="1.18839">
        <ele>144</ele>
        <time>2017-08-01T14:30:40Z</time>
      </trkpt>
      <trkpt lat="49.45308" lon="1.18832">
        <ele>144</ele>
        <time>2017-08-01T14:30:56Z</time>
      </trkpt>
      <trkpt lat="49.45307" lon="1.18826">
        <ele>144</ele>
        <time>2017-08-01T14:30:56Z</time>
      </trkpt>
      <trkpt lat="49.45305" lon="1.18819">
        <ele>144</ele>
        <time>2017-08-01T14:30:56Z</time>
      </trkpt>
      <trkpt lat="49.45301" lon="1.18813">
        <ele>144</ele>
        <time>2017-08-01T14:30:56Z</time>
      </trkpt>
      <trkpt lat="49.45298" lon="1.18806">
        <ele>144</ele>
        <time>2017-08-01T14:31:12Z</time>
      </trkpt>
      <trkpt lat="49.45295" lon="1.18801">
        <ele>144</ele>
        <time>2017-08-01T14:31:12Z</time>
      </trkpt>
      <trkpt lat="49.45291" lon="1.18795">
        <ele>138</ele>
        <time>2017-08-01T14:31:12Z</time>
      </trkpt>
      <trkpt lat="49.45292" lon="1.18791">
        <ele>141</ele>
        <time>2017-08-01T14:31:12Z</time>
      </trkpt>
      <trkpt lat="49.45291" lon="1.18785">
        <ele>143</ele>
        <time>2017-08-01T14:31:28Z</time>
      </trkpt>
      <trkpt lat="49.4529" lon="1.18783">
        <ele>143</ele>
        <time>2017-08-01T14:31:28Z</time>
      </trkpt>
      <trkpt lat="49.45287" lon="1.18778">
        <ele>143</ele>
        <time>2017-08-01T14:31:28Z</time>
      </trkpt>
      <trkpt lat="49.45284" lon="1.18773">
        <ele>143</ele>
        <time>2017-08-01T14:31:28Z</time>
      </trkpt>
      <trkpt lat="49.45282" lon="1.18766">
        <ele>143</ele>
        <time>2017-08-01T14:31:44Z</time>
      </trkpt>
      <trkpt lat="49.4528" lon="1.18761">
        <ele>143</ele>
        <time>2017-08-01T14:31:44Z</time>
      </trkpt>
      <trkpt lat="49.45277" lon="1.18758">
        <ele>143</ele>
        <time>2017-08-01T14:31:44Z</time>
      </trkpt>
      <trkpt lat="49.45275" lon="1.18755">
        <ele>143</ele>
        <time>2017-08-01T14:31:44Z</time>
      </trkpt>
      <trkpt lat="49.4527" lon="1.18746">
        <ele>143</ele>
        <time>2017-08-01T14:32:00Z</time>
      </trkpt>
      <trkpt lat="49.45266" lon="1.18739">
        <ele>143</ele>
        <time>2017-08-01T14:32:00Z</time>
      </trkpt>
      <trkpt lat="49.45266" lon="1.18736">
        <ele>143</ele>
        <time>2017-08-01T14:32:00Z</time>
      </trkpt>
      <trkpt lat="49.45264" lon="1.18731">
        <ele>143</ele>
        <time>2017-08-01T14:32:00Z</time>
      </trkpt>
      <trkpt lat="49.45265" lon="1.18727">
        <ele>143</ele>
        <time>2017-08-01T14:32:44Z</time>
      </trkpt>
      <trkpt lat="49.45265" lon="1.18727">
        <ele>143</ele>
        <time>2017-08-01T14:32:44Z</time>
      </trkpt>
      <trkpt lat="49.45265" lon="1.18727">
        <ele>143</ele>
        <time>2017-08-01T14:32:44Z</time>
      </trkpt>
      <trkpt lat="49.45265" lon="1.18727">
        <ele>143</ele>
        <time>2017-08-01T14:32:44Z</time>
      </trkpt>
      <trkpt lat="49.45261" lon="1.18716">
        <ele>143</ele>
        <time>2017-08-01T14:32:44Z</time>
      </trkpt>
      <trkpt lat="49.45259" lon="1.18705">
        <ele>142</ele>
        <time>2017-08-01T14:33:00Z</time>
      </trkpt>
      <trkpt lat="49.45256" lon="1.18693">
        <ele>142</ele>
        <time>2017-08-01T14:33:00Z</time>
      </trkpt>
      <trkpt lat="49.45253" lon="1.18683">
        <ele>142</ele>
        <time>2017-08-01T14:33:00Z</time>
      </trkpt>
      <trkpt lat="49.45253" lon="1.18673">
        <ele>142</ele>
        <time>2017-08-01T14:33:00Z</time>
      </trkpt>
      <trkpt lat="49.45252" lon="1.18665">
        <ele>142</ele>
        <time>2017-08-01T14:33:16Z</time>
      </trkpt>
      <trkpt lat="49.45251" lon="1.18657">
        <ele>142</ele>
        <time>2017-08-01T14:33:16Z</time>
      </trkpt>
      <trkpt lat="49.45249" lon="1.18649">
        <ele>142</ele>
        <time>2017-08-01T14:33:16Z</time>
      </trkpt>
      <trkpt lat="49.45248" lon="1.18643">
        <ele>142</ele>
        <time>2017-08-01T14:33:16Z</time>
      </trkpt>
      <trkpt lat="49.45247" lon="1.18643">
        <ele>142</ele>
        <time>2017-08-01T14:33:40Z</time>
      </trkpt>
      <trkpt lat="49.45246" lon="1.18641">
        <ele>142</ele>
        <time>2017-08-01T14:33:40Z</time>
      </trkpt>
      <trkpt lat="49.45246" lon="1.1864">
        <ele>142</ele>
        <time>2017-08-01T14:33:40Z</time>
      </trkpt>
      <trkpt lat="49.45245" lon="1.1864">
        <ele>142</ele>
        <time>2017-08-01T14:33:40Z</time>
      </trkpt>
      <trkpt lat="49.45243" lon="1.18626">
        <ele>142</ele>
        <time>2017-08-01T14:33:40Z</time>
      </trkpt>
      <trkpt lat="49.45242" lon="1.1862">
        <ele>140</ele>
        <time>2017-08-01T14:33:56Z</time>
      </trkpt>
      <trkpt lat="49.45239" lon="1.1861">
        <ele>140</ele>
        <time>2017-08-01T14:33:56Z</time>
      </trkpt>
      <trkpt lat="49.4524" lon="1.18604">
        <ele>140</ele>
        <time>2017-08-01T14:33:56Z</time>
      </trkpt>
      <trkpt lat="49.45238" lon="1.18599">
        <ele>140</ele>
        <time>2017-08-01T14:33:56Z</time>
      </trkpt>
      <trkpt lat="49.45236" lon="1.18592">
        <ele>140</ele>
        <time>2017-08-01T14:34:12Z</time>
      </trkpt>
      <trkpt lat="49.45237" lon="1.18585">
        <ele>140</ele>
        <time>2017-08-01T14:34:12Z</time>
      </trkpt>
      <trkpt lat="49.45235" lon="1.18579">
        <ele>140</ele>
        <time>2017-08-01T14:34:12Z</time>
      </trkpt>
      <trkpt lat="49.45235" lon="1.18572">
        <ele>140</ele>
        <time>2017-08-01T14:34:12Z</time>
      </trkpt>
      <trkpt lat="49.45236" lon="1.18565">
        <ele>140</ele>
        <time>2017-08-01T14:34:28Z</time>
      </trkpt>
      <trkpt lat="49.45238" lon="1.18557">
        <ele>140</ele>
        <time>2017-08-01T14:34:28Z</time>
      </trkpt>
      <trkpt lat="49.45236" lon="1.18552">
        <ele>140</ele>
        <time>2017-08-01T14:34:28Z</time>
      </trkpt>
      <trkpt lat="49.45236" lon="1.18542">
        <ele>140</ele>
        <time>2017-08-01T14:34:28Z</time>
      </trkpt>
      <trkpt lat="49.45235" lon="1.18536">
        <ele>137</ele>
        <time>2017-08-01T14:34:44Z</time>
      </trkpt>
      <trkpt lat="49.45235" lon="1.18529">
        <ele>137</ele>
        <time>2017-08-01T14:34:44Z</time>
      </trkpt>
      <trkpt lat="49.45233" lon="1.18519">
        <ele>137</ele>
        <time>2017-08-01T14:34:44Z</time>
      </trkpt>
      <trkpt lat="49.45236" lon="1.18512">
        <ele>137</ele>
        <time>2017-08-01T14:34:44Z</time>
      </trkpt>
      <trkpt lat="49.45233" lon="1.18504">
        <ele>137</ele>
        <time>2017-08-01T14:35:00Z</time>
      </trkpt>
      <trkpt lat="49.4523" lon="1.18495">
        <ele>137</ele>
        <time>2017-08-01T14:35:00Z</time>
      </trkpt>
      <trkpt lat="49.4523" lon="1.18489">
        <ele>137</ele>
        <time>2017-08-01T14:35:00Z</time>
      </trkpt>
      <trkpt lat="49.45228" lon="1.18483">
        <ele>137</ele>
        <time>2017-08-01T14:35:00Z</time>
      </trkpt>
      <trkpt lat="49.45225" lon="1.18474">
        <ele>137</ele>
        <time>2017-08-01T14:35:32Z</time>
      </trkpt>
      <trkpt lat="49.45225" lon="1.18473">
        <ele>137</ele>
        <time>2017-08-01T14:35:32Z</time>
      </trkpt>
      <trkpt lat="49.45225" lon="1.18473">
        <ele>137</ele>
        <time>2017-08-01T14:35:32Z</time>
      </trkpt>
      <trkpt lat="49.45225" lon="1.18473">
        <ele>137</ele>
        <time>2017-08-01T14:35:32Z</time>
      </trkpt>
      <trkpt lat="49.45232" lon="1.18461">
        <ele>137</ele>
        <time>2017-08-01T14:35:32Z</time>
      </trkpt>
      <trkpt lat="49.45235" lon="1.18452">
        <ele>136</ele>
        <time>2017-08-01T14:35:48Z</time>
      </trkpt>
      <trkpt lat="49.45234" lon="1.18438">
        <ele>136</ele>
        <time>2017-08-01T14:35:48Z</time>
      </trkpt>
      <trkpt lat="49.45236" lon="1.18425">
        <ele>136</ele>
        <time>2017-08-01T14:35:48Z</time>
      </trkpt>
      <trkpt lat="49.45235" lon="1.18419">
        <ele>136</ele>
        <time>2017-08-01T14:35:48Z</time>
      </trkpt>
      <trkpt lat="49.45235" lon="1.18409">
        <ele>136</ele>
        <time>2017-08-01T14:36:04Z</time>
      </trkpt>
      <trkpt lat="49.45234" lon="1.18403">
        <ele>136</ele>
        <time>2017-08-01T14:36:04Z</time>
      </trkpt>
      <trkpt lat="49.45235" lon="1.18394">
        <ele>136</ele>
        <time>2017-08-01T14:36:04Z</time>
      </trkpt>
      <trkpt lat="49.45234" lon="1.18384">
        <ele>136</ele>
        <time>2017-08-01T14:36:04Z</time>
      </trkpt>
      <trkpt lat="49.45235" lon="1.18375">
        <ele>128</ele>
        <time>2017-08-01T14:36:20Z</time>
      </trkpt>
      <trkpt lat="49.45238" lon="1.18367">
        <ele>128</ele>
        <time>2017-08-01T14:36:20Z</time>
      </trkpt>
      <trkpt lat="49.45235" lon="1.18359">
        <ele>128</ele>
        <time>2017-08-01T14:36:20Z</time>
      </trkpt>
      <trkpt lat="49.45237" lon="1.18352">
        <ele>128</ele>
        <time>2017-08-01T14:36:20Z</time>
      </trkpt>
      <trkpt lat="49.45237" lon="1.18346">
        <ele>128</ele>
        <time>2017-08-01T14:36:36Z</time>
      </trkpt>
      <trkpt lat="49.45245" lon="1.18338">
        <ele>128</ele>
        <time>2017-08-01T14:36:36Z</time>
      </trkpt>
      <trkpt lat="49.45246" lon="1.18333">
        <ele>128</ele>
        <time>2017-08-01T14:36:36Z</time>
      </trkpt>
      <trkpt lat="49.45249" lon="1.18332">
        <ele>128</ele>
        <time>2017-08-01T14:36:36Z</time>
      </trkpt>
      <trkpt lat="49.45249" lon="1.18327">
        <ele>128</ele>
        <time>2017-08-01T14:37:12Z</time>
      </trkpt>
      <trkpt lat="49.45249" lon="1.18327">
        <ele>128</ele>
        <time>2017-08-01T14:37:12Z</time>
      </trkpt>
      <trkpt lat="49.45249" lon="1.18327">
        <ele>128</ele>
        <time>2017-08-01T14:37:12Z</time>
      </trkpt>
      <trkpt lat="49.45249" lon="1.18324">
        <ele>128</ele>
        <time>2017-08-01T14:37:12Z</time>
      </trkpt>
      <trkpt lat="49.45249" lon="1.1831">
        <ele>128</ele>
        <time>2017-08-01T14:37:12Z</time>
      </trkpt>
      <trkpt lat="49.45253" lon="1.18302">
        <ele>128</ele>
        <time>2017-08-01T14:37:28Z</time>
      </trkpt>
      <trkpt lat="49.45252" lon="1.18291">
        <ele>117</ele>
        <time>2017-08-01T14:37:28Z</time>
      </trkpt>
      <trkpt lat="49.45254" lon="1.18282">
        <ele>117</ele>
        <time>2017-08-01T14:37:28Z</time>
      </trkpt>
      <trkpt lat="49.45253" lon="1.18274">
        <ele>117</ele>
        <time>2017-08-01T14:37:28Z</time>
      </trkpt>
      <trkpt lat="49.45253" lon="1.18267">
        <ele>117</ele>
        <time>2017-08-01T14:37:44Z</time>
      </trkpt>
      <trkpt lat="49.45254" lon="1.1826">
        <ele>117</ele>
        <time>2017-08-01T14:37:44Z</time>
      </trkpt>
      <trkpt lat="49.45256" lon="1.18254">
        <ele>117</ele>
        <time>2017-08-01T14:37:44Z</time>
      </trkpt>
      <trkpt lat="49.45258" lon="1.18245">
        <ele>117</ele>
        <time>2017-08-01T14:37:44Z</time>
      </trkpt>
      <trkpt lat="49.45257" lon="1.18237">
        <ele>117</ele>
        <time>2017-08-01T14:38:00Z</time>
      </trkpt>
      <trkpt lat="49.45256" lon="1.18228">
        <ele>117</ele>
        <time>2017-08-01T14:38:00Z</time>
      </trkpt>
      <trkpt lat="49.45255" lon="1.18221">
        <ele>117</ele>
        <time>2017-08-01T14:38:00Z</time>
      </trkpt>
      <trkpt lat="49.45257" lon="1.18214">
        <ele>117</ele>
        <time>2017-08-01T14:38:00Z</time>
      </trkpt>
      <trkpt lat="49.45255" lon="1.18207">
        <ele>102</ele>
        <time>2017-08-01T14:38:16Z</time>
      </trkpt>
      <trkpt lat="49.45253" lon="1.18201">
        <ele>102</ele>
        <time>2017-08-01T14:38:16Z</time>
      </trkpt>
      <trkpt lat="49.45251" lon="1.18193">
        <ele>102</ele>
        <time>2017-08-01T14:38:16Z</time>
      </trkpt>
      <trkpt lat="49.45249" lon="1.18188">
        <ele>102</ele>
        <time>2017-08-01T14:38:16Z</time>
      </trkpt>
      <trkpt lat="49.45246" lon="1.18185">
        <ele>102</ele>
        <time>2017-08-01T14:38:48Z</time>
      </trkpt>
      <trkpt lat="49.45246" lon="1.18186">
        <ele>102</ele>
        <time>2017-08-01T14:38:48Z</time>
      </trkpt>
      <trkpt lat="49.45246" lon="1.18185">
        <ele>102</ele>
        <time>2017-08-01T14:38:48Z</time>
      </trkpt>
      <trkpt lat="49.45242" lon="1.1818">
        <ele>102</ele>
        <time>2017-08-01T14:38:48Z</time>
      </trkpt>
      <trkpt lat="49.45238" lon="1.18166">
        <ele>102</ele>
        <time>2017-08-01T14:38:48Z</time>
      </trkpt>
      <trkpt lat="49.45236" lon="1.18158">
        <ele>102</ele>
        <time>2017-08-01T14:39:04Z</time>
      </trkpt>
      <trkpt lat="49.45234" lon="1.18157">
        <ele>102</ele>
        <time>2017-08-01T14:39:04Z</time>
      </trkpt>
      <trkpt lat="49.45231" lon="1.18155">
        <ele>102</ele>
        <time>2017-08-01T14:39:04Z</time>
      </trkpt>
      <trkpt lat="49.45228" lon="1.18148">
        <ele>102</ele>
        <time>2017-08-01T14:39:04Z</time>
      </trkpt>
      <trkpt lat="49.45228" lon="1.18142">
        <ele>102</ele>
        <time>2017-08-01T14:39:20Z</time>
      </trkpt>
      <trkpt lat="49.45226" lon="1.18139">
        <ele>102</ele>
        <time>2017-08-01T14:39:20Z</time>
      </trkpt>
      <trkpt lat="49.45225" lon="1.18131">
        <ele>102</ele>
        <time>2017-08-01T14:39:20Z</time>
      </trkpt>
      <trkpt lat="49.45222" lon="1.18125">
        <ele>97</ele>
        <time>2017-08-01T14:39:20Z</time>
      </trkpt>
      <trkpt lat="49.45219" lon="1.18125">
        <ele>97</ele>
        <time>2017-08-01T14:39:36Z</time>
      </trkpt>
      <trkpt lat="49.45216" lon="1.18123">
        <ele>97</ele>
        <time>2017-08-01T14:39:36Z</time>
      </trkpt>
      <trkpt lat="49.45212" lon="1.18123">
        <ele>97</ele>
        <time>2017-08-01T14:39:36Z</time>
      </trkpt>
      <trkpt lat="49.45211" lon="1.18118">
        <ele>97</ele>
        <time>2017-08-01T14:39:36Z</time>
      </trkpt>
      <trkpt lat="49.45205" lon="1.18115">
        <ele>94</ele>
        <time>2017-08-01T14:39:56Z</time>
      </trkpt>
      <trkpt lat="49.45201" lon="1.18113">
        <ele>94</ele>
        <time>2017-08-01T14:39:56Z</time>
      </trkpt>
      <trkpt lat="49.452" lon="1.18111">
        <ele>94</ele>
        <time>2017-08-01T14:39:56Z</time>
      </trkpt>
      <trkpt lat="49.45199" lon="1.18108">
        <ele>94</ele>
        <time>2017-08-01T14:39:56Z</time>
      </trkpt>
      <trkpt lat="49.45197" lon="1.18102">
        <ele>94</ele>
        <time>2017-08-01T14:39:56Z</time>
      </trkpt>
      <trkpt lat="49.45195" lon="1.18101">
        <ele>94</ele>
        <time>2017-08-01T14:41:56Z</time>
      </trkpt>
      <trkpt lat="49.45195" lon="1.18101">
        <ele>94</ele>
        <time>2017-08-01T14:41:56Z</time>
      </trkpt>
      <trkpt lat="49.45195" lon="1.18101">
        <ele>94</ele>
        <time>2017-08-01T14:41:57Z</time>
      </trkpt>
      <trkpt lat="49.45189" lon="1.18096">
        <ele>94</ele>
        <time>2017-08-01T14:41:57Z</time>
      </trkpt>
      <trkpt lat="49.45182" lon="1.1809">
        <ele>94</ele>
        <time>2017-08-01T14:41:58Z</time>
      </trkpt>
      <trkpt lat="49.45178" lon="1.18082">
        <ele>94</ele>
        <time>2017-08-01T14:42:12Z</time>
      </trkpt>
      <trkpt lat="49.45175" lon="1.18075">
        <ele>94</ele>
        <time>2017-08-01T14:42:12Z</time>
      </trkpt>
      <trkpt lat="49.45171" lon="1.18067">
        <ele>94</ele>
        <time>2017-08-01T14:42:12Z</time>
      </trkpt>
      <trkpt lat="49.45171" lon="1.18059">
        <ele>94</ele>
        <time>2017-08-01T14:42:12Z</time>
      </trkpt>
      <trkpt lat="49.45169" lon="1.18051">
        <ele>94</ele>
        <time>2017-08-01T14:42:28Z</time>
      </trkpt>
      <trkpt lat="49.45163" lon="1.18042">
        <ele>93</ele>
        <time>2017-08-01T14:42:28Z</time>
      </trkpt>
      <trkpt lat="49.45163" lon="1.18034">
        <ele>93</ele>
        <time>2017-08-01T14:42:28Z</time>
      </trkpt>
      <trkpt lat="49.4516" lon="1.18024">
        <ele>93</ele>
        <time>2017-08-01T14:42:28Z</time>
      </trkpt>
      <trkpt lat="49.45158" lon="1.18017">
        <ele>93</ele>
        <time>2017-08-01T14:42:44Z</time>
      </trkpt>
      <trkpt lat="49.45161" lon="1.18017">
        <ele>93</ele>
        <time>2017-08-01T14:42:44Z</time>
      </trkpt>
      <trkpt lat="49.45157" lon="1.18009">
        <ele>93</ele>
        <time>2017-08-01T14:42:44Z</time>
      </trkpt>
      <trkpt lat="49.45151" lon="1.18001">
        <ele>93</ele>
        <time>2017-08-01T14:42:44Z</time>
      </trkpt>
      <trkpt lat="49.45144" lon="1.17993">
        <ele>93</ele>
        <time>2017-08-01T14:43:00Z</time>
      </trkpt>
      <trkpt lat="49.45145" lon="1.17981">
        <ele>93</ele>
        <time>2017-08-01T14:43:00Z</time>
      </trkpt>
      <trkpt lat="49.45142" lon="1.17975">
        <ele>93</ele>
        <time>2017-08-01T14:43:00Z</time>
      </trkpt>
      <trkpt lat="49.45141" lon="1.17972">
        <ele>93</ele>
        <time>2017-08-01T14:43:00Z</time>
      </trkpt>
      <trkpt lat="49.4514" lon="1.17969">
        <ele>93</ele>
        <time>2017-08-01T14:43:20Z</time>
      </trkpt>
      <trkpt lat="49.45139" lon="1.17966">
        <ele>93</ele>
        <time>2017-08-01T14:43:20Z</time>
      </trkpt>
      <trkpt lat="49.45139" lon="1.17966">
        <ele>93</ele>
        <time>2017-08-01T14:43:20Z</time>
      </trkpt>
      <trkpt lat="49.4514" lon="1.17965">
        <ele>93</ele>
        <time>2017-08-01T14:43:20Z</time>
      </trkpt>
      <trkpt lat="49.45141" lon="1.17949">
        <ele>93</ele>
        <time>2017-08-01T14:43:20Z</time>
      </trkpt>
      <trkpt lat="49.45141" lon="1.17936">
        <ele>93</ele>
        <time>2017-08-01T14:43:36Z</time>
      </trkpt>
      <trkpt lat="49.45142" lon="1.17928">
        <ele>93</ele>
        <time>2017-08-01T14:43:36Z</time>
      </trkpt>
      <trkpt lat="49.45141" lon="1.17918">
        <ele>93</ele>
        <time>2017-08-01T14:43:36Z</time>
      </trkpt>
      <trkpt lat="49.45134" lon="1.179">
        <ele>93</ele>
        <time>2017-08-01T14:43:36Z</time>
      </trkpt>
      <trkpt lat="49.45134" lon="1.17891">
        <ele>93</ele>
        <time>2017-08-01T14:43:52Z</time>
      </trkpt>
      <trkpt lat="49.45134" lon="1.17888">
        <ele>93</ele>
        <time>2017-08-01T14:43:52Z</time>
      </trkpt>
      <trkpt lat="49.45134" lon="1.1788">
        <ele>93</ele>
        <time>2017-08-01T14:43:52Z</time>
      </trkpt>
      <trkpt lat="49.45135" lon="1.17875">
        <ele>94</ele>
        <time>2017-08-01T14:43:52Z</time>
      </trkpt>
      <trkpt lat="49.45137" lon="1.17871">
        <ele>94</ele>
        <time>2017-08-01T14:44:08Z</time>
      </trkpt>
      <trkpt lat="49.45139" lon="1.17867">
        <ele>94</ele>
        <time>2017-08-01T14:44:08Z</time>
      </trkpt>
      <trkpt lat="49.45139" lon="1.17859">
        <ele>94</ele>
        <time>2017-08-01T14:44:08Z</time>
      </trkpt>
      <trkpt lat="49.45139" lon="1.17853">
        <ele>94</ele>
        <time>2017-08-01T14:44:08Z</time>
      </trkpt>
      <trkpt lat="49.45137" lon="1.17843">
        <ele>94</ele>
        <time>2017-08-01T14:44:24Z</time>
      </trkpt>
      <trkpt lat="49.45138" lon="1.17835">
        <ele>94</ele>
        <time>2017-08-01T14:44:24Z</time>
      </trkpt>
      <trkpt lat="49.4514" lon="1.17829">
        <ele>94</ele>
        <time>2017-08-01T14:44:24Z</time>
      </trkpt>
      <trkpt lat="49.45139" lon="1.17825">
        <ele>94</ele>
        <time>2017-08-01T14:44:24Z</time>
      </trkpt>
      <trkpt lat="49.4514" lon="1.17819">
        <ele>94</ele>
        <time>2017-08-01T14:44:40Z</time>
      </trkpt>
      <trkpt lat="49.45141" lon="1.1781">
        <ele>94</ele>
        <time>2017-08-01T14:44:40Z</time>
      </trkpt>
      <trkpt lat="49.45141" lon="1.17808">
        <ele>94</ele>
        <time>2017-08-01T14:44:40Z</time>
      </trkpt>
      <trkpt lat="49.45144" lon="1.17804">
        <ele>94</ele>
        <time>2017-08-01T14:44:40Z</time>
      </trkpt>
      <trkpt lat="49.45142" lon="1.17797">
        <ele>94</ele>
        <time>2017-08-01T14:44:56Z</time>
      </trkpt>
      <trkpt lat="49.45141" lon="1.17794">
        <ele>94</ele>
        <time>2017-08-01T14:44:56Z</time>
      </trkpt>
      <trkpt lat="49.45143" lon="1.17782">
        <ele>91</ele>
        <time>2017-08-01T14:44:56Z</time>
      </trkpt>
      <trkpt lat="49.45144" lon="1.17777">
        <ele>91</ele>
        <time>2017-08-01T14:44:56Z</time>
      </trkpt>
      <trkpt lat="49.45144" lon="1.17771">
        <ele>91</ele>
        <time>2017-08-01T14:45:12Z</time>
      </trkpt>
      <trkpt lat="49.4514" lon="1.1776">
        <ele>91</ele>
        <time>2017-08-01T14:45:12Z</time>
      </trkpt>
      <trkpt lat="49.45138" lon="1.17754">
        <ele>91</ele>
        <time>2017-08-01T14:45:12Z</time>
      </trkpt>
      <trkpt lat="49.45141" lon="1.17746">
        <ele>91</ele>
        <time>2017-08-01T14:45:12Z</time>
      </trkpt>
      <trkpt lat="49.4514" lon="1.17739">
        <ele>91</ele>
        <time>2017-08-01T14:45:28Z</time>
      </trkpt>
      <trkpt lat="49.45139" lon="1.17728">
        <ele>91</ele>
        <time>2017-08-01T14:45:28Z</time>
      </trkpt>
      <trkpt lat="49.45138" lon="1.17722">
        <ele>91</ele>
        <time>2017-08-01T14:45:28Z</time>
      </trkpt>
      <trkpt lat="49.4514" lon="1.17717">
        <ele>91</ele>
        <time>2017-08-01T14:45:28Z</time>
      </trkpt>
      <trkpt lat="49.45143" lon="1.17712">
        <ele>91</ele>
        <time>2017-08-01T14:45:44Z</time>
      </trkpt>
      <trkpt lat="49.45143" lon="1.17705">
        <ele>90</ele>
        <time>2017-08-01T14:45:44Z</time>
      </trkpt>
      <trkpt lat="49.45143" lon="1.17696">
        <ele>90</ele>
        <time>2017-08-01T14:45:44Z</time>
      </trkpt>
      <trkpt lat="49.45144" lon="1.17689">
        <ele>90</ele>
        <time>2017-08-01T14:45:44Z</time>
      </trkpt>
      <trkpt lat="49.45141" lon="1.17681">
        <ele>90</ele>
        <time>2017-08-01T14:46:00Z</time>
      </trkpt>
      <trkpt lat="49.45141" lon="1.17675">
        <ele>90</ele>
        <time>2017-08-01T14:46:00Z</time>
      </trkpt>
      <trkpt lat="49.45142" lon="1.17669">
        <ele>90</ele>
        <time>2017-08-01T14:46:00Z</time>
      </trkpt>
      <trkpt lat="49.45145" lon="1.17662">
        <ele>90</ele>
        <time>2017-08-01T14:46:00Z</time>
      </trkpt>
      <trkpt lat="49.45147" lon="1.17658">
        <ele>90</ele>
        <time>2017-08-01T14:46:16Z</time>
      </trkpt>
      <trkpt lat="49.45144" lon="1.17648">
        <ele>90</ele>
        <time>2017-08-01T14:46:16Z</time>
      </trkpt>
      <trkpt lat="49.45146" lon="1.17639">
        <ele>90</ele>
        <time>2017-08-01T14:46:16Z</time>
      </trkpt>
      <trkpt lat="49.45146" lon="1.17631">
        <ele>90</ele>
        <time>2017-08-01T14:46:16Z</time>
      </trkpt>
      <trkpt lat="49.4515" lon="1.17624">
        <ele>89</ele>
        <time>2017-08-01T14:46:32Z</time>
      </trkpt>
      <trkpt lat="49.45151" lon="1.17619">
        <ele>89</ele>
        <time>2017-08-01T14:46:32Z</time>
      </trkpt>
      <trkpt lat="49.45151" lon="1.17615">
        <ele>89</ele>
        <time>2017-08-01T14:46:32Z</time>
      </trkpt>
      <trkpt lat="49.45152" lon="1.17608">
        <ele>89</ele>
        <time>2017-08-01T14:46:32Z</time>
      </trkpt>
      <trkpt lat="49.45152" lon="1.17605">
        <ele>89</ele>
        <time>2017-08-01T14:46:48Z</time>
      </trkpt>
      <trkpt lat="49.45152" lon="1.17595">
        <ele>89</ele>
        <time>2017-08-01T14:46:48Z</time>
      </trkpt>
      <trkpt lat="49.4515" lon="1.17585">
        <ele>89</ele>
        <time>2017-08-01T14:46:48Z</time>
      </trkpt>
      <trkpt lat="49.45151" lon="1.1758">
        <ele>89</ele>
        <time>2017-08-01T14:46:48Z</time>
      </trkpt>
      <trkpt lat="49.45152" lon="1.17571">
        <ele>89</ele>
        <time>2017-08-01T14:47:04Z</time>
      </trkpt>
      <trkpt lat="49.45154" lon="1.17562">
        <ele>89</ele>
        <time>2017-08-01T14:47:04Z</time>
      </trkpt>
      <trkpt lat="49.45159" lon="1.17556">
        <ele>89</ele>
        <time>2017-08-01T14:47:04Z</time>
      </trkpt>
      <trkpt lat="49.45161" lon="1.17549">
        <ele>89</ele>
        <time>2017-08-01T14:47:04Z</time>
      </trkpt>
      <trkpt lat="49.45162" lon="1.17541">
        <ele>85</ele>
        <time>2017-08-01T14:47:28Z</time>
      </trkpt>
      <trkpt lat="49.45163" lon="1.1754">
        <ele>85</ele>
        <time>2017-08-01T14:47:28Z</time>
      </trkpt>
      <trkpt lat="49.45164" lon="1.1754">
        <ele>85</ele>
        <time>2017-08-01T14:47:28Z</time>
      </trkpt>
      <trkpt lat="49.45164" lon="1.17534">
        <ele>85</ele>
        <time>2017-08-01T14:47:28Z</time>
      </trkpt>
      <trkpt lat="49.45166" lon="1.17526">
        <ele>85</ele>
        <time>2017-08-01T14:47:28Z</time>
      </trkpt>
      <trkpt lat="49.45166" lon="1.17515">
        <ele>85</ele>
        <time>2017-08-01T14:47:44Z</time>
      </trkpt>
      <trkpt lat="49.45164" lon="1.17504">
        <ele>85</ele>
        <time>2017-08-01T14:47:44Z</time>
      </trkpt>
      <trkpt lat="49.45165" lon="1.17498">
        <ele>85</ele>
        <time>2017-08-01T14:47:44Z</time>
      </trkpt>
      <trkpt lat="49.45169" lon="1.17493">
        <ele>85</ele>
        <time>2017-08-01T14:47:44Z</time>
      </trkpt>
      <trkpt lat="49.45165" lon="1.17485">
        <ele>85</ele>
        <time>2017-08-01T14:48:00Z</time>
      </trkpt>
      <trkpt lat="49.45165" lon="1.17479">
        <ele>85</ele>
        <time>2017-08-01T14:48:00Z</time>
      </trkpt>
      <trkpt lat="49.45167" lon="1.17476">
        <ele>85</ele>
        <time>2017-08-01T14:48:00Z</time>
      </trkpt>
      <trkpt lat="49.45168" lon="1.17468">
        <ele>85</ele>
        <time>2017-08-01T14:48:00Z</time>
      </trkpt>
      <trkpt lat="49.45168" lon="1.17463">
        <ele>85</ele>
        <time>2017-08-01T14:48:16Z</time>
      </trkpt>
      <trkpt lat="49.45169" lon="1.17457">
        <ele>79</ele>
        <time>2017-08-01T14:48:16Z</time>
      </trkpt>
      <trkpt lat="49.45167" lon="1.17448">
        <ele>79</ele>
        <time>2017-08-01T14:48:16Z</time>
      </trkpt>
      <trkpt lat="49.45168" lon="1.17439">
        <ele>79</ele>
        <time>2017-08-01T14:48:16Z</time>
      </trkpt>
      <trkpt lat="49.45166" lon="1.17428">
        <ele>79</ele>
        <time>2017-08-01T14:48:48Z</time>
      </trkpt>
      <trkpt lat="49.45166" lon="1.17427">
        <ele>79</ele>
        <time>2017-08-01T14:48:48Z</time>
      </trkpt>
      <trkpt lat="49.45166" lon="1.17427">
        <ele>79</ele>
        <time>2017-08-01T14:48:48Z</time>
      </trkpt>
      <trkpt lat="49.45165" lon="1.17424">
        <ele>79</ele>
        <time>2017-08-01T14:48:48Z</time>
      </trkpt>
      <trkpt lat="49.45164" lon="1.17414">
        <ele>79</ele>
        <time>2017-08-01T14:48:48Z</time>
      </trkpt>
      <trkpt lat="49.4516" lon="1.17406">
        <ele>79</ele>
        <time>2017-08-01T14:49:04Z</time>
      </trkpt>
      <trkpt lat="49.45155" lon="1.17396">
        <ele>79</ele>
        <time>2017-08-01T14:49:04Z</time>
      </trkpt>
      <trkpt lat="49.45148" lon="1.17388">
        <ele>79</ele>
        <time>2017-08-01T14:49:04Z</time>
      </trkpt>
      <trkpt lat="49.45144" lon="1.17382">
        <ele>79</ele>
        <time>2017-08-01T14:49:04Z</time>
      </trkpt>
      <trkpt lat="49.4514" lon="1.17371">
        <ele>79</ele>
        <time>2017-08-01T14:49:20Z</time>
      </trkpt>
      <trkpt lat="49.45136" lon="1.1736">
        <ele>79</ele>
        <time>2017-08-01T14:49:20Z</time>
      </trkpt>
      <trkpt lat="49.45132" lon="1.17355">
        <ele>79</ele>
        <time>2017-08-01T14:49:20Z</time>
      </trkpt>
      <trkpt lat="49.45129" lon="1.17349">
        <ele>79</ele>
        <time>2017-08-01T14:49:21Z</time>
      </trkpt>
      <trkpt lat="49.45124" lon="1.17344">
        <ele>81</ele>
        <time>2017-08-01T14:49:36Z</time>
      </trkpt>
      <trkpt lat="49.45119" lon="1.17331">
        <ele>81</ele>
        <time>2017-08-01T14:49:36Z</time>
      </trkpt>
      <trkpt lat="49.45115" lon="1.17327">
        <ele>81</ele>
        <time>2017-08-01T14:49:36Z</time>
      </trkpt>
      <trkpt lat="49.45113" lon="1.17325">
        <ele>81</ele>
        <time>2017-08-01T14:49:36Z</time>
      </trkpt>
      <trkpt lat="49.45109" lon="1.17323">
        <ele>81</ele>
        <time>2017-08-01T14:49:52Z</time>
      </trkpt>
      <trkpt lat="49.45104" lon="1.17318">
        <ele>81</ele>
        <time>2017-08-01T14:49:52Z</time>
      </trkpt>
      <trkpt lat="49.45101" lon="1.17314">
        <ele>81</ele>
        <time>2017-08-01T14:49:52Z</time>
      </trkpt>
      <trkpt lat="49.45097" lon="1.1731">
        <ele>81</ele>
        <time>2017-08-01T14:49:52Z</time>
      </trkpt>
      <trkpt lat="49.45092" lon="1.17305">
        <ele>81</ele>
        <time>2017-08-01T14:50:08Z</time>
      </trkpt>
      <trkpt lat="49.45091" lon="1.17299">
        <ele>81</ele>
        <time>2017-08-01T14:50:08Z</time>
      </trkpt>
      <trkpt lat="49.45089" lon="1.17294">
        <ele>81</ele>
        <time>2017-08-01T14:50:08Z</time>
      </trkpt>
      <trkpt lat="49.45085" lon="1.17287">
        <ele>78</ele>
        <time>2017-08-01T14:50:08Z</time>
      </trkpt>
      <trkpt lat="49.45082" lon="1.17281">
        <ele>78</ele>
        <time>2017-08-01T14:50:24Z</time>
      </trkpt>
      <trkpt lat="49.45079" lon="1.17274">
        <ele>78</ele>
        <time>2017-08-01T14:50:24Z</time>
      </trkpt>
      <trkpt lat="49.45077" lon="1.17266">
        <ele>78</ele>
        <time>2017-08-01T14:50:24Z</time>
      </trkpt>
      <trkpt lat="49.45074" lon="1.17257">
        <ele>78</ele>
        <time>2017-08-01T14:50:24Z</time>
      </trkpt>
      <trkpt lat="49.45073" lon="1.17251">
        <ele>78</ele>
        <time>2017-08-01T14:50:40Z</time>
      </trkpt>
      <trkpt lat="49.45069" lon="1.17245">
        <ele>78</ele>
        <time>2017-08-01T14:50:40Z</time>
      </trkpt>
      <trkpt lat="49.45067" lon="1.17242">
        <ele>78</ele>
        <time>2017-08-01T14:50:40Z</time>
      </trkpt>
      <trkpt lat="49.45066" lon="1.1723">
        <ele>78</ele>
        <time>2017-08-01T14:50:40Z</time>
      </trkpt>
      <trkpt lat="49.45063" lon="1.17227">
        <ele>78</ele>
        <time>2017-08-01T14:50:56Z</time>
      </trkpt>
      <trkpt lat="49.4506" lon="1.17219">
        <ele>78</ele>
        <time>2017-08-01T14:50:56Z</time>
      </trkpt>
      <trkpt lat="49.45058" lon="1.17215">
        <ele>78</ele>
        <time>2017-08-01T14:50:56Z</time>
      </trkpt>
      <trkpt lat="49.45056" lon="1.17206">
        <ele>80</ele>
        <time>2017-08-01T14:50:56Z</time>
      </trkpt>
      <trkpt lat="49.45054" lon="1.17194">
        <ele>80</ele>
        <time>2017-08-01T15:07:40Z</time>
      </trkpt>
      <trkpt lat="49.45054" lon="1.17194">
        <ele>80</ele>
        <time>2017-08-01T15:07:40Z</time>
      </trkpt>
      <trkpt lat="49.45054" lon="1.17194">
        <ele>80</ele>
        <time>2017-08-01T15:07:40Z</time>
      </trkpt>
      <trkpt lat="49.45054" lon="1.17194">
        <ele>80</ele>
        <time>2017-08-01T15:07:40Z</time>
      </trkpt>
      <trkpt lat="49.45051" lon="1.17177">
        <ele>80</ele>
        <time>2017-08-01T15:07:40Z</time>
      </trkpt>
      <trkpt lat="49.45039" lon="1.17171">
        <ele>77</ele>
        <time>2017-08-01T15:07:56Z</time>
      </trkpt>
      <trkpt lat="49.45031" lon="1.17169">
        <ele>77</ele>
        <time>2017-08-01T15:07:56Z</time>
      </trkpt>
      <trkpt lat="49.45029" lon="1.17166">
        <ele>77</ele>
        <time>2017-08-01T15:07:56Z</time>
      </trkpt>
      <trkpt lat="49.45025" lon="1.17159">
        <ele>77</ele>
        <time>2017-08-01T15:07:56Z</time>
      </trkpt>
      <trkpt lat="49.45019" lon="1.17155">
        <ele>77</ele>
        <time>2017-08-01T15:08:12Z</time>
      </trkpt>
      <trkpt lat="49.45015" lon="1.17147">
        <ele>77</ele>
        <time>2017-08-01T15:08:12Z</time>
      </trkpt>
      <trkpt lat="49.45012" lon="1.17143">
        <ele>77</ele>
        <time>2017-08-01T15:08:12Z</time>
      </trkpt>
      <trkpt lat="49.45008" lon="1.17138">
        <ele>77</ele>
        <time>2017-08-01T15:08:12Z</time>
      </trkpt>
      <trkpt lat="49.45005" lon="1.17136">
        <ele>77</ele>
        <time>2017-08-01T15:08:28Z</time>
      </trkpt>
      <trkpt lat="49.45002" lon="1.17133">
        <ele>77</ele>
        <time>2017-08-01T15:08:28Z</time>
      </trkpt>
      <trkpt lat="49.44998" lon="1.17127">
        <ele>77</ele>
        <time>2017-08-01T15:08:28Z</time>
      </trkpt>
      <trkpt lat="49.44994" lon="1.17124">
        <ele>74</ele>
        <time>2017-08-01T15:08:28Z</time>
      </trkpt>
      <trkpt lat="49.44989" lon="1.17122">
        <ele>74</ele>
        <time>2017-08-01T15:08:44Z</time>
      </trkpt>
      <trkpt lat="49.44986" lon="1.17116">
        <ele>74</ele>
        <time>2017-08-01T15:08:44Z</time>
      </trkpt>
      <trkpt lat="49.44981" lon="1.17111">
        <ele>74</ele>
        <time>2017-08-01T15:08:44Z</time>
      </trkpt>
      <trkpt lat="49.44973" lon="1.17106">
        <ele>74</ele>
        <time>2017-08-01T15:08:44Z</time>
      </trkpt>
      <trkpt lat="49.44973" lon="1.171">
        <ele>74</ele>
        <time>2017-08-01T15:09:00Z</time>
      </trkpt>
      <trkpt lat="49.44972" lon="1.17095">
        <ele>74</ele>
        <time>2017-08-01T15:09:00Z</time>
      </trkpt>
      <trkpt lat="49.44964" lon="1.17093">
        <ele>74</ele>
        <time>2017-08-01T15:09:00Z</time>
      </trkpt>
      <trkpt lat="49.44959" lon="1.17088">
        <ele>74</ele>
        <time>2017-08-01T15:09:00Z</time>
      </trkpt>
      <trkpt lat="49.44956" lon="1.17084">
        <ele>68</ele>
        <time>2017-08-01T15:09:16Z</time>
      </trkpt>
      <trkpt lat="49.44955" lon="1.17081">
        <ele>68</ele>
        <time>2017-08-01T15:09:16Z</time>
      </trkpt>
      <trkpt lat="49.44947" lon="1.17082">
        <ele>68</ele>
        <time>2017-08-01T15:09:16Z</time>
      </trkpt>
      <trkpt lat="49.44942" lon="1.17082">
        <ele>68</ele>
        <time>2017-08-01T15:09:16Z</time>
      </trkpt>
      <trkpt lat="49.44935" lon="1.17082">
        <ele>68</ele>
        <time>2017-08-01T15:09:32Z</time>
      </trkpt>
      <trkpt lat="49.44931" lon="1.17075">
        <ele>68</ele>
        <time>2017-08-01T15:09:32Z</time>
      </trkpt>
      <trkpt lat="49.44922" lon="1.17077">
        <ele>68</ele>
        <time>2017-08-01T15:09:32Z</time>
      </trkpt>
      <trkpt lat="49.44914" lon="1.17079">
        <ele>68</ele>
        <time>2017-08-01T15:09:32Z</time>
      </trkpt>
      <trkpt lat="49.4491" lon="1.17078">
        <ele>68</ele>
        <time>2017-08-01T15:09:52Z</time>
      </trkpt>
      <trkpt lat="49.44908" lon="1.17074">
        <ele>68</ele>
        <time>2017-08-01T15:09:52Z</time>
      </trkpt>
      <trkpt lat="49.44907" lon="1.17073">
        <ele>68</ele>
        <time>2017-08-01T15:09:52Z</time>
      </trkpt>
      <trkpt lat="49.44903" lon="1.17074">
        <ele>68</ele>
        <time>2017-08-01T15:09:52Z</time>
      </trkpt>
      <trkpt lat="49.44898" lon="1.17075">
        <ele>68</ele>
        <time>2017-08-01T15:09:52Z</time>
      </trkpt>
      <trkpt lat="49.44894" lon="1.17073">
        <ele>68</ele>
        <time>2017-08-01T15:10:08Z</time>
      </trkpt>
      <trkpt lat="49.44892" lon="1.17073">
        <ele>68</ele>
        <time>2017-08-01T15:10:08Z</time>
      </trkpt>
      <trkpt lat="49.44885" lon="1.17072">
        <ele>68</ele>
        <time>2017-08-01T15:10:08Z</time>
      </trkpt>
      <trkpt lat="49.4488" lon="1.1707">
        <ele>68</ele>
        <time>2017-08-01T15:10:08Z</time>
      </trkpt>
      <trkpt lat="49.44877" lon="1.17069">
        <ele>68</ele>
        <time>2017-08-01T15:10:24Z</time>
      </trkpt>
      <trkpt lat="49.4487" lon="1.17068">
        <ele>68</ele>
        <time>2017-08-01T15:10:24Z</time>
      </trkpt>
      <trkpt lat="49.44864" lon="1.17067">
        <ele>68</ele>
        <time>2017-08-01T15:10:24Z</time>
      </trkpt>
      <trkpt lat="49.44861" lon="1.17069">
        <ele>68</ele>
        <time>2017-08-01T15:10:24Z</time>
      </trkpt>
      <trkpt lat="49.4486" lon="1.17069">
        <ele>68</ele>
        <time>2017-08-01T15:10:40Z</time>
      </trkpt>
      <trkpt lat="49.44861" lon="1.1706">
        <ele>68</ele>
        <time>2017-08-01T15:10:40Z</time>
      </trkpt>
      <trkpt lat="49.44855" lon="1.17058">
        <ele>68</ele>
        <time>2017-08-01T15:10:40Z</time>
      </trkpt>
      <trkpt lat="49.4485" lon="1.17055">
        <ele>68</ele>
        <time>2017-08-01T15:10:40Z</time>
      </trkpt>
      <trkpt lat="49.44846" lon="1.17047">
        <ele>68</ele>
        <time>2017-08-01T15:10:56Z</time>
      </trkpt>
      <trkpt lat="49.44845" lon="1.17042">
        <ele>68</ele>
        <time>2017-08-01T15:10:56Z</time>
      </trkpt>
      <trkpt lat="49.44841" lon="1.17038">
        <ele>68</ele>
        <time>2017-08-01T15:10:56Z</time>
      </trkpt>
      <trkpt lat="49.44836" lon="1.17035">
        <ele>68</ele>
        <time>2017-08-01T15:10:56Z</time>
      </trkpt>
      <trkpt lat="49.44831" lon="1.17031">
        <ele>68</ele>
        <time>2017-08-01T15:11:12Z</time>
      </trkpt>
      <trkpt lat="49.44828" lon="1.17022">
        <ele>68</ele>
        <time>2017-08-01T15:11:12Z</time>
      </trkpt>
      <trkpt lat="49.44825" lon="1.1702">
        <ele>68</ele>
        <time>2017-08-01T15:11:13Z</time>
      </trkpt>
      <trkpt lat="49.44822" lon="1.17008">
        <ele>68</ele>
        <time>2017-08-01T15:11:13Z</time>
      </trkpt>
      <trkpt lat="49.44816" lon="1.17008">
        <ele>68</ele>
        <time>2017-08-01T15:11:28Z</time>
      </trkpt>
      <trkpt lat="49.44806" lon="1.17001">
        <ele>68</ele>
        <time>2017-08-01T15:11:28Z</time>
      </trkpt>
      <trkpt lat="49.44801" lon="1.16993">
        <ele>68</ele>
        <time>2017-08-01T15:11:28Z</time>
      </trkpt>
      <trkpt lat="49.44797" lon="1.16987">
        <ele>68</ele>
        <time>2017-08-01T15:11:28Z</time>
      </trkpt>
      <trkpt lat="49.44791" lon="1.16989">
        <ele>70</ele>
        <time>2017-08-01T15:11:44Z</time>
      </trkpt>
      <trkpt lat="49.4479" lon="1.16982">
        <ele>70</ele>
        <time>2017-08-01T15:11:44Z</time>
      </trkpt>
      <trkpt lat="49.44787" lon="1.16983">
        <ele>70</ele>
        <time>2017-08-01T15:11:44Z</time>
      </trkpt>
      <trkpt lat="49.4478" lon="1.16981">
        <ele>70</ele>
        <time>2017-08-01T15:11:44Z</time>
      </trkpt>
      <trkpt lat="49.44773" lon="1.16976">
        <ele>70</ele>
        <time>2017-08-01T15:12:00Z</time>
      </trkpt>
      <trkpt lat="49.44768" lon="1.16973">
        <ele>70</ele>
        <time>2017-08-01T15:12:00Z</time>
      </trkpt>
      <trkpt lat="49.44768" lon="1.16967">
        <ele>70</ele>
        <time>2017-08-01T15:12:00Z</time>
      </trkpt>
      <trkpt lat="49.44767" lon="1.16959">
        <ele>70</ele>
        <time>2017-08-01T15:12:00Z</time>
      </trkpt>
      <trkpt lat="49.44768" lon="1.16951">
        <ele>68</ele>
        <time>2017-08-01T15:12:16Z</time>
      </trkpt>
      <trkpt lat="49.44762" lon="1.16942">
        <ele>68</ele>
        <time>2017-08-01T15:12:16Z</time>
      </trkpt>
      <trkpt lat="49.44759" lon="1.16934">
        <ele>68</ele>
        <time>2017-08-01T15:12:16Z</time>
      </trkpt>
      <trkpt lat="49.44756" lon="1.16934">
        <ele>68</ele>
        <time>2017-08-01T15:12:16Z</time>
      </trkpt>
      <trkpt lat="49.44752" lon="1.16926">
        <ele>68</ele>
        <time>2017-08-01T15:12:32Z</time>
      </trkpt>
      <trkpt lat="49.4475" lon="1.16919">
        <ele>68</ele>
        <time>2017-08-01T15:12:32Z</time>
      </trkpt>
      <trkpt lat="49.44743" lon="1.1692">
        <ele>68</ele>
        <time>2017-08-01T15:12:32Z</time>
      </trkpt>
      <trkpt lat="49.44742" lon="1.16912">
        <ele>68</ele>
        <time>2017-08-01T15:12:32Z</time>
      </trkpt>
      <trkpt lat="49.44738" lon="1.16909">
        <ele>68</ele>
        <time>2017-08-01T15:12:48Z</time>
      </trkpt>
      <trkpt lat="49.44734" lon="1.16907">
        <ele>68</ele>
        <time>2017-08-01T15:12:48Z</time>
      </trkpt>
      <trkpt lat="49.44733" lon="1.16894">
        <ele>68</ele>
        <time>2017-08-01T15:12:48Z</time>
      </trkpt>
      <trkpt lat="49.44725" lon="1.16896">
        <ele>68</ele>
        <time>2017-08-01T15:12:48Z</time>
      </trkpt>
      <trkpt lat="49.44722" lon="1.16891">
        <ele>68</ele>
        <time>2017-08-01T15:13:04Z</time>
      </trkpt>
      <trkpt lat="49.44721" lon="1.16888">
        <ele>68</ele>
        <time>2017-08-01T15:13:04Z</time>
      </trkpt>
      <trkpt lat="49.44715" lon="1.16886">
        <ele>68</ele>
        <time>2017-08-01T15:13:04Z</time>
      </trkpt>
      <trkpt lat="49.44714" lon="1.16881">
        <ele>68</ele>
        <time>2017-08-01T15:13:04Z</time>
      </trkpt>
      <trkpt lat="49.44709" lon="1.16874">
        <ele>75</ele>
        <time>2017-08-01T15:13:20Z</time>
      </trkpt>
      <trkpt lat="49.44708" lon="1.16872">
        <ele>63</ele>
        <time>2017-08-01T15:13:20Z</time>
      </trkpt>
      <trkpt lat="49.44703" lon="1.16867">
        <ele>63</ele>
        <time>2017-08-01T15:13:20Z</time>
      </trkpt>
      <trkpt lat="49.44698" lon="1.16865">
        <ele>63</ele>
        <time>2017-08-01T15:13:20Z</time>
      </trkpt>
      <trkpt lat="49.44683" lon="1.16835">
        <ele>63</ele>
        <time>2017-08-01T15:14:04Z</time>
      </trkpt>
      <trkpt lat="49.4468" lon="1.16831">
        <ele>63</ele>
        <time>2017-08-01T15:14:04Z</time>
      </trkpt>
      <trkpt lat="49.44678" lon="1.16821">
        <ele>63</ele>
        <time>2017-08-01T15:14:04Z</time>
      </trkpt>
      <trkpt lat="49.44674" lon="1.16809">
        <ele>63</ele>
        <time>2017-08-01T15:14:04Z</time>
      </trkpt>
      <trkpt lat="49.4467" lon="1.16797">
        <ele>63</ele>
        <time>2017-08-01T15:14:04Z</time>
      </trkpt>
      <trkpt lat="49.44661" lon="1.16799">
        <ele>63</ele>
        <time>2017-08-01T15:14:20Z</time>
      </trkpt>
      <trkpt lat="49.44654" lon="1.16805">
        <ele>63</ele>
        <time>2017-08-01T15:14:20Z</time>
      </trkpt>
      <trkpt lat="49.44648" lon="1.16796">
        <ele>63</ele>
        <time>2017-08-01T15:14:20Z</time>
      </trkpt>
      <trkpt lat="49.44647" lon="1.16792">
        <ele>74</ele>
        <time>2017-08-01T15:14:20Z</time>
      </trkpt>
      <trkpt lat="49.44643" lon="1.16782">
        <ele>74</ele>
        <time>2017-08-01T15:14:36Z</time>
      </trkpt>
      <trkpt lat="49.44643" lon="1.16775">
        <ele>74</ele>
        <time>2017-08-01T15:14:36Z</time>
      </trkpt>
      <trkpt lat="49.44638" lon="1.16765">
        <ele>74</ele>
        <time>2017-08-01T15:14:36Z</time>
      </trkpt>
      <trkpt lat="49.44634" lon="1.16762">
        <ele>74</ele>
        <time>2017-08-01T15:14:36Z</time>
      </trkpt>
      <trkpt lat="49.44624" lon="1.16744">
        <ele>62</ele>
        <time>2017-08-01T15:15:08Z</time>
      </trkpt>
      <trkpt lat="49.44622" lon="1.16741">
        <ele>62</ele>
        <time>2017-08-01T15:15:08Z</time>
      </trkpt>
      <trkpt lat="49.44617" lon="1.16736">
        <ele>62</ele>
        <time>2017-08-01T15:15:09Z</time>
      </trkpt>
      <trkpt lat="49.44613" lon="1.16726">
        <ele>62</ele>
        <time>2017-08-01T15:15:10Z</time>
      </trkpt>
      <trkpt lat="49.44612" lon="1.16724">
        <ele>62</ele>
        <time>2017-08-01T15:15:10Z</time>
      </trkpt>
      <trkpt lat="49.44616" lon="1.16717">
        <ele>62</ele>
        <time>2017-08-01T15:15:24Z</time>
      </trkpt>
      <trkpt lat="49.44612" lon="1.16704">
        <ele>60</ele>
        <time>2017-08-01T15:15:24Z</time>
      </trkpt>
      <trkpt lat="49.4461" lon="1.16688">
        <ele>60</ele>
        <time>2017-08-01T15:15:24Z</time>
      </trkpt>
      <trkpt lat="49.44607" lon="1.16685">
        <ele>60</ele>
        <time>2017-08-01T15:15:24Z</time>
      </trkpt>
      <trkpt lat="49.44601" lon="1.16674">
        <ele>60</ele>
        <time>2017-08-01T15:15:40Z</time>
      </trkpt>
      <trkpt lat="49.44603" lon="1.16668">
        <ele>60</ele>
        <time>2017-08-01T15:15:40Z</time>
      </trkpt>
      <trkpt lat="49.446" lon="1.16663">
        <ele>60</ele>
        <time>2017-08-01T15:15:40Z</time>
      </trkpt>
      <trkpt lat="49.44597" lon="1.16656">
        <ele>60</ele>
        <time>2017-08-01T15:15:40Z</time>
      </trkpt>
      <trkpt lat="49.44597" lon="1.16647">
        <ele>60</ele>
        <time>2017-08-01T15:15:56Z</time>
      </trkpt>
      <trkpt lat="49.44593" lon="1.1664">
        <ele>60</ele>
        <time>2017-08-01T15:15:56Z</time>
      </trkpt>
      <trkpt lat="49.44591" lon="1.16636">
        <ele>60</ele>
        <time>2017-08-01T15:15:56Z</time>
      </trkpt>
      <trkpt lat="49.44591" lon="1.1663">
        <ele>60</ele>
        <time>2017-08-01T15:15:56Z</time>
      </trkpt>
      <trkpt lat="49.44585" lon="1.16621">
        <ele>66</ele>
        <time>2017-08-01T15:16:12Z</time>
      </trkpt>
      <trkpt lat="49.44584" lon="1.16609">
        <ele>66</ele>
        <time>2017-08-01T15:16:12Z</time>
      </trkpt>
      <trkpt lat="49.44586" lon="1.16599">
        <ele>66</ele>
        <time>2017-08-01T15:16:12Z</time>
      </trkpt>
      <trkpt lat="49.44582" lon="1.16595">
        <ele>66</ele>
        <time>2017-08-01T15:16:12Z</time>
      </trkpt>
      <trkpt lat="49.44581" lon="1.16593">
        <ele>66</ele>
        <time>2017-08-01T15:16:28Z</time>
      </trkpt>
      <trkpt lat="49.44577" lon="1.16584">
        <ele>66</ele>
        <time>2017-08-01T15:16:28Z</time>
      </trkpt>
      <trkpt lat="49.44578" lon="1.16578">
        <ele>66</ele>
        <time>2017-08-01T15:16:28Z</time>
      </trkpt>
      <trkpt lat="49.44573" lon="1.16569">
        <ele>66</ele>
        <time>2017-08-01T15:16:28Z</time>
      </trkpt>
      <trkpt lat="49.44564" lon="1.16563">
        <ele>66</ele>
        <time>2017-08-01T15:18:44Z</time>
      </trkpt>
      <trkpt lat="49.44563" lon="1.16558">
        <ele>66</ele>
        <time>2017-08-01T15:18:44Z</time>
      </trkpt>
      <trkpt lat="49.44561" lon="1.16553">
        <ele>66</ele>
        <time>2017-08-01T15:18:44Z</time>
      </trkpt>
      <trkpt lat="49.44559" lon="1.16548">
        <ele>66</ele>
        <time>2017-08-01T15:18:44Z</time>
      </trkpt>
      <trkpt lat="49.44558" lon="1.16544">
        <ele>66</ele>
        <time>2017-08-01T15:18:44Z</time>
      </trkpt>
      <trkpt lat="49.44556" lon="1.16538">
        <ele>73</ele>
        <time>2017-08-01T15:19:00Z</time>
      </trkpt>
      <trkpt lat="49.44554" lon="1.1653">
        <ele>73</ele>
        <time>2017-08-01T15:19:00Z</time>
      </trkpt>
      <trkpt lat="49.4455" lon="1.16521">
        <ele>73</ele>
        <time>2017-08-01T15:19:00Z</time>
      </trkpt>
      <trkpt lat="49.44547" lon="1.16513">
        <ele>73</ele>
        <time>2017-08-01T15:19:00Z</time>
      </trkpt>
      <trkpt lat="49.44547" lon="1.16509">
        <ele>73</ele>
        <time>2017-08-01T15:19:16Z</time>
      </trkpt>
      <trkpt lat="49.44545" lon="1.16499">
        <ele>73</ele>
        <time>2017-08-01T15:19:16Z</time>
      </trkpt>
      <trkpt lat="49.44544" lon="1.16495">
        <ele>73</ele>
        <time>2017-08-01T15:19:16Z</time>
      </trkpt>
      <trkpt lat="49.44542" lon="1.1649">
        <ele>61</ele>
        <time>2017-08-01T15:19:16Z</time>
      </trkpt>
      <trkpt lat="49.44539" lon="1.1648">
        <ele>61</ele>
        <time>2017-08-01T15:19:32Z</time>
      </trkpt>
      <trkpt lat="49.44535" lon="1.16469">
        <ele>61</ele>
        <time>2017-08-01T15:19:32Z</time>
      </trkpt>
      <trkpt lat="49.44532" lon="1.16462">
        <ele>61</ele>
        <time>2017-08-01T15:19:32Z</time>
      </trkpt>
      <trkpt lat="49.44531" lon="1.16457">
        <ele>57</ele>
        <time>2017-08-01T15:19:32Z</time>
      </trkpt>
      <trkpt lat="49.44529" lon="1.16456">
        <ele>57</ele>
        <time>2017-08-01T15:19:48Z</time>
      </trkpt>
      <trkpt lat="49.44529" lon="1.1645">
        <ele>57</ele>
        <time>2017-08-01T15:19:48Z</time>
      </trkpt>
      <trkpt lat="49.44527" lon="1.16442">
        <ele>57</ele>
        <time>2017-08-01T15:19:48Z</time>
      </trkpt>
      <trkpt lat="49.44526" lon="1.16437">
        <ele>57</ele>
        <time>2017-08-01T15:19:48Z</time>
      </trkpt>
      <trkpt lat="49.44527" lon="1.16433">
        <ele>57</ele>
        <time>2017-08-01T15:20:04Z</time>
      </trkpt>
      <trkpt lat="49.44523" lon="1.16428">
        <ele>57</ele>
        <time>2017-08-01T15:20:04Z</time>
      </trkpt>
      <trkpt lat="49.44524" lon="1.16422">
        <ele>57</ele>
        <time>2017-08-01T15:20:04Z</time>
      </trkpt>
      <trkpt lat="49.44521" lon="1.16413">
        <ele>57</ele>
        <time>2017-08-01T15:20:04Z</time>
      </trkpt>
      <trkpt lat="49.44519" lon="1.16407">
        <ele>57</ele>
        <time>2017-08-01T15:20:20Z</time>
      </trkpt>
      <trkpt lat="49.44517" lon="1.16402">
        <ele>57</ele>
        <time>2017-08-01T15:20:20Z</time>
      </trkpt>
      <trkpt lat="49.44517" lon="1.16397">
        <ele>57</ele>
        <time>2017-08-01T15:20:20Z</time>
      </trkpt>
      <trkpt lat="49.44518" lon="1.1639">
        <ele>57</ele>
        <time>2017-08-01T15:20:20Z</time>
      </trkpt>
      <trkpt lat="49.44519" lon="1.16384">
        <ele>57</ele>
        <time>2017-08-01T15:20:36Z</time>
      </trkpt>
      <trkpt lat="49.44515" lon="1.16379">
        <ele>57</ele>
        <time>2017-08-01T15:20:36Z</time>
      </trkpt>
      <trkpt lat="49.44513" lon="1.16366">
        <ele>60</ele>
        <time>2017-08-01T15:20:36Z</time>
      </trkpt>
      <trkpt lat="49.44514" lon="1.16364">
        <ele>60</ele>
        <time>2017-08-01T15:20:36Z</time>
      </trkpt>
      <trkpt lat="49.44507" lon="1.16362">
        <ele>60</ele>
        <time>2017-08-01T15:20:52Z</time>
      </trkpt>
      <trkpt lat="49.44505" lon="1.1635">
        <ele>60</ele>
        <time>2017-08-01T15:20:52Z</time>
      </trkpt>
      <trkpt lat="49.44497" lon="1.16342">
        <ele>60</ele>
        <time>2017-08-01T15:20:52Z</time>
      </trkpt>
      <trkpt lat="49.44498" lon="1.16339">
        <ele>60</ele>
        <time>2017-08-01T15:20:52Z</time>
      </trkpt>
      <trkpt lat="49.44493" lon="1.16338">
        <ele>60</ele>
        <time>2017-08-01T15:21:08Z</time>
      </trkpt>
      <trkpt lat="49.44491" lon="1.16331">
        <ele>60</ele>
        <time>2017-08-01T15:21:08Z</time>
      </trkpt>
      <trkpt lat="49.44488" lon="1.16324">
        <ele>60</ele>
        <time>2017-08-01T15:21:08Z</time>
      </trkpt>
      <trkpt lat="49.44486" lon="1.16319">
        <ele>60</ele>
        <time>2017-08-01T15:21:08Z</time>
      </trkpt>
      <trkpt lat="49.44484" lon="1.16314">
        <ele>60</ele>
        <time>2017-08-01T15:21:24Z</time>
      </trkpt>
      <trkpt lat="49.44481" lon="1.16308">
        <ele>60</ele>
        <time>2017-08-01T15:21:24Z</time>
      </trkpt>
      <trkpt lat="49.44479" lon="1.16302">
        <ele>60</ele>
        <time>2017-08-01T15:21:24Z</time>
      </trkpt>
      <trkpt lat="49.44476" lon="1.16296">
        <ele>60</ele>
        <time>2017-08-01T15:21:24Z</time>
      </trkpt>
      <trkpt lat="49.44474" lon="1.16289">
        <ele>64</ele>
        <time>2017-08-01T15:21:40Z</time>
      </trkpt>
      <trkpt lat="49.4447" lon="1.16286">
        <ele>64</ele>
        <time>2017-08-01T15:21:40Z</time>
      </trkpt>
      <trkpt lat="49.44468" lon="1.16282">
        <ele>64</ele>
        <time>2017-08-01T15:21:40Z</time>
      </trkpt>
      <trkpt lat="49.44465" lon="1.16275">
        <ele>64</ele>
        <time>2017-08-01T15:21:40Z</time>
      </trkpt>
      <trkpt lat="49.44461" lon="1.16271">
        <ele>64</ele>
        <time>2017-08-01T15:21:56Z</time>
      </trkpt>
      <trkpt lat="49.44459" lon="1.16262">
        <ele>64</ele>
        <time>2017-08-01T15:21:56Z</time>
      </trkpt>
      <trkpt lat="49.44455" lon="1.16258">
        <ele>51</ele>
        <time>2017-08-01T15:21:56Z</time>
      </trkpt>
      <trkpt lat="49.44453" lon="1.16249">
        <ele>51</ele>
        <time>2017-08-01T15:21:56Z</time>
      </trkpt>
      <trkpt lat="49.4445" lon="1.16242">
        <ele>51</ele>
        <time>2017-08-01T15:22:12Z</time>
      </trkpt>
      <trkpt lat="49.44448" lon="1.16232">
        <ele>51</ele>
        <time>2017-08-01T15:22:12Z</time>
      </trkpt>
      <trkpt lat="49.44444" lon="1.16224">
        <ele>51</ele>
        <time>2017-08-01T15:22:12Z</time>
      </trkpt>
      <trkpt lat="49.44444" lon="1.16223">
        <ele>51</ele>
        <time>2017-08-01T15:22:12Z</time>
      </trkpt>
      <trkpt lat="49.44445" lon="1.16216">
        <ele>51</ele>
        <time>2017-08-01T15:22:28Z</time>
      </trkpt>
      <trkpt lat="49.44443" lon="1.16213">
        <ele>51</ele>
        <time>2017-08-01T15:22:28Z</time>
      </trkpt>
      <trkpt lat="49.44443" lon="1.16205">
        <ele>49</ele>
        <time>2017-08-01T15:22:28Z</time>
      </trkpt>
      <trkpt lat="49.44438" lon="1.16192">
        <ele>49</ele>
        <time>2017-08-01T15:22:28Z</time>
      </trkpt>
      <trkpt lat="49.44435" lon="1.16174">
        <ele>49</ele>
        <time>2017-08-01T15:22:56Z</time>
      </trkpt>
      <trkpt lat="49.44436" lon="1.16168">
        <ele>49</ele>
        <time>2017-08-01T15:22:56Z</time>
      </trkpt>
      <trkpt lat="49.44434" lon="1.1616">
        <ele>49</ele>
        <time>2017-08-01T15:22:56Z</time>
      </trkpt>
      <trkpt lat="49.4443" lon="1.16152">
        <ele>49</ele>
        <time>2017-08-01T15:22:56Z</time>
      </trkpt>
      <trkpt lat="49.44425" lon="1.1614">
        <ele>49</ele>
        <time>2017-08-01T15:22:56Z</time>
      </trkpt>
      <trkpt lat="49.44425" lon="1.16135">
        <ele>49</ele>
        <time>2017-08-01T15:23:12Z</time>
      </trkpt>
      <trkpt lat="49.44426" lon="1.16134">
        <ele>49</ele>
        <time>2017-08-01T15:23:12Z</time>
      </trkpt>
      <trkpt lat="49.44424" lon="1.16125">
        <ele>49</ele>
        <time>2017-08-01T15:23:12Z</time>
      </trkpt>
      <trkpt lat="49.44422" lon="1.16117">
        <ele>48</ele>
        <time>2017-08-01T15:23:12Z</time>
      </trkpt>
      <trkpt lat="49.44418" lon="1.16108">
        <ele>48</ele>
        <time>2017-08-01T15:23:28Z</time>
      </trkpt>
      <trkpt lat="49.44417" lon="1.16098">
        <ele>48</ele>
        <time>2017-08-01T15:23:28Z</time>
      </trkpt>
      <trkpt lat="49.44416" lon="1.16093">
        <ele>48</ele>
        <time>2017-08-01T15:23:28Z</time>
      </trkpt>
      <trkpt lat="49.44412" lon="1.16084">
        <ele>48</ele>
        <time>2017-08-01T15:23:28Z</time>
      </trkpt>
      <trkpt lat="49.44413" lon="1.16082">
        <ele>48</ele>
        <time>2017-08-01T15:23:44Z</time>
      </trkpt>
      <trkpt lat="49.44411" lon="1.16072">
        <ele>48</ele>
        <time>2017-08-01T15:23:44Z</time>
      </trkpt>
      <trkpt lat="49.44409" lon="1.16071">
        <ele>48</ele>
        <time>2017-08-01T15:23:44Z</time>
      </trkpt>
      <trkpt lat="49.44405" lon="1.16065">
        <ele>48</ele>
        <time>2017-08-01T15:23:44Z</time>
      </trkpt>
      <trkpt lat="49.44402" lon="1.16057">
        <ele>48</ele>
        <time>2017-08-01T15:24:00Z</time>
      </trkpt>
      <trkpt lat="49.44399" lon="1.16047">
        <ele>48</ele>
        <time>2017-08-01T15:24:00Z</time>
      </trkpt>
      <trkpt lat="49.44398" lon="1.16038">
        <ele>51</ele>
        <time>2017-08-01T15:24:00Z</time>
      </trkpt>
      <trkpt lat="49.44398" lon="1.16036">
        <ele>51</ele>
        <time>2017-08-01T15:24:00Z</time>
      </trkpt>
      <trkpt lat="49.44397" lon="1.16028">
        <ele>51</ele>
        <time>2017-08-01T15:24:16Z</time>
      </trkpt>
      <trkpt lat="49.44397" lon="1.16023">
        <ele>51</ele>
        <time>2017-08-01T15:24:16Z</time>
      </trkpt>
      <trkpt lat="49.44395" lon="1.16017">
        <ele>51</ele>
        <time>2017-08-01T15:24:16Z</time>
      </trkpt>
      <trkpt lat="49.44397" lon="1.16012">
        <ele>51</ele>
        <time>2017-08-01T15:24:16Z</time>
      </trkpt>
      <trkpt lat="49.44396" lon="1.16007">
        <ele>51</ele>
        <time>2017-08-01T15:24:32Z</time>
      </trkpt>
      <trkpt lat="49.44393" lon="1.15999">
        <ele>51</ele>
        <time>2017-08-01T15:24:32Z</time>
      </trkpt>
      <trkpt lat="49.44391" lon="1.15994">
        <ele>51</ele>
        <time>2017-08-01T15:24:32Z</time>
      </trkpt>
      <trkpt lat="49.44389" lon="1.15985">
        <ele>51</ele>
        <time>2017-08-01T15:24:32Z</time>
      </trkpt>
      <trkpt lat="49.44386" lon="1.15978">
        <ele>51</ele>
        <time>2017-08-01T15:24:48Z</time>
      </trkpt>
      <trkpt lat="49.44383" lon="1.15972">
        <ele>51</ele>
        <time>2017-08-01T15:24:48Z</time>
      </trkpt>
      <trkpt lat="49.44381" lon="1.15962">
        <ele>51</ele>
        <time>2017-08-01T15:24:48Z</time>
      </trkpt>
      <trkpt lat="49.44378" lon="1.15955">
        <ele>55</ele>
        <time>2017-08-01T15:24:48Z</time>
      </trkpt>
      <trkpt lat="49.44375" lon="1.15948">
        <ele>55</ele>
        <time>2017-08-01T15:25:04Z</time>
      </trkpt>
      <trkpt lat="49.44375" lon="1.15944">
        <ele>55</ele>
        <time>2017-08-01T15:25:04Z</time>
      </trkpt>
      <trkpt lat="49.44372" lon="1.15937">
        <ele>55</ele>
        <time>2017-08-01T15:25:04Z</time>
      </trkpt>
      <trkpt lat="49.44371" lon="1.15932">
        <ele>55</ele>
        <time>2017-08-01T15:25:04Z</time>
      </trkpt>
      <trkpt lat="49.44368" lon="1.15923">
        <ele>55</ele>
        <time>2017-08-01T15:25:20Z</time>
      </trkpt>
      <trkpt lat="49.44366" lon="1.15914">
        <ele>55</ele>
        <time>2017-08-01T15:25:20Z</time>
      </trkpt>
      <trkpt lat="49.44364" lon="1.15907">
        <ele>55</ele>
        <time>2017-08-01T15:25:20Z</time>
      </trkpt>
      <trkpt lat="49.44362" lon="1.15903">
        <ele>55</ele>
        <time>2017-08-01T15:25:20Z</time>
      </trkpt>
      <trkpt lat="49.44359" lon="1.15895">
        <ele>55</ele>
        <time>2017-08-01T15:25:36Z</time>
      </trkpt>
      <trkpt lat="49.44358" lon="1.1589">
        <ele>55</ele>
        <time>2017-08-01T15:25:36Z</time>
      </trkpt>
      <trkpt lat="49.44358" lon="1.15886">
        <ele>55</ele>
        <time>2017-08-01T15:25:36Z</time>
      </trkpt>
      <trkpt lat="49.44355" lon="1.15877">
        <ele>55</ele>
        <time>2017-08-01T15:25:36Z</time>
      </trkpt>
      <trkpt lat="49.44353" lon="1.1587">
        <ele>58</ele>
        <time>2017-08-01T15:25:52Z</time>
      </trkpt>
      <trkpt lat="49.44352" lon="1.15866">
        <ele>58</ele>
        <time>2017-08-01T15:25:52Z</time>
      </trkpt>
      <trkpt lat="49.4435" lon="1.1586">
        <ele>58</ele>
        <time>2017-08-01T15:25:52Z</time>
      </trkpt>
      <trkpt lat="49.44347" lon="1.15849">
        <ele>58</ele>
        <time>2017-08-01T15:25:52Z</time>
      </trkpt>
      <trkpt lat="49.44344" lon="1.15841">
        <ele>58</ele>
        <time>2017-08-01T15:26:08Z</time>
      </trkpt>
      <trkpt lat="49.44341" lon="1.15833">
        <ele>58</ele>
        <time>2017-08-01T15:26:08Z</time>
      </trkpt>
      <trkpt lat="49.44339" lon="1.15827">
        <ele>58</ele>
        <time>2017-08-01T15:26:08Z</time>
      </trkpt>
      <trkpt lat="49.44337" lon="1.15823">
        <ele>58</ele>
        <time>2017-08-01T15:26:08Z</time>
      </trkpt>
      <trkpt lat="49.44334" lon="1.15816">
        <ele>58</ele>
        <time>2017-08-01T15:26:24Z</time>
      </trkpt>
      <trkpt lat="49.44333" lon="1.15811">
        <ele>58</ele>
        <time>2017-08-01T15:26:24Z</time>
      </trkpt>
      <trkpt lat="49.44329" lon="1.15801">
        <ele>58</ele>
        <time>2017-08-01T15:26:24Z</time>
      </trkpt>
      <trkpt lat="49.44326" lon="1.15798">
        <ele>58</ele>
        <time>2017-08-01T15:26:24Z</time>
      </trkpt>
      <trkpt lat="49.44325" lon="1.15791">
        <ele>60</ele>
        <time>2017-08-01T15:26:40Z</time>
      </trkpt>
      <trkpt lat="49.44323" lon="1.15782">
        <ele>60</ele>
        <time>2017-08-01T15:26:40Z</time>
      </trkpt>
      <trkpt lat="49.44322" lon="1.15779">
        <ele>60</ele>
        <time>2017-08-01T15:26:40Z</time>
      </trkpt>
      <trkpt lat="49.44321" lon="1.15776">
        <ele>60</ele>
        <time>2017-08-01T15:26:40Z</time>
      </trkpt>
      <trkpt lat="49.44322" lon="1.15769">
        <ele>60</ele>
        <time>2017-08-01T15:28:12Z</time>
      </trkpt>
      <trkpt lat="49.44322" lon="1.15769">
        <ele>60</ele>
        <time>2017-08-01T15:28:12Z</time>
      </trkpt>
      <trkpt lat="49.44322" lon="1.15769">
        <ele>60</ele>
        <time>2017-08-01T15:28:12Z</time>
      </trkpt>
      <trkpt lat="49.44321" lon="1.15769">
        <ele>60</ele>
        <time>2017-08-01T15:28:13Z</time>
      </trkpt>
      <trkpt lat="49.44319" lon="1.15758">
        <ele>60</ele>
        <time>2017-08-01T15:28:13Z</time>
      </trkpt>
      <trkpt lat="49.44317" lon="1.15746">
        <ele>60</ele>
        <time>2017-08-01T15:28:28Z</time>
      </trkpt>
      <trkpt lat="49.44315" lon="1.15736">
        <ele>60</ele>
        <time>2017-08-01T15:28:28Z</time>
      </trkpt>
      <trkpt lat="49.44314" lon="1.15729">
        <ele>60</ele>
        <time>2017-08-01T15:28:28Z</time>
      </trkpt>
      <trkpt lat="49.44314" lon="1.15724">
        <ele>60</ele>
        <time>2017-08-01T15:28:28Z</time>
      </trkpt>
      <trkpt lat="49.44311" lon="1.15706">
        <ele>63</ele>
        <time>2017-08-01T15:29:16Z</time>
      </trkpt>
      <trkpt lat="49.44308" lon="1.15704">
        <ele>63</ele>
        <time>2017-08-01T15:29:16Z</time>
      </trkpt>
      <trkpt lat="49.44309" lon="1.15699">
        <ele>63</ele>
        <time>2017-08-01T15:29:16Z</time>
      </trkpt>
      <trkpt lat="49.44309" lon="1.15689">
        <ele>63</ele>
        <time>2017-08-01T15:29:16Z</time>
      </trkpt>
      <trkpt lat="49.44307" lon="1.15685">
        <ele>63</ele>
        <time>2017-08-01T15:29:16Z</time>
      </trkpt>
      <trkpt lat="49.44305" lon="1.15678">
        <ele>63</ele>
        <time>2017-08-01T15:29:32Z</time>
      </trkpt>
      <trkpt lat="49.44304" lon="1.1567">
        <ele>63</ele>
        <time>2017-08-01T15:29:32Z</time>
      </trkpt>
      <trkpt lat="49.44301" lon="1.15668">
        <ele>63</ele>
        <time>2017-08-01T15:29:32Z</time>
      </trkpt>
      <trkpt lat="49.44303" lon="1.1566">
        <ele>63</ele>
        <time>2017-08-01T15:29:32Z</time>
      </trkpt>
      <trkpt lat="49.443" lon="1.15655">
        <ele>63</ele>
        <time>2017-08-01T15:29:48Z</time>
      </trkpt>
      <trkpt lat="49.443" lon="1.1565">
        <ele>63</ele>
        <time>2017-08-01T15:29:48Z</time>
      </trkpt>
      <trkpt lat="49.44297" lon="1.15644">
        <ele>63</ele>
        <time>2017-08-01T15:29:48Z</time>
      </trkpt>
      <trkpt lat="49.44296" lon="1.15639">
        <ele>63</ele>
        <time>2017-08-01T15:29:48Z</time>
      </trkpt>
      <trkpt lat="49.44289" lon="1.15625">
        <ele>75</ele>
        <time>2017-08-01T15:30:20Z</time>
      </trkpt>
      <trkpt lat="49.44288" lon="1.15625">
        <ele>75</ele>
        <time>2017-08-01T15:30:20Z</time>
      </trkpt>
      <trkpt lat="49.44287" lon="1.15626">
        <ele>75</ele>
        <time>2017-08-01T15:30:20Z</time>
      </trkpt>
      <trkpt lat="49.44284" lon="1.15628">
        <ele>75</ele>
        <time>2017-08-01T15:30:20Z</time>
      </trkpt>
      <trkpt lat="49.44282" lon="1.15628">
        <ele>75</ele>
        <time>2017-08-01T15:30:20Z</time>
      </trkpt>
      <trkpt lat="49.44277" lon="1.15626">
        <ele>75</ele>
        <time>2017-08-01T15:31:04Z</time>
      </trkpt>
      <trkpt lat="49.44275" lon="1.1563">
        <ele>75</ele>
        <time>2017-08-01T15:31:04Z</time>
      </trkpt>
      <trkpt lat="49.44271" lon="1.15636">
        <ele>75</ele>
        <time>2017-08-01T15:31:04Z</time>
      </trkpt>
      <trkpt lat="49.44267" lon="1.15642">
        <ele>75</ele>
        <time>2017-08-01T15:31:04Z</time>
      </trkpt>
      <trkpt lat="49.44263" lon="1.15648">
        <ele>75</ele>
        <time>2017-08-01T15:31:04Z</time>
      </trkpt>
      <trkpt lat="49.44259" lon="1.15652">
        <ele>75</ele>
        <time>2017-08-01T15:31:20Z</time>
      </trkpt>
      <trkpt lat="49.44254" lon="1.15658">
        <ele>75</ele>
        <time>2017-08-01T15:31:20Z</time>
      </trkpt>
      <trkpt lat="49.44252" lon="1.15663">
        <ele>75</ele>
        <time>2017-08-01T15:31:20Z</time>
      </trkpt>
      <trkpt lat="49.4425" lon="1.15667">
        <ele>75</ele>
        <time>2017-08-01T15:31:20Z</time>
      </trkpt>
      <trkpt lat="49.44245" lon="1.15677">
        <ele>75</ele>
        <time>2017-08-01T15:31:36Z</time>
      </trkpt>
      <trkpt lat="49.44241" lon="1.15687">
        <ele>75</ele>
        <time>2017-08-01T15:31:36Z</time>
      </trkpt>
      <trkpt lat="49.44239" lon="1.15693">
        <ele>75</ele>
        <time>2017-08-01T15:31:36Z</time>
      </trkpt>
      <trkpt lat="49.44235" lon="1.15699">
        <ele>75</ele>
        <time>2017-08-01T15:31:36Z</time>
      </trkpt>
      <trkpt lat="49.44232" lon="1.15705">
        <ele>75</ele>
        <time>2017-08-01T15:31:52Z</time>
      </trkpt>
      <trkpt lat="49.44228" lon="1.15708">
        <ele>75</ele>
        <time>2017-08-01T15:31:52Z</time>
      </trkpt>
      <trkpt lat="49.44224" lon="1.15714">
        <ele>73</ele>
        <time>2017-08-01T15:31:52Z</time>
      </trkpt>
      <trkpt lat="49.44221" lon="1.15719">
        <ele>73</ele>
        <time>2017-08-01T15:31:52Z</time>
      </trkpt>
      <trkpt lat="49.44217" lon="1.15726">
        <ele>73</ele>
        <time>2017-08-01T15:32:08Z</time>
      </trkpt>
      <trkpt lat="49.44215" lon="1.15726">
        <ele>73</ele>
        <time>2017-08-01T15:32:08Z</time>
      </trkpt>
      <trkpt lat="49.44211" lon="1.15732">
        <ele>73</ele>
        <time>2017-08-01T15:32:08Z</time>
      </trkpt>
      <trkpt lat="49.44209" lon="1.15736">
        <ele>73</ele>
        <time>2017-08-01T15:32:08Z</time>
      </trkpt>
      <trkpt lat="49.44204" lon="1.15742">
        <ele>87</ele>
        <time>2017-08-01T15:32:24Z</time>
      </trkpt>
      <trkpt lat="49.44201" lon="1.15746">
        <ele>87</ele>
        <time>2017-08-01T15:32:24Z</time>
      </trkpt>
      <trkpt lat="49.44198" lon="1.15751">
        <ele>87</ele>
        <time>2017-08-01T15:32:24Z</time>
      </trkpt>
      <trkpt lat="49.44195" lon="1.15756">
        <ele>87</ele>
        <time>2017-08-01T15:32:24Z</time>
      </trkpt>
      <trkpt lat="49.44192" lon="1.15761">
        <ele>87</ele>
        <time>2017-08-01T15:32:40Z</time>
      </trkpt>
      <trkpt lat="49.44191" lon="1.15764">
        <ele>87</ele>
        <time>2017-08-01T15:32:40Z</time>
      </trkpt>
      <trkpt lat="49.4419" lon="1.15767">
        <ele>87</ele>
        <time>2017-08-01T15:32:40Z</time>
      </trkpt>
      <trkpt lat="49.44188" lon="1.15773">
        <ele>87</ele>
        <time>2017-08-01T15:32:40Z</time>
      </trkpt>
      <trkpt lat="49.44185" lon="1.15774">
        <ele>87</ele>
        <time>2017-08-01T15:32:56Z</time>
      </trkpt>
      <trkpt lat="49.44181" lon="1.15784">
        <ele>87</ele>
        <time>2017-08-01T15:32:56Z</time>
      </trkpt>
      <trkpt lat="49.4418" lon="1.15787">
        <ele>87</ele>
        <time>2017-08-01T15:32:56Z</time>
      </trkpt>
      <trkpt lat="49.44178" lon="1.15791">
        <ele>87</ele>
        <time>2017-08-01T15:32:56Z</time>
      </trkpt>
      <trkpt lat="49.44176" lon="1.158">
        <ele>83</ele>
        <time>2017-08-01T15:33:12Z</time>
      </trkpt>
      <trkpt lat="49.44173" lon="1.15807">
        <ele>83</ele>
        <time>2017-08-01T15:33:12Z</time>
      </trkpt>
      <trkpt lat="49.44169" lon="1.15816">
        <ele>83</ele>
        <time>2017-08-01T15:33:12Z</time>
      </trkpt>
      <trkpt lat="49.44167" lon="1.15821">
        <ele>83</ele>
        <time>2017-08-01T15:33:12Z</time>
      </trkpt>
      <trkpt lat="49.44163" lon="1.15821">
        <ele>83</ele>
        <time>2017-08-01T15:33:28Z</time>
      </trkpt>
      <trkpt lat="49.44161" lon="1.15824">
        <ele>83</ele>
        <time>2017-08-01T15:33:28Z</time>
      </trkpt>
      <trkpt lat="49.44154" lon="1.15831">
        <ele>83</ele>
        <time>2017-08-01T15:33:28Z</time>
      </trkpt>
      <trkpt lat="49.44152" lon="1.15832">
        <ele>83</ele>
        <time>2017-08-01T15:33:28Z</time>
      </trkpt>
      <trkpt lat="49.44151" lon="1.15834">
        <ele>83</ele>
        <time>2017-08-01T15:33:56Z</time>
      </trkpt>
      <trkpt lat="49.44151" lon="1.15834">
        <ele>83</ele>
        <time>2017-08-01T15:33:56Z</time>
      </trkpt>
      <trkpt lat="49.44151" lon="1.15834">
        <ele>83</ele>
        <time>2017-08-01T15:33:56Z</time>
      </trkpt>
      <trkpt lat="49.44149" lon="1.1584">
        <ele>83</ele>
        <time>2017-08-01T15:33:56Z</time>
      </trkpt>
      <trkpt lat="49.44143" lon="1.15852">
        <ele>83</ele>
        <time>2017-08-01T15:33:56Z</time>
      </trkpt>
      <trkpt lat="49.44139" lon="1.15854">
        <ele>83</ele>
        <time>2017-08-01T15:34:12Z</time>
      </trkpt>
      <trkpt lat="49.44132" lon="1.15858">
        <ele>83</ele>
        <time>2017-08-01T15:34:12Z</time>
      </trkpt>
      <trkpt lat="49.44129" lon="1.15859">
        <ele>83</ele>
        <time>2017-08-01T15:34:12Z</time>
      </trkpt>
      <trkpt lat="49.44126" lon="1.15864">
        <ele>83</ele>
        <time>2017-08-01T15:34:12Z</time>
      </trkpt>
      <trkpt lat="49.44122" lon="1.15869">
        <ele>105</ele>
        <time>2017-08-01T15:34:28Z</time>
      </trkpt>
      <trkpt lat="49.44119" lon="1.15874">
        <ele>105</ele>
        <time>2017-08-01T15:34:28Z</time>
      </trkpt>
      <trkpt lat="49.44117" lon="1.15877">
        <ele>99</ele>
        <time>2017-08-01T15:34:28Z</time>
      </trkpt>
      <trkpt lat="49.44112" lon="1.15884">
        <ele>99</ele>
        <time>2017-08-01T15:34:28Z</time>
      </trkpt>
      <trkpt lat="49.4411" lon="1.15887">
        <ele>99</ele>
        <time>2017-08-01T15:34:44Z</time>
      </trkpt>
      <trkpt lat="49.44107" lon="1.15892">
        <ele>99</ele>
        <time>2017-08-01T15:34:44Z</time>
      </trkpt>
      <trkpt lat="49.44103" lon="1.15895">
        <ele>99</ele>
        <time>2017-08-01T15:34:45Z</time>
      </trkpt>
      <trkpt lat="49.441" lon="1.15898">
        <ele>99</ele>
        <time>2017-08-01T15:34:45Z</time>
      </trkpt>
      <trkpt lat="49.44095" lon="1.1591">
        <ele>99</ele>
        <time>2017-08-01T15:35:00Z</time>
      </trkpt>
      <trkpt lat="49.44093" lon="1.15915">
        <ele>99</ele>
        <time>2017-08-01T15:35:00Z</time>
      </trkpt>
      <trkpt lat="49.44089" lon="1.15921">
        <ele>99</ele>
        <time>2017-08-01T15:35:00Z</time>
      </trkpt>
      <trkpt lat="49.44085" lon="1.15929">
        <ele>99</ele>
        <time>2017-08-01T15:35:00Z</time>
      </trkpt>
      <trkpt lat="49.44067" lon="1.15919">
        <ele>99</ele>
        <time>2017-08-01T15:37:28Z</time>
      </trkpt>
      <trkpt lat="49.44066" lon="1.15919">
        <ele>99</ele>
        <time>2017-08-01T15:37:28Z</time>
      </trkpt>
      <trkpt lat="49.44066" lon="1.15919">
        <ele>99</ele>
        <time>2017-08-01T15:37:28Z</time>
      </trkpt>
      <trkpt lat="49.44059" lon="1.15919">
        <ele>99</ele>
        <time>2017-08-01T15:37:28Z</time>
      </trkpt>
      <trkpt lat="49.44056" lon="1.15919">
        <ele>99</ele>
        <time>2017-08-01T15:37:28Z</time>
      </trkpt>
      <trkpt lat="49.44049" lon="1.15919">
        <ele>99</ele>
        <time>2017-08-01T15:37:44Z</time>
      </trkpt>
      <trkpt lat="49.44043" lon="1.15921">
        <ele>99</ele>
        <time>2017-08-01T15:37:44Z</time>
      </trkpt>
      <trkpt lat="49.44041" lon="1.15922">
        <ele>127</ele>
        <time>2017-08-01T15:37:44Z</time>
      </trkpt>
      <trkpt lat="49.4404" lon="1.15924">
        <ele>127</ele>
        <time>2017-08-01T15:37:44Z</time>
      </trkpt>
      <trkpt lat="49.44038" lon="1.15925">
        <ele>127</ele>
        <time>2017-08-01T15:38:00Z</time>
      </trkpt>
      <trkpt lat="49.44035" lon="1.15923">
        <ele>127</ele>
        <time>2017-08-01T15:38:00Z</time>
      </trkpt>
      <trkpt lat="49.44031" lon="1.15922">
        <ele>127</ele>
        <time>2017-08-01T15:38:00Z</time>
      </trkpt>
      <trkpt lat="49.44023" lon="1.15919">
        <ele>127</ele>
        <time>2017-08-01T15:38:00Z</time>
      </trkpt>
      <trkpt lat="49.44018" lon="1.15921">
        <ele>127</ele>
        <time>2017-08-01T15:38:16Z</time>
      </trkpt>
      <trkpt lat="49.44012" lon="1.15922">
        <ele>127</ele>
        <time>2017-08-01T15:38:16Z</time>
      </trkpt>
      <trkpt lat="49.44008" lon="1.15916">
        <ele>127</ele>
        <time>2017-08-01T15:38:16Z</time>
      </trkpt>
      <trkpt lat="49.44008" lon="1.15916">
        <ele>127</ele>
        <time>2017-08-01T15:38:16Z</time>
      </trkpt>
      <trkpt lat="49.44006" lon="1.15915">
        <ele>127</ele>
        <time>2017-08-01T15:38:36Z</time>
      </trkpt>
      <trkpt lat="49.44002" lon="1.15918">
        <ele>127</ele>
        <time>2017-08-01T15:38:36Z</time>
      </trkpt>
      <trkpt lat="49.44" lon="1.1592">
        <ele>127</ele>
        <time>2017-08-01T15:38:36Z</time>
      </trkpt>
      <trkpt lat="49.43998" lon="1.15913">
        <ele>127</ele>
        <time>2017-08-01T15:38:36Z</time>
      </trkpt>
      <trkpt lat="49.43992" lon="1.15911">
        <ele>127</ele>
        <time>2017-08-01T15:38:36Z</time>
      </trkpt>
      <trkpt lat="49.43992" lon="1.15908">
        <ele>127</ele>
        <time>2017-08-01T15:38:52Z</time>
      </trkpt>
      <trkpt lat="49.43987" lon="1.15904">
        <ele>127</ele>
        <time>2017-08-01T15:38:52Z</time>
      </trkpt>
      <trkpt lat="49.43981" lon="1.15902">
        <ele>127</ele>
        <time>2017-08-01T15:38:52Z</time>
      </trkpt>
      <trkpt lat="49.43978" lon="1.159">
        <ele>127</ele>
        <time>2017-08-01T15:38:52Z</time>
      </trkpt>
      <trkpt lat="49.43967" lon="1.15891">
        <ele>127</ele>
        <time>2017-08-01T15:39:24Z</time>
      </trkpt>
      <trkpt lat="49.43964" lon="1.15887">
        <ele>127</ele>
        <time>2017-08-01T15:39:24Z</time>
      </trkpt>
      <trkpt lat="49.43963" lon="1.15885">
        <ele>127</ele>
        <time>2017-08-01T15:39:24Z</time>
      </trkpt>
      <trkpt lat="49.43962" lon="1.15884">
        <ele>127</ele>
        <time>2017-08-01T15:39:24Z</time>
      </trkpt>
      <trkpt lat="49.43961" lon="1.15884">
        <ele>127</ele>
        <time>2017-08-01T15:39:24Z</time>
      </trkpt>
      <trkpt lat="49.43961" lon="1.15884">
        <ele>127</ele>
        <time>2017-08-01T15:39:48Z</time>
      </trkpt>
      <trkpt lat="49.43961" lon="1.15884">
        <ele>127</ele>
        <time>2017-08-01T15:39:48Z</time>
      </trkpt>
      <trkpt lat="49.4396" lon="1.15884">
        <ele>127</ele>
        <time>2017-08-01T15:39:48Z</time>
      </trkpt>
      <trkpt lat="49.43956" lon="1.15885">
        <ele>138</ele>
        <time>2017-08-01T15:39:48Z</time>
      </trkpt>
      <trkpt lat="49.4395" lon="1.15883">
        <ele>138</ele>
        <time>2017-08-01T15:39:48Z</time>
      </trkpt>
      <trkpt lat="49.43944" lon="1.15881">
        <ele>138</ele>
        <time>2017-08-01T15:40:04Z</time>
      </trkpt>
      <trkpt lat="49.43941" lon="1.15878">
        <ele>138</ele>
        <time>2017-08-01T15:40:04Z</time>
      </trkpt>
      <trkpt lat="49.43935" lon="1.15872">
        <ele>134</ele>
        <time>2017-08-01T15:40:04Z</time>
      </trkpt>
      <trkpt lat="49.43934" lon="1.15865">
        <ele>134</ele>
        <time>2017-08-01T15:40:04Z</time>
      </trkpt>
      <trkpt lat="49.4393" lon="1.15866">
        <ele>134</ele>
        <time>2017-08-01T15:40:20Z</time>
      </trkpt>
      <trkpt lat="49.43927" lon="1.15852">
        <ele>134</ele>
        <time>2017-08-01T15:40:20Z</time>
      </trkpt>
      <trkpt lat="49.43922" lon="1.15841">
        <ele>134</ele>
        <time>2017-08-01T15:40:20Z</time>
      </trkpt>
      <trkpt lat="49.43918" lon="1.15841">
        <ele>134</ele>
        <time>2017-08-01T15:40:20Z</time>
      </trkpt>
      <trkpt lat="49.43911" lon="1.15817">
        <ele>134</ele>
        <time>2017-08-01T15:40:52Z</time>
      </trkpt>
      <trkpt lat="49.4391" lon="1.15815">
        <ele>134</ele>
        <time>2017-08-01T15:40:52Z</time>
      </trkpt>
      <trkpt lat="49.43911" lon="1.15814">
        <ele>134</ele>
        <time>2017-08-01T15:40:52Z</time>
      </trkpt>
      <trkpt lat="49.43911" lon="1.15814">
        <ele>134</ele>
        <time>2017-08-01T15:40:52Z</time>
      </trkpt>
      <trkpt lat="49.43911" lon="1.15805">
        <ele>134</ele>
        <time>2017-08-01T15:40:52Z</time>
      </trkpt>
      <trkpt lat="49.43903" lon="1.15789">
        <ele>134</ele>
        <time>2017-08-01T15:41:32Z</time>
      </trkpt>
      <trkpt lat="49.43902" lon="1.15789">
        <ele>134</ele>
        <time>2017-08-01T15:41:32Z</time>
      </trkpt>
      <trkpt lat="49.43901" lon="1.15789">
        <ele>134</ele>
        <time>2017-08-01T15:41:32Z</time>
      </trkpt>
      <trkpt lat="49.439" lon="1.15788">
        <ele>134</ele>
        <time>2017-08-01T15:41:32Z</time>
      </trkpt>
      <trkpt lat="49.439" lon="1.15788">
        <ele>134</ele>
        <time>2017-08-01T15:41:32Z</time>
      </trkpt>
      <trkpt lat="49.43896" lon="1.15793">
        <ele>134</ele>
        <time>2017-08-01T15:43:12Z</time>
      </trkpt>
      <trkpt lat="49.43893" lon="1.15792">
        <ele>134</ele>
        <time>2017-08-01T15:43:12Z</time>
      </trkpt>
      <trkpt lat="49.43889" lon="1.15792">
        <ele>134</ele>
        <time>2017-08-01T15:43:12Z</time>
      </trkpt>
      <trkpt lat="49.43887" lon="1.15792">
        <ele>134</ele>
        <time>2017-08-01T15:43:12Z</time>
      </trkpt>
      <trkpt lat="49.43882" lon="1.15789">
        <ele>134</ele>
        <time>2017-08-01T15:43:12Z</time>
      </trkpt>
      <trkpt lat="49.43878" lon="1.15787">
        <ele>134</ele>
        <time>2017-08-01T15:43:28Z</time>
      </trkpt>
      <trkpt lat="49.43873" lon="1.15786">
        <ele>134</ele>
        <time>2017-08-01T15:43:28Z</time>
      </trkpt>
      <trkpt lat="49.43868" lon="1.15782">
        <ele>134</ele>
        <time>2017-08-01T15:43:28Z</time>
      </trkpt>
      <trkpt lat="49.43864" lon="1.15783">
        <ele>134</ele>
        <time>2017-08-01T15:43:28Z</time>
      </trkpt>
      <trkpt lat="49.43859" lon="1.15785">
        <ele>134</ele>
        <time>2017-08-01T15:43:44Z</time>
      </trkpt>
      <trkpt lat="49.43854" lon="1.15786">
        <ele>134</ele>
        <time>2017-08-01T15:43:44Z</time>
      </trkpt>
      <trkpt lat="49.43848" lon="1.15785">
        <ele>134</ele>
        <time>2017-08-01T15:43:44Z</time>
      </trkpt>
      <trkpt lat="49.43841" lon="1.15789">
        <ele>134</ele>
        <time>2017-08-01T15:43:44Z</time>
      </trkpt>
      <trkpt lat="49.43833" lon="1.15795">
        <ele>135</ele>
        <time>2017-08-01T15:44:00Z</time>
      </trkpt>
      <trkpt lat="49.43833" lon="1.15792">
        <ele>135</ele>
        <time>2017-08-01T15:44:00Z</time>
      </trkpt>
      <trkpt lat="49.43829" lon="1.15792">
        <ele>134</ele>
        <time>2017-08-01T15:44:00Z</time>
      </trkpt>
      <trkpt lat="49.43825" lon="1.15789">
        <ele>134</ele>
        <time>2017-08-01T15:44:00Z</time>
      </trkpt>
      <trkpt lat="49.4382" lon="1.15786">
        <ele>134</ele>
        <time>2017-08-01T15:44:16Z</time>
      </trkpt>
      <trkpt lat="49.43814" lon="1.15787">
        <ele>134</ele>
        <time>2017-08-01T15:44:16Z</time>
      </trkpt>
      <trkpt lat="49.43811" lon="1.15784">
        <ele>134</ele>
        <time>2017-08-01T15:44:16Z</time>
      </trkpt>
      <trkpt lat="49.43807" lon="1.15783">
        <ele>134</ele>
        <time>2017-08-01T15:44:16Z</time>
      </trkpt>
      <trkpt lat="49.43799" lon="1.15776">
        <ele>134</ele>
        <time>2017-08-01T15:44:32Z</time>
      </trkpt>
      <trkpt lat="49.43795" lon="1.15777">
        <ele>134</ele>
        <time>2017-08-01T15:44:32Z</time>
      </trkpt>
      <trkpt lat="49.43791" lon="1.15772">
        <ele>135</ele>
        <time>2017-08-01T15:44:32Z</time>
      </trkpt>
      <trkpt lat="49.43788" lon="1.15767">
        <ele>135</ele>
        <time>2017-08-01T15:44:32Z</time>
      </trkpt>
      <trkpt lat="49.43778" lon="1.15766">
        <ele>135</ele>
        <time>2017-08-01T15:44:48Z</time>
      </trkpt>
      <trkpt lat="49.43779" lon="1.15771">
        <ele>135</ele>
        <time>2017-08-01T15:44:48Z</time>
      </trkpt>
      <trkpt lat="49.43772" lon="1.15771">
        <ele>135</ele>
        <time>2017-08-01T15:44:48Z</time>
      </trkpt>
      <trkpt lat="49.43769" lon="1.15773">
        <ele>135</ele>
        <time>2017-08-01T15:44:48Z</time>
      </trkpt>
      <trkpt lat="49.43765" lon="1.1577">
        <ele>135</ele>
        <time>2017-08-01T15:45:04Z</time>
      </trkpt>
      <trkpt lat="49.43759" lon="1.15768">
        <ele>135</ele>
        <time>2017-08-01T15:45:04Z</time>
      </trkpt>
      <trkpt lat="49.43757" lon="1.1577">
        <ele>135</ele>
        <time>2017-08-01T15:45:04Z</time>
      </trkpt>
      <trkpt lat="49.43748" lon="1.15767">
        <ele>135</ele>
        <time>2017-08-01T15:45:04Z</time>
      </trkpt>
      <trkpt lat="49.43739" lon="1.15772">
        <ele>135</ele>
        <time>2017-08-01T15:45:20Z</time>
      </trkpt>
      <trkpt lat="49.43737" lon="1.15771">
        <ele>135</ele>
        <time>2017-08-01T15:45:20Z</time>
      </trkpt>
      <trkpt lat="49.43733" lon="1.1577">
        <ele>135</ele>
        <time>2017-08-01T15:45:20Z</time>
      </trkpt>
      <trkpt lat="49.43726" lon="1.15772">
        <ele>135</ele>
        <time>2017-08-01T15:45:20Z</time>
      </trkpt>
      <trkpt lat="49.43721" lon="1.15767">
        <ele>135</ele>
        <time>2017-08-01T15:45:36Z</time>
      </trkpt>
      <trkpt lat="49.43715" lon="1.15768">
        <ele>135</ele>
        <time>2017-08-01T15:45:36Z</time>
      </trkpt>
      <trkpt lat="49.43709" lon="1.15769">
        <ele>135</ele>
        <time>2017-08-01T15:45:36Z</time>
      </trkpt>
      <trkpt lat="49.43702" lon="1.15776">
        <ele>139</ele>
        <time>2017-08-01T15:45:36Z</time>
      </trkpt>
      <trkpt lat="49.43701" lon="1.15775">
        <ele>139</ele>
        <time>2017-08-01T15:45:56Z</time>
      </trkpt>
      <trkpt lat="49.43699" lon="1.15776">
        <ele>139</ele>
        <time>2017-08-01T15:45:56Z</time>
      </trkpt>
      <trkpt lat="49.43698" lon="1.1578">
        <ele>139</ele>
        <time>2017-08-01T15:45:56Z</time>
      </trkpt>
      <trkpt lat="49.43695" lon="1.15781">
        <ele>139</ele>
        <time>2017-08-01T15:45:56Z</time>
      </trkpt>
      <trkpt lat="49.43691" lon="1.15784">
        <ele>139</ele>
        <time>2017-08-01T15:45:56Z</time>
      </trkpt>
      <trkpt lat="49.43686" lon="1.15784">
        <ele>139</ele>
        <time>2017-08-01T15:46:12Z</time>
      </trkpt>
      <trkpt lat="49.43684" lon="1.15786">
        <ele>139</ele>
        <time>2017-08-01T15:46:12Z</time>
      </trkpt>
      <trkpt lat="49.43677" lon="1.15789">
        <ele>139</ele>
        <time>2017-08-01T15:46:12Z</time>
      </trkpt>
      <trkpt lat="49.43673" lon="1.15793">
        <ele>140</ele>
        <time>2017-08-01T15:46:12Z</time>
      </trkpt>
      <trkpt lat="49.43668" lon="1.15796">
        <ele>140</ele>
        <time>2017-08-01T15:46:28Z</time>
      </trkpt>
      <trkpt lat="49.43664" lon="1.15799">
        <ele>140</ele>
        <time>2017-08-01T15:46:28Z</time>
      </trkpt>
      <trkpt lat="49.43659" lon="1.15799">
        <ele>140</ele>
        <time>2017-08-01T15:46:28Z</time>
      </trkpt>
      <trkpt lat="49.43656" lon="1.15799">
        <ele>140</ele>
        <time>2017-08-01T15:46:28Z</time>
      </trkpt>
      <trkpt lat="49.4365" lon="1.15799">
        <ele>140</ele>
        <time>2017-08-01T15:46:44Z</time>
      </trkpt>
      <trkpt lat="49.43644" lon="1.15808">
        <ele>140</ele>
        <time>2017-08-01T15:46:44Z</time>
      </trkpt>
      <trkpt lat="49.43638" lon="1.15814">
        <ele>140</ele>
        <time>2017-08-01T15:46:44Z</time>
      </trkpt>
      <trkpt lat="49.43636" lon="1.15821">
        <ele>140</ele>
        <time>2017-08-01T15:46:44Z</time>
      </trkpt>
      <trkpt lat="49.43634" lon="1.15823">
        <ele>140</ele>
        <time>2017-08-01T15:47:00Z</time>
      </trkpt>
      <trkpt lat="49.43632" lon="1.15805">
        <ele>140</ele>
        <time>2017-08-01T15:47:00Z</time>
      </trkpt>
      <trkpt lat="49.43636" lon="1.15799">
        <ele>140</ele>
        <time>2017-08-01T15:47:00Z</time>
      </trkpt>
      <trkpt lat="49.43639" lon="1.158">
        <ele>140</ele>
        <time>2017-08-01T15:47:00Z</time>
      </trkpt>
      <trkpt lat="49.43639" lon="1.15805">
        <ele>140</ele>
        <time>2017-08-01T15:47:48Z</time>
      </trkpt>
      <trkpt lat="49.43639" lon="1.15805">
        <ele>140</ele>
        <time>2017-08-01T15:47:48Z</time>
      </trkpt>
      <trkpt lat="49.43639" lon="1.15805">
        <ele>140</ele>
        <time>2017-08-01T15:47:48Z</time>
      </trkpt>
      <trkpt lat="49.43639" lon="1.15806">
        <ele>140</ele>
        <time>2017-08-01T15:47:48Z</time>
      </trkpt>
      <trkpt lat="49.43634" lon="1.15824">
        <ele>140</ele>
        <time>2017-08-01T15:47:48Z</time>
      </trkpt>
      <trkpt lat="49.43626" lon="1.15833">
        <ele>140</ele>
        <time>2017-08-01T15:48:04Z</time>
      </trkpt>
      <trkpt lat="49.43622" lon="1.15844">
        <ele>127</ele>
        <time>2017-08-01T15:48:04Z</time>
      </trkpt>
      <trkpt lat="49.43617" lon="1.15851">
        <ele>127</ele>
        <time>2017-08-01T15:48:04Z</time>
      </trkpt>
      <trkpt lat="49.43612" lon="1.15854">
        <ele>127</ele>
        <time>2017-08-01T15:48:04Z</time>
      </trkpt>
      <trkpt lat="49.43609" lon="1.15867">
        <ele>127</ele>
        <time>2017-08-01T15:48:28Z</time>
      </trkpt>
      <trkpt lat="49.43607" lon="1.15868">
        <ele>127</ele>
        <time>2017-08-01T15:48:28Z</time>
      </trkpt>
      <trkpt lat="49.43604" lon="1.15869">
        <ele>127</ele>
        <time>2017-08-01T15:48:28Z</time>
      </trkpt>
      <trkpt lat="49.43603" lon="1.15871">
        <ele>127</ele>
        <time>2017-08-01T15:48:28Z</time>
      </trkpt>
      <trkpt lat="49.43596" lon="1.15884">
        <ele>132</ele>
        <time>2017-08-01T15:48:28Z</time>
      </trkpt>
      <trkpt lat="49.43592" lon="1.15892">
        <ele>132</ele>
        <time>2017-08-01T15:48:44Z</time>
      </trkpt>
      <trkpt lat="49.43589" lon="1.15898">
        <ele>132</ele>
        <time>2017-08-01T15:48:44Z</time>
      </trkpt>
      <trkpt lat="49.43585" lon="1.15905">
        <ele>132</ele>
        <time>2017-08-01T15:48:44Z</time>
      </trkpt>
      <trkpt lat="49.43581" lon="1.15905">
        <ele>132</ele>
        <time>2017-08-01T15:48:44Z</time>
      </trkpt>
      <trkpt lat="49.43573" lon="1.15916">
        <ele>132</ele>
        <time>2017-08-01T15:49:20Z</time>
      </trkpt>
      <trkpt lat="49.43573" lon="1.15916">
        <ele>132</ele>
        <time>2017-08-01T15:49:20Z</time>
      </trkpt>
      <trkpt lat="49.43573" lon="1.15917">
        <ele>132</ele>
        <time>2017-08-01T15:49:20Z</time>
      </trkpt>
      <trkpt lat="49.43573" lon="1.15917">
        <ele>132</ele>
        <time>2017-08-01T15:49:20Z</time>
      </trkpt>
      <trkpt lat="49.43567" lon="1.1592">
        <ele>132</ele>
        <time>2017-08-01T15:49:20Z</time>
      </trkpt>
      <trkpt lat="49.43564" lon="1.15923">
        <ele>132</ele>
        <time>2017-08-01T15:49:36Z</time>
      </trkpt>
      <trkpt lat="49.4356" lon="1.15929">
        <ele>132</ele>
        <time>2017-08-01T15:49:36Z</time>
      </trkpt>
      <trkpt lat="49.43556" lon="1.1594">
        <ele>132</ele>
        <time>2017-08-01T15:49:36Z</time>
      </trkpt>
      <trkpt lat="49.43549" lon="1.15942">
        <ele>132</ele>
        <time>2017-08-01T15:49:36Z</time>
      </trkpt>
      <trkpt lat="49.43544" lon="1.15953">
        <ele>132</ele>
        <time>2017-08-01T15:50:00Z</time>
      </trkpt>
      <trkpt lat="49.43541" lon="1.15957">
        <ele>109</ele>
        <time>2017-08-01T15:50:00Z</time>
      </trkpt>
      <trkpt lat="49.4354" lon="1.15963">
        <ele>119</ele>
        <time>2017-08-01T15:50:00Z</time>
      </trkpt>
      <trkpt lat="49.43537" lon="1.15963">
        <ele>119</ele>
        <time>2017-08-01T15:50:00Z</time>
      </trkpt>
      <trkpt lat="49.43533" lon="1.15967">
        <ele>119</ele>
        <time>2017-08-01T15:50:00Z</time>
      </trkpt>
      <trkpt lat="49.43528" lon="1.15966">
        <ele>119</ele>
        <time>2017-08-01T15:50:36Z</time>
      </trkpt>
      <trkpt lat="49.43526" lon="1.15967">
        <ele>119</ele>
        <time>2017-08-01T15:50:36Z</time>
      </trkpt>
      <trkpt lat="49.43524" lon="1.15968">
        <ele>119</ele>
        <time>2017-08-01T15:50:36Z</time>
      </trkpt>
      <trkpt lat="49.43521" lon="1.15968">
        <ele>119</ele>
        <time>2017-08-01T15:50:36Z</time>
      </trkpt>
      <trkpt lat="49.4352" lon="1.15968">
        <ele>119</ele>
        <time>2017-08-01T15:50:36Z</time>
      </trkpt>
      <trkpt lat="49.43512" lon="1.15959">
        <ele>119</ele>
        <time>2017-08-01T15:52:12Z</time>
      </trkpt>
      <trkpt lat="49.43512" lon="1.15959">
        <ele>119</ele>
        <time>2017-08-01T15:52:12Z</time>
      </trkpt>
      <trkpt lat="49.43512" lon="1.15959">
        <ele>119</ele>
        <time>2017-08-01T15:52:12Z</time>
      </trkpt>
      <trkpt lat="49.43512" lon="1.15959">
        <ele>119</ele>
        <time>2017-08-01T15:52:12Z</time>
      </trkpt>
      <trkpt lat="49.43512" lon="1.15959">
        <ele>119</ele>
        <time>2017-08-01T15:52:12Z</time>
      </trkpt>
      <trkpt lat="49.4351" lon="1.15971">
        <ele>119</ele>
        <time>2017-08-01T15:52:28Z</time>
      </trkpt>
      <trkpt lat="49.43507" lon="1.15981">
        <ele>119</ele>
        <time>2017-08-01T15:52:28Z</time>
      </trkpt>
      <trkpt lat="49.43502" lon="1.15991">
        <ele>119</ele>
        <time>2017-08-01T15:52:28Z</time>
      </trkpt>
      <trkpt lat="49.43501" lon="1.15999">
        <ele>119</ele>
        <time>2017-08-01T15:52:28Z</time>
      </trkpt>
      <trkpt lat="49.43498" lon="1.16004">
        <ele>119</ele>
        <time>2017-08-01T15:52:44Z</time>
      </trkpt>
      <trkpt lat="49.43497" lon="1.16006">
        <ele>119</ele>
        <time>2017-08-01T15:52:44Z</time>
      </trkpt>
      <trkpt lat="49.43495" lon="1.16012">
        <ele>119</ele>
        <time>2017-08-01T15:52:44Z</time>
      </trkpt>
      <trkpt lat="49.43494" lon="1.16018">
        <ele>119</ele>
        <time>2017-08-01T15:52:44Z</time>
      </trkpt>
      <trkpt lat="49.43493" lon="1.16021">
        <ele>119</ele>
        <time>2017-08-01T15:53:00Z</time>
      </trkpt>
      <trkpt lat="49.43492" lon="1.16028">
        <ele>119</ele>
        <time>2017-08-01T15:53:00Z</time>
      </trkpt>
      <trkpt lat="49.43491" lon="1.16038">
        <ele>119</ele>
        <time>2017-08-01T15:53:00Z</time>
      </trkpt>
      <trkpt lat="49.43489" lon="1.16047">
        <ele>122</ele>
        <time>2017-08-01T15:53:00Z</time>
      </trkpt>
      <trkpt lat="49.43489" lon="1.16052">
        <ele>122</ele>
        <time>2017-08-01T15:53:16Z</time>
      </trkpt>
      <trkpt lat="49.43488" lon="1.16055">
        <ele>122</ele>
        <time>2017-08-01T15:53:16Z</time>
      </trkpt>
      <trkpt lat="49.43488" lon="1.16056">
        <ele>122</ele>
        <time>2017-08-01T15:53:16Z</time>
      </trkpt>
      <trkpt lat="49.43485" lon="1.1607">
        <ele>122</ele>
        <time>2017-08-01T15:53:16Z</time>
      </trkpt>
      <trkpt lat="49.4348" lon="1.16082">
        <ele>122</ele>
        <time>2017-08-01T15:53:32Z</time>
      </trkpt>
      <trkpt lat="49.43476" lon="1.16087">
        <ele>122</ele>
        <time>2017-08-01T15:53:32Z</time>
      </trkpt>
      <trkpt lat="49.43473" lon="1.16093">
        <ele>122</ele>
        <time>2017-08-01T15:53:32Z</time>
      </trkpt>
      <trkpt lat="49.4347" lon="1.16099">
        <ele>122</ele>
        <time>2017-08-01T15:53:32Z</time>
      </trkpt>
      <trkpt lat="49.43469" lon="1.16102">
        <ele>122</ele>
        <time>2017-08-01T15:53:48Z</time>
      </trkpt>
      <trkpt lat="49.43468" lon="1.16113">
        <ele>122</ele>
        <time>2017-08-01T15:53:48Z</time>
      </trkpt>
      <trkpt lat="49.43467" lon="1.16121">
        <ele>122</ele>
        <time>2017-08-01T15:53:48Z</time>
      </trkpt>
      <trkpt lat="49.43467" lon="1.16125">
        <ele>122</ele>
        <time>2017-08-01T15:53:48Z</time>
      </trkpt>
      <trkpt lat="49.43468" lon="1.16129">
        <ele>127</ele>
        <time>2017-08-01T15:54:04Z</time>
      </trkpt>
      <trkpt lat="49.43465" lon="1.16139">
        <ele>127</ele>
        <time>2017-08-01T15:54:04Z</time>
      </trkpt>
      <trkpt lat="49.43461" lon="1.16149">
        <ele>127</ele>
        <time>2017-08-01T15:54:04Z</time>
      </trkpt>
      <trkpt lat="49.43462" lon="1.16153">
        <ele>127</ele>
        <time>2017-08-01T15:54:04Z</time>
      </trkpt>
      <trkpt lat="49.4346" lon="1.16158">
        <ele>127</ele>
        <time>2017-08-01T15:54:20Z</time>
      </trkpt>
      <trkpt lat="49.43461" lon="1.16163">
        <ele>127</ele>
        <time>2017-08-01T15:54:20Z</time>
      </trkpt>
      <trkpt lat="49.43458" lon="1.16172">
        <ele>96</ele>
        <time>2017-08-01T15:54:20Z</time>
      </trkpt>
      <trkpt lat="49.43456" lon="1.16177">
        <ele>96</ele>
        <time>2017-08-01T15:54:20Z</time>
      </trkpt>
      <trkpt lat="49.43454" lon="1.16186">
        <ele>96</ele>
        <time>2017-08-01T15:54:36Z</time>
      </trkpt>
      <trkpt lat="49.4345" lon="1.16189">
        <ele>96</ele>
        <time>2017-08-01T15:54:36Z</time>
      </trkpt>
      <trkpt lat="49.43449" lon="1.16193">
        <ele>96</ele>
        <time>2017-08-01T15:54:36Z</time>
      </trkpt>
      <trkpt lat="49.43445" lon="1.16201">
        <ele>96</ele>
        <time>2017-08-01T15:54:36Z</time>
      </trkpt>
      <trkpt lat="49.43446" lon="1.16204">
        <ele>96</ele>
        <time>2017-08-01T15:54:52Z</time>
      </trkpt>
      <trkpt lat="49.43446" lon="1.16211">
        <ele>99</ele>
        <time>2017-08-01T15:54:52Z</time>
      </trkpt>
      <trkpt lat="49.43441" lon="1.16225">
        <ele>99</ele>
        <time>2017-08-01T15:54:52Z</time>
      </trkpt>
      <trkpt lat="49.43438" lon="1.16231">
        <ele>99</ele>
        <time>2017-08-01T15:54:52Z</time>
      </trkpt>
      <trkpt lat="49.43442" lon="1.16239">
        <ele>99</ele>
        <time>2017-08-01T15:55:08Z</time>
      </trkpt>
      <trkpt lat="49.4344" lon="1.16246">
        <ele>99</ele>
        <time>2017-08-01T15:55:08Z</time>
      </trkpt>
      <trkpt lat="49.43442" lon="1.16253">
        <ele>99</ele>
        <time>2017-08-01T15:55:08Z</time>
      </trkpt>
      <trkpt lat="49.43439" lon="1.16261">
        <ele>99</ele>
        <time>2017-08-01T15:55:08Z</time>
      </trkpt>
      <trkpt lat="49.43439" lon="1.16267">
        <ele>99</ele>
        <time>2017-08-01T15:55:28Z</time>
      </trkpt>
      <trkpt lat="49.43439" lon="1.16273">
        <ele>99</ele>
        <time>2017-08-01T15:55:28Z</time>
      </trkpt>
      <trkpt lat="49.43439" lon="1.16277">
        <ele>99</ele>
        <time>2017-08-01T15:55:28Z</time>
      </trkpt>
      <trkpt lat="49.43438" lon="1.16279">
        <ele>99</ele>
        <time>2017-08-01T15:55:28Z</time>
      </trkpt>
      <trkpt lat="49.43437" lon="1.16281">
        <ele>99</ele>
        <time>2017-08-01T15:55:28Z</time>
      </trkpt>
      <trkpt lat="49.43437" lon="1.16282">
        <ele>99</ele>
        <time>2017-08-01T15:55:44Z</time>
      </trkpt>
      <trkpt lat="49.43436" lon="1.16288">
        <ele>99</ele>
        <time>2017-08-01T15:55:44Z</time>
      </trkpt>
      <trkpt lat="49.43434" lon="1.16299">
        <ele>99</ele>
        <time>2017-08-01T15:55:44Z</time>
      </trkpt>
      <trkpt lat="49.43432" lon="1.16318">
        <ele>99</ele>
        <time>2017-08-01T15:55:44Z</time>
      </trkpt>
      <trkpt lat="49.43433" lon="1.16321">
        <ele>99</ele>
        <time>2017-08-01T15:56:00Z</time>
      </trkpt>
      <trkpt lat="49.43436" lon="1.16327">
        <ele>99</ele>
        <time>2017-08-01T15:56:00Z</time>
      </trkpt>
      <trkpt lat="49.43436" lon="1.16336">
        <ele>99</ele>
        <time>2017-08-01T15:56:00Z</time>
      </trkpt>
      <trkpt lat="49.43433" lon="1.16341">
        <ele>99</ele>
        <time>2017-08-01T15:56:00Z</time>
      </trkpt>
      <trkpt lat="49.43429" lon="1.16347">
        <ele>99</ele>
        <time>2017-08-01T15:56:32Z</time>
      </trkpt>
      <trkpt lat="49.4343" lon="1.16348">
        <ele>99</ele>
        <time>2017-08-01T15:56:32Z</time>
      </trkpt>
      <trkpt lat="49.4343" lon="1.16349">
        <ele>99</ele>
        <time>2017-08-01T15:56:32Z</time>
      </trkpt>
      <trkpt lat="49.4343" lon="1.16349">
        <ele>99</ele>
        <time>2017-08-01T15:56:32Z</time>
      </trkpt>
      <trkpt lat="49.43432" lon="1.16357">
        <ele>99</ele>
        <time>2017-08-01T15:56:32Z</time>
      </trkpt>
      <trkpt lat="49.43434" lon="1.16371">
        <ele>99</ele>
        <time>2017-08-01T15:56:56Z</time>
      </trkpt>
      <trkpt lat="49.43433" lon="1.16372">
        <ele>99</ele>
        <time>2017-08-01T15:56:56Z</time>
      </trkpt>
      <trkpt lat="49.43435" lon="1.16376">
        <ele>105</ele>
        <time>2017-08-01T15:56:56Z</time>
      </trkpt>
      <trkpt lat="49.43434" lon="1.16378">
        <ele>105</ele>
        <time>2017-08-01T15:56:56Z</time>
      </trkpt>
      <trkpt lat="49.43435" lon="1.16381">
        <ele>105</ele>
        <time>2017-08-01T15:56:56Z</time>
      </trkpt>
      <trkpt lat="49.43435" lon="1.16382">
        <ele>105</ele>
        <time>2017-08-01T15:57:20Z</time>
      </trkpt>
      <trkpt lat="49.43437" lon="1.1639">
        <ele>105</ele>
        <time>2017-08-01T15:57:20Z</time>
      </trkpt>
      <trkpt lat="49.43432" lon="1.16404">
        <ele>105</ele>
        <time>2017-08-01T15:57:20Z</time>
      </trkpt>
      <trkpt lat="49.43433" lon="1.16415">
        <ele>105</ele>
        <time>2017-08-01T15:57:20Z</time>
      </trkpt>
      <trkpt lat="49.43431" lon="1.16426">
        <ele>105</ele>
        <time>2017-08-01T15:57:20Z</time>
      </trkpt>
      <trkpt lat="49.4343" lon="1.16436">
        <ele>105</ele>
        <time>2017-08-01T15:57:36Z</time>
      </trkpt>
      <trkpt lat="49.43431" lon="1.16441">
        <ele>105</ele>
        <time>2017-08-01T15:57:36Z</time>
      </trkpt>
      <trkpt lat="49.43432" lon="1.16449">
        <ele>105</ele>
        <time>2017-08-01T15:57:36Z</time>
      </trkpt>
      <trkpt lat="49.43429" lon="1.16453">
        <ele>105</ele>
        <time>2017-08-01T15:57:36Z</time>
      </trkpt>
      <trkpt lat="49.43429" lon="1.16459">
        <ele>110</ele>
        <time>2017-08-01T15:58:00Z</time>
      </trkpt>
      <trkpt lat="49.43428" lon="1.1646">
        <ele>110</ele>
        <time>2017-08-01T15:58:00Z</time>
      </trkpt>
      <trkpt lat="49.43428" lon="1.16462">
        <ele>110</ele>
        <time>2017-08-01T15:58:00Z</time>
      </trkpt>
      <trkpt lat="49.43428" lon="1.16463">
        <ele>110</ele>
        <time>2017-08-01T15:58:00Z</time>
      </trkpt>
      <trkpt lat="49.43426" lon="1.16471">
        <ele>110</ele>
        <time>2017-08-01T15:58:00Z</time>
      </trkpt>
      <trkpt lat="49.43424" lon="1.16481">
        <ele>110</ele>
        <time>2017-08-01T15:58:16Z</time>
      </trkpt>
      <trkpt lat="49.43427" lon="1.16485">
        <ele>110</ele>
        <time>2017-08-01T15:58:16Z</time>
      </trkpt>
      <trkpt lat="49.43425" lon="1.16493">
        <ele>110</ele>
        <time>2017-08-01T15:58:16Z</time>
      </trkpt>
      <trkpt lat="49.43424" lon="1.165">
        <ele>110</ele>
        <time>2017-08-01T15:58:16Z</time>
      </trkpt>
      <trkpt lat="49.4342" lon="1.16508">
        <ele>110</ele>
        <time>2017-08-01T15:58:32Z</time>
      </trkpt>
      <trkpt lat="49.43417" lon="1.1652">
        <ele>110</ele>
        <time>2017-08-01T15:58:32Z</time>
      </trkpt>
      <trkpt lat="49.43414" lon="1.16528">
        <ele>110</ele>
        <time>2017-08-01T15:58:32Z</time>
      </trkpt>
      <trkpt lat="49.43412" lon="1.16535">
        <ele>110</ele>
        <time>2017-08-01T15:58:32Z</time>
      </trkpt>
      <trkpt lat="49.43411" lon="1.16541">
        <ele>110</ele>
        <time>2017-08-01T15:58:48Z</time>
      </trkpt>
      <trkpt lat="49.43412" lon="1.16548">
        <ele>111</ele>
        <time>2017-08-01T15:58:48Z</time>
      </trkpt>
      <trkpt lat="49.43415" lon="1.16555">
        <ele>111</ele>
        <time>2017-08-01T15:58:48Z</time>
      </trkpt>
      <trkpt lat="49.43419" lon="1.1656">
        <ele>111</ele>
        <time>2017-08-01T15:58:48Z</time>
      </trkpt>
      <trkpt lat="49.43419" lon="1.16563">
        <ele>111</ele>
        <time>2017-08-01T15:59:04Z</time>
      </trkpt>
      <trkpt lat="49.43417" lon="1.16566">
        <ele>111</ele>
        <time>2017-08-01T15:59:04Z</time>
      </trkpt>
      <trkpt lat="49.43417" lon="1.16575">
        <ele>111</ele>
        <time>2017-08-01T15:59:04Z</time>
      </trkpt>
      <trkpt lat="49.43419" lon="1.16577">
        <ele>111</ele>
        <time>2017-08-01T15:59:04Z</time>
      </trkpt>
      <trkpt lat="49.43419" lon="1.16583">
        <ele>111</ele>
        <time>2017-08-01T15:59:20Z</time>
      </trkpt>
      <trkpt lat="49.43421" lon="1.16589">
        <ele>111</ele>
        <time>2017-08-01T15:59:20Z</time>
      </trkpt>
      <trkpt lat="49.43418" lon="1.16596">
        <ele>111</ele>
        <time>2017-08-01T15:59:20Z</time>
      </trkpt>
      <trkpt lat="49.43419" lon="1.16599">
        <ele>111</ele>
        <time>2017-08-01T15:59:20Z</time>
      </trkpt>
      <trkpt lat="49.43419" lon="1.16603">
        <ele>111</ele>
        <time>2017-08-01T15:59:36Z</time>
      </trkpt>
      <trkpt lat="49.43419" lon="1.16615">
        <ele>111</ele>
        <time>2017-08-01T15:59:36Z</time>
      </trkpt>
      <trkpt lat="49.43417" lon="1.16621">
        <ele>111</ele>
        <time>2017-08-01T15:59:36Z</time>
      </trkpt>
      <trkpt lat="49.4342" lon="1.16631">
        <ele>103</ele>
        <time>2017-08-01T15:59:36Z</time>
      </trkpt>
      <trkpt lat="49.43425" lon="1.16634">
        <ele>103</ele>
        <time>2017-08-01T15:59:52Z</time>
      </trkpt>
      <trkpt lat="49.43426" lon="1.16642">
        <ele>103</ele>
        <time>2017-08-01T15:59:52Z</time>
      </trkpt>
      <trkpt lat="49.43426" lon="1.16646">
        <ele>103</ele>
        <time>2017-08-01T15:59:52Z</time>
      </trkpt>
      <trkpt lat="49.43427" lon="1.16649">
        <ele>103</ele>
        <time>2017-08-01T15:59:52Z</time>
      </trkpt>
      <trkpt lat="49.4343" lon="1.16667">
        <ele>103</ele>
        <time>2017-08-01T16:01:28Z</time>
      </trkpt>
      <trkpt lat="49.4343" lon="1.16667">
        <ele>103</ele>
        <time>2017-08-01T16:01:28Z</time>
      </trkpt>
      <trkpt lat="49.4343" lon="1.16667">
        <ele>103</ele>
        <time>2017-08-01T16:01:28Z</time>
      </trkpt>
      <trkpt lat="49.43431" lon="1.16667">
        <ele>103</ele>
        <time>2017-08-01T16:01:28Z</time>
      </trkpt>
      <trkpt lat="49.43434" lon="1.16668">
        <ele>103</ele>
        <time>2017-08-01T16:01:28Z</time>
      </trkpt>
      <trkpt lat="49.4344" lon="1.16662">
        <ele>103</ele>
        <time>2017-08-01T16:02:16Z</time>
      </trkpt>
      <trkpt lat="49.4344" lon="1.16661">
        <ele>103</ele>
        <time>2017-08-01T16:02:16Z</time>
      </trkpt>
      <trkpt lat="49.4344" lon="1.16661">
        <ele>103</ele>
        <time>2017-08-01T16:02:16Z</time>
      </trkpt>
      <trkpt lat="49.4344" lon="1.16661">
        <ele>103</ele>
        <time>2017-08-01T16:02:16Z</time>
      </trkpt>
      <trkpt lat="49.43443" lon="1.16656">
        <ele>103</ele>
        <time>2017-08-01T16:02:16Z</time>
      </trkpt>
      <trkpt lat="49.43445" lon="1.16646">
        <ele>103</ele>
        <time>2017-08-01T16:02:32Z</time>
      </trkpt>
      <trkpt lat="49.43448" lon="1.16635">
        <ele>103</ele>
        <time>2017-08-01T16:02:32Z</time>
      </trkpt>
      <trkpt lat="49.43455" lon="1.16627">
        <ele>103</ele>
        <time>2017-08-01T16:02:32Z</time>
      </trkpt>
      <trkpt lat="49.43459" lon="1.1662">
        <ele>135</ele>
        <time>2017-08-01T16:02:32Z</time>
      </trkpt>
      <trkpt lat="49.43467" lon="1.16611">
        <ele>135</ele>
        <time>2017-08-01T16:02:48Z</time>
      </trkpt>
      <trkpt lat="49.43464" lon="1.16597">
        <ele>135</ele>
        <time>2017-08-01T16:02:48Z</time>
      </trkpt>
      <trkpt lat="49.43465" lon="1.1659">
        <ele>135</ele>
        <time>2017-08-01T16:02:48Z</time>
      </trkpt>
      <trkpt lat="49.43466" lon="1.16585">
        <ele>135</ele>
        <time>2017-08-01T16:02:48Z</time>
      </trkpt>
      <trkpt lat="49.43466" lon="1.16574">
        <ele>135</ele>
        <time>2017-08-01T16:03:04Z</time>
      </trkpt>
      <trkpt lat="49.43466" lon="1.16565">
        <ele>135</ele>
        <time>2017-08-01T16:03:04Z</time>
      </trkpt>
      <trkpt lat="49.43463" lon="1.16563">
        <ele>135</ele>
        <time>2017-08-01T16:03:04Z</time>
      </trkpt>
      <trkpt lat="49.43463" lon="1.16557">
        <ele>135</ele>
        <time>2017-08-01T16:03:04Z</time>
      </trkpt>
      <trkpt lat="49.43461" lon="1.16557">
        <ele>135</ele>
        <time>2017-08-01T16:05:12Z</time>
      </trkpt>
      <trkpt lat="49.43455" lon="1.16559">
        <ele>111</ele>
        <time>2017-08-01T16:05:12Z</time>
      </trkpt>
      <trkpt lat="49.43453" lon="1.1656">
        <ele>111</ele>
        <time>2017-08-01T16:05:12Z</time>
      </trkpt>
      <trkpt lat="49.43453" lon="1.16562">
        <ele>111</ele>
        <time>2017-08-01T16:05:12Z</time>
      </trkpt>
      <trkpt lat="49.43451" lon="1.16565">
        <ele>111</ele>
        <time>2017-08-01T16:05:12Z</time>
      </trkpt>
      <trkpt lat="49.43452" lon="1.16565">
        <ele>111</ele>
        <time>2017-08-01T16:08:44Z</time>
      </trkpt>
      <trkpt lat="49.43453" lon="1.1656">
        <ele>111</ele>
        <time>2017-08-01T16:08:44Z</time>
      </trkpt>
      <trkpt lat="49.43456" lon="1.16565">
        <ele>111</ele>
        <time>2017-08-01T16:08:44Z</time>
      </trkpt>
      <trkpt lat="49.43457" lon="1.16567">
        <ele>111</ele>
        <time>2017-08-01T16:08:44Z</time>
      </trkpt>
      <trkpt lat="49.4346" lon="1.16567">
        <ele>135</ele>
        <time>2017-08-01T16:08:44Z</time>
      </trkpt>
      <trkpt lat="49.43454" lon="1.16562">
        <ele>111</ele>
        <time>2017-08-01T16:16:36Z</time>
      </trkpt>
      <trkpt lat="49.43459" lon="1.16556">
        <ele>135</ele>
        <time>2017-08-01T16:16:36Z</time>
      </trkpt>
      <trkpt lat="49.43469" lon="1.16565">
        <ele>135</ele>
        <time>2017-08-01T16:16:36Z</time>
      </trkpt>
      <trkpt lat="49.43483" lon="1.16568">
        <ele>135</ele>
        <time>2017-08-01T16:16:36Z</time>
      </trkpt>
      <trkpt lat="49.43486" lon="1.16569">
        <ele>135</ele>
        <time>2017-08-01T16:16:36Z</time>
      </trkpt>
      <trkpt lat="49.43489" lon="1.16569">
        <ele>135</ele>
        <time>2017-08-01T16:16:52Z</time>
      </trkpt>
      <trkpt lat="49.43496" lon="1.1657">
        <ele>135</ele>
        <time>2017-08-01T16:16:52Z</time>
      </trkpt>
      <trkpt lat="49.43504" lon="1.16572">
        <ele>135</ele>
        <time>2017-08-01T16:16:52Z</time>
      </trkpt>
      <trkpt lat="49.4351" lon="1.1657">
        <ele>135</ele>
        <time>2017-08-01T16:16:52Z</time>
      </trkpt>
      <trkpt lat="49.43515" lon="1.16569">
        <ele>135</ele>
        <time>2017-08-01T16:17:16Z</time>
      </trkpt>
      <trkpt lat="49.43517" lon="1.16569">
        <ele>135</ele>
        <time>2017-08-01T16:17:16Z</time>
      </trkpt>
      <trkpt lat="49.43518" lon="1.1657">
        <ele>135</ele>
        <time>2017-08-01T16:17:16Z</time>
      </trkpt>
      <trkpt lat="49.43522" lon="1.16566">
        <ele>135</ele>
        <time>2017-08-01T16:17:16Z</time>
      </trkpt>
      <trkpt lat="49.43533" lon="1.16572">
        <ele>135</ele>
        <time>2017-08-01T16:17:16Z</time>
      </trkpt>
      <trkpt lat="49.43539" lon="1.16573">
        <ele>135</ele>
        <time>2017-08-01T16:17:32Z</time>
      </trkpt>
      <trkpt lat="49.43549" lon="1.16577">
        <ele>139</ele>
        <time>2017-08-01T16:17:32Z</time>
      </trkpt>
      <trkpt lat="49.43559" lon="1.1658">
        <ele>139</ele>
        <time>2017-08-01T16:17:32Z</time>
      </trkpt>
      <trkpt lat="49.43566" lon="1.16582">
        <ele>139</ele>
        <time>2017-08-01T16:17:32Z</time>
      </trkpt>
      <trkpt lat="49.43572" lon="1.16586">
        <ele>139</ele>
        <time>2017-08-01T16:17:48Z</time>
      </trkpt>
      <trkpt lat="49.43574" lon="1.16583">
        <ele>139</ele>
        <time>2017-08-01T16:17:48Z</time>
      </trkpt>
      <trkpt lat="49.43582" lon="1.16581">
        <ele>139</ele>
        <time>2017-08-01T16:17:48Z</time>
      </trkpt>
      <trkpt lat="49.43589" lon="1.16582">
        <ele>139</ele>
        <time>2017-08-01T16:17:48Z</time>
      </trkpt>
      <trkpt lat="49.43603" lon="1.16589">
        <ele>139</ele>
        <time>2017-08-01T16:18:28Z</time>
      </trkpt>
      <trkpt lat="49.43604" lon="1.16589">
        <ele>139</ele>
        <time>2017-08-01T16:18:28Z</time>
      </trkpt>
      <trkpt lat="49.43605" lon="1.16589">
        <ele>139</ele>
        <time>2017-08-01T16:18:28Z</time>
      </trkpt>
      <trkpt lat="49.43605" lon="1.16589">
        <ele>139</ele>
        <time>2017-08-01T16:18:28Z</time>
      </trkpt>
      <trkpt lat="49.43606" lon="1.16589">
        <ele>139</ele>
        <time>2017-08-01T16:18:28Z</time>
      </trkpt>
      <trkpt lat="49.43607" lon="1.16589">
        <ele>139</ele>
        <time>2017-08-01T16:18:44Z</time>
      </trkpt>
      <trkpt lat="49.43622" lon="1.16593">
        <ele>139</ele>
        <time>2017-08-01T16:18:44Z</time>
      </trkpt>
      <trkpt lat="49.43631" lon="1.16594">
        <ele>141</ele>
        <time>2017-08-01T16:18:44Z</time>
      </trkpt>
      <trkpt lat="49.43633" lon="1.16595">
        <ele>141</ele>
        <time>2017-08-01T16:18:44Z</time>
      </trkpt>
      <trkpt lat="49.43639" lon="1.16594">
        <ele>141</ele>
        <time>2017-08-01T16:19:08Z</time>
      </trkpt>
      <trkpt lat="49.43642" lon="1.16594">
        <ele>141</ele>
        <time>2017-08-01T16:19:08Z</time>
      </trkpt>
      <trkpt lat="49.43643" lon="1.16594">
        <ele>141</ele>
        <time>2017-08-01T16:19:08Z</time>
      </trkpt>
      <trkpt lat="49.43645" lon="1.16594">
        <ele>141</ele>
        <time>2017-08-01T16:19:08Z</time>
      </trkpt>
      <trkpt lat="49.43649" lon="1.16595">
        <ele>141</ele>
        <time>2017-08-01T16:19:08Z</time>
      </trkpt>
      <trkpt lat="49.43658" lon="1.166">
        <ele>141</ele>
        <time>2017-08-01T16:19:24Z</time>
      </trkpt>
      <trkpt lat="49.43665" lon="1.166">
        <ele>141</ele>
        <time>2017-08-01T16:19:24Z</time>
      </trkpt>
      <trkpt lat="49.43677" lon="1.16605">
        <ele>141</ele>
        <time>2017-08-01T16:19:24Z</time>
      </trkpt>
      <trkpt lat="49.4368" lon="1.1661">
        <ele>141</ele>
        <time>2017-08-01T16:19:24Z</time>
      </trkpt>
      <trkpt lat="49.43688" lon="1.16608">
        <ele>141</ele>
        <time>2017-08-01T16:19:48Z</time>
      </trkpt>
      <trkpt lat="49.43689" lon="1.16608">
        <ele>141</ele>
        <time>2017-08-01T16:19:48Z</time>
      </trkpt>
      <trkpt lat="49.43691" lon="1.16607">
        <ele>141</ele>
        <time>2017-08-01T16:19:48Z</time>
      </trkpt>
      <trkpt lat="49.43693" lon="1.16608">
        <ele>141</ele>
        <time>2017-08-01T16:19:48Z</time>
      </trkpt>
      <trkpt lat="49.43694" lon="1.16608">
        <ele>141</ele>
        <time>2017-08-01T16:19:48Z</time>
      </trkpt>
      <trkpt lat="49.43695" lon="1.16609">
        <ele>141</ele>
        <time>2017-08-01T16:20:04Z</time>
      </trkpt>
      <trkpt lat="49.43709" lon="1.16616">
        <ele>143</ele>
        <time>2017-08-01T16:20:04Z</time>
      </trkpt>
      <trkpt lat="49.43719" lon="1.16617">
        <ele>143</ele>
        <time>2017-08-01T16:20:04Z</time>
      </trkpt>
      <trkpt lat="49.43728" lon="1.16618">
        <ele>143</ele>
        <time>2017-08-01T16:20:04Z</time>
      </trkpt>
      <trkpt lat="49.43736" lon="1.16619">
        <ele>143</ele>
        <time>2017-08-01T16:20:20Z</time>
      </trkpt>
      <trkpt lat="49.43743" lon="1.16624">
        <ele>143</ele>
        <time>2017-08-01T16:20:20Z</time>
      </trkpt>
      <trkpt lat="49.43751" lon="1.16624">
        <ele>143</ele>
        <time>2017-08-01T16:20:20Z</time>
      </trkpt>
      <trkpt lat="49.43757" lon="1.16627">
        <ele>137</ele>
        <time>2017-08-01T16:20:20Z</time>
      </trkpt>
      <trkpt lat="49.43761" lon="1.16631">
        <ele>137</ele>
        <time>2017-08-01T16:20:36Z</time>
      </trkpt>
      <trkpt lat="49.43767" lon="1.1663">
        <ele>137</ele>
        <time>2017-08-01T16:20:36Z</time>
      </trkpt>
      <trkpt lat="49.43776" lon="1.16632">
        <ele>137</ele>
        <time>2017-08-01T16:20:36Z</time>
      </trkpt>
      <trkpt lat="49.43778" lon="1.16632">
        <ele>137</ele>
        <time>2017-08-01T16:20:36Z</time>
      </trkpt>
      <trkpt lat="49.43781" lon="1.16634">
        <ele>137</ele>
        <time>2017-08-01T16:20:52Z</time>
      </trkpt>
      <trkpt lat="49.43787" lon="1.1663">
        <ele>137</ele>
        <time>2017-08-01T16:20:52Z</time>
      </trkpt>
      <trkpt lat="49.43789" lon="1.16632">
        <ele>137</ele>
        <time>2017-08-01T16:20:52Z</time>
      </trkpt>
      <trkpt lat="49.43793" lon="1.16631">
        <ele>137</ele>
        <time>2017-08-01T16:20:52Z</time>
      </trkpt>
      <trkpt lat="49.43795" lon="1.16633">
        <ele>137</ele>
        <time>2017-08-01T16:21:48Z</time>
      </trkpt>
      <trkpt lat="49.43795" lon="1.16633">
        <ele>137</ele>
        <time>2017-08-01T16:21:48Z</time>
      </trkpt>
      <trkpt lat="49.43795" lon="1.16633">
        <ele>137</ele>
        <time>2017-08-01T16:21:48Z</time>
      </trkpt>
      <trkpt lat="49.43795" lon="1.16633">
        <ele>137</ele>
        <time>2017-08-01T16:21:48Z</time>
      </trkpt>
      <trkpt lat="49.43807" lon="1.1664">
        <ele>137</ele>
        <time>2017-08-01T16:21:48Z</time>
      </trkpt>
      <trkpt lat="49.43818" lon="1.16643">
        <ele>137</ele>
        <time>2017-08-01T16:22:04Z</time>
      </trkpt>
      <trkpt lat="49.43829" lon="1.16644">
        <ele>137</ele>
        <time>2017-08-01T16:22:04Z</time>
      </trkpt>
      <trkpt lat="49.43842" lon="1.16648">
        <ele>137</ele>
        <time>2017-08-01T16:22:04Z</time>
      </trkpt>
      <trkpt lat="49.43848" lon="1.16649">
        <ele>137</ele>
        <time>2017-08-01T16:22:04Z</time>
      </trkpt>
      <trkpt lat="49.43853" lon="1.1665">
        <ele>137</ele>
        <time>2017-08-01T16:22:20Z</time>
      </trkpt>
      <trkpt lat="49.43858" lon="1.16649">
        <ele>137</ele>
        <time>2017-08-01T16:22:20Z</time>
      </trkpt>
      <trkpt lat="49.43863" lon="1.16649">
        <ele>137</ele>
        <time>2017-08-01T16:22:20Z</time>
      </trkpt>
      <trkpt lat="49.43868" lon="1.1665">
        <ele>137</ele>
        <time>2017-08-01T16:22:20Z</time>
      </trkpt>
      <trkpt lat="49.43872" lon="1.16654">
        <ele>137</ele>
        <time>2017-08-01T16:22:36Z</time>
      </trkpt>
      <trkpt lat="49.43876" lon="1.16655">
        <ele>137</ele>
        <time>2017-08-01T16:22:36Z</time>
      </trkpt>
      <trkpt lat="49.43879" lon="1.16657">
        <ele>137</ele>
        <time>2017-08-01T16:22:36Z</time>
      </trkpt>
      <trkpt lat="49.43883" lon="1.16661">
        <ele>137</ele>
        <time>2017-08-01T16:22:36Z</time>
      </trkpt>
      <trkpt lat="49.43891" lon="1.16662">
        <ele>137</ele>
        <time>2017-08-01T16:22:52Z</time>
      </trkpt>
      <trkpt lat="49.43896" lon="1.16666">
        <ele>137</ele>
        <time>2017-08-01T16:22:52Z</time>
      </trkpt>
      <trkpt lat="49.43901" lon="1.16665">
        <ele>137</ele>
        <time>2017-08-01T16:22:52Z</time>
      </trkpt>
      <trkpt lat="49.4391" lon="1.16665">
        <ele>137</ele>
        <time>2017-08-01T16:22:52Z</time>
      </trkpt>
      <trkpt lat="49.43915" lon="1.16663">
        <ele>137</ele>
        <time>2017-08-01T16:23:08Z</time>
      </trkpt>
      <trkpt lat="49.43917" lon="1.16667">
        <ele>137</ele>
        <time>2017-08-01T16:23:08Z</time>
      </trkpt>
      <trkpt lat="49.43921" lon="1.16667">
        <ele>137</ele>
        <time>2017-08-01T16:23:08Z</time>
      </trkpt>
      <trkpt lat="49.43927" lon="1.16667">
        <ele>137</ele>
        <time>2017-08-01T16:23:08Z</time>
      </trkpt>
      <trkpt lat="49.43935" lon="1.16666">
        <ele>137</ele>
        <time>2017-08-01T16:23:24Z</time>
      </trkpt>
      <trkpt lat="49.43943" lon="1.16663">
        <ele>137</ele>
        <time>2017-08-01T16:23:24Z</time>
      </trkpt>
      <trkpt lat="49.4395" lon="1.16666">
        <ele>137</ele>
        <time>2017-08-01T16:23:24Z</time>
      </trkpt>
      <trkpt lat="49.43959" lon="1.16667">
        <ele>138</ele>
        <time>2017-08-01T16:23:24Z</time>
      </trkpt>
      <trkpt lat="49.43957" lon="1.16672">
        <ele>137</ele>
        <time>2017-08-01T16:23:40Z</time>
      </trkpt>
      <trkpt lat="49.4396" lon="1.16673">
        <ele>138</ele>
        <time>2017-08-01T16:23:40Z</time>
      </trkpt>
      <trkpt lat="49.43963" lon="1.16678">
        <ele>138</ele>
        <time>2017-08-01T16:23:40Z</time>
      </trkpt>
      <trkpt lat="49.43966" lon="1.1668">
        <ele>138</ele>
        <time>2017-08-01T16:23:40Z</time>
      </trkpt>
      <trkpt lat="49.43969" lon="1.16684">
        <ele>138</ele>
        <time>2017-08-01T16:23:56Z</time>
      </trkpt>
      <trkpt lat="49.4397" lon="1.16685">
        <ele>138</ele>
        <time>2017-08-01T16:23:56Z</time>
      </trkpt>
      <trkpt lat="49.43977" lon="1.16686">
        <ele>138</ele>
        <time>2017-08-01T16:23:56Z</time>
      </trkpt>
      <trkpt lat="49.43978" lon="1.16684">
        <ele>138</ele>
        <time>2017-08-01T16:23:56Z</time>
      </trkpt>
      <trkpt lat="49.43983" lon="1.16687">
        <ele>138</ele>
        <time>2017-08-01T16:24:12Z</time>
      </trkpt>
      <trkpt lat="49.4399" lon="1.16687">
        <ele>138</ele>
        <time>2017-08-01T16:24:12Z</time>
      </trkpt>
      <trkpt lat="49.43994" lon="1.1669">
        <ele>138</ele>
        <time>2017-08-01T16:24:12Z</time>
      </trkpt>
      <trkpt lat="49.43999" lon="1.16692">
        <ele>138</ele>
        <time>2017-08-01T16:24:12Z</time>
      </trkpt>
      <trkpt lat="49.44006" lon="1.16693">
        <ele>138</ele>
        <time>2017-08-01T16:24:28Z</time>
      </trkpt>
      <trkpt lat="49.44011" lon="1.16693">
        <ele>138</ele>
        <time>2017-08-01T16:24:28Z</time>
      </trkpt>
      <trkpt lat="49.44019" lon="1.16694">
        <ele>138</ele>
        <time>2017-08-01T16:24:28Z</time>
      </trkpt>
      <trkpt lat="49.44023" lon="1.16696">
        <ele>138</ele>
        <time>2017-08-01T16:24:28Z</time>
      </trkpt>
      <trkpt lat="49.44026" lon="1.16695">
        <ele>138</ele>
        <time>2017-08-01T16:24:44Z</time>
      </trkpt>
      <trkpt lat="49.44031" lon="1.16697">
        <ele>138</ele>
        <time>2017-08-01T16:24:44Z</time>
      </trkpt>
      <trkpt lat="49.44036" lon="1.16699">
        <ele>138</ele>
        <time>2017-08-01T16:24:44Z</time>
      </trkpt>
      <trkpt lat="49.4404" lon="1.16699">
        <ele>138</ele>
        <time>2017-08-01T16:24:44Z</time>
      </trkpt>
      <trkpt lat="49.44047" lon="1.16699">
        <ele>137</ele>
        <time>2017-08-01T16:25:00Z</time>
      </trkpt>
      <trkpt lat="49.44053" lon="1.16704">
        <ele>137</ele>
        <time>2017-08-01T16:25:00Z</time>
      </trkpt>
      <trkpt lat="49.44055" lon="1.16703">
        <ele>137</ele>
        <time>2017-08-01T16:25:00Z</time>
      </trkpt>
      <trkpt lat="49.4406" lon="1.16706">
        <ele>137</ele>
        <time>2017-08-01T16:25:00Z</time>
      </trkpt>
      <trkpt lat="49.44071" lon="1.16702">
        <ele>137</ele>
        <time>2017-08-01T16:25:16Z</time>
      </trkpt>
      <trkpt lat="49.44076" lon="1.16703">
        <ele>137</ele>
        <time>2017-08-01T16:25:16Z</time>
      </trkpt>
      <trkpt lat="49.44083" lon="1.167">
        <ele>137</ele>
        <time>2017-08-01T16:25:16Z</time>
      </trkpt>
      <trkpt lat="49.44087" lon="1.16704">
        <ele>137</ele>
        <time>2017-08-01T16:25:16Z</time>
      </trkpt>
      <trkpt lat="49.44089" lon="1.16709">
        <ele>136</ele>
        <time>2017-08-01T16:25:32Z</time>
      </trkpt>
      <trkpt lat="49.44095" lon="1.16713">
        <ele>136</ele>
        <time>2017-08-01T16:25:32Z</time>
      </trkpt>
      <trkpt lat="49.44099" lon="1.16712">
        <ele>136</ele>
        <time>2017-08-01T16:25:32Z</time>
      </trkpt>
      <trkpt lat="49.44101" lon="1.1671">
        <ele>136</ele>
        <time>2017-08-01T16:25:32Z</time>
      </trkpt>
      <trkpt lat="49.44102" lon="1.16713">
        <ele>136</ele>
        <time>2017-08-01T16:25:48Z</time>
      </trkpt>
      <trkpt lat="49.44107" lon="1.16712">
        <ele>136</ele>
        <time>2017-08-01T16:25:48Z</time>
      </trkpt>
      <trkpt lat="49.44114" lon="1.16714">
        <ele>136</ele>
        <time>2017-08-01T16:25:48Z</time>
      </trkpt>
      <trkpt lat="49.4412" lon="1.16716">
        <ele>136</ele>
        <time>2017-08-01T16:25:48Z</time>
      </trkpt>
      <trkpt lat="49.44122" lon="1.16714">
        <ele>136</ele>
        <time>2017-08-01T16:26:04Z</time>
      </trkpt>
      <trkpt lat="49.44129" lon="1.16711">
        <ele>132</ele>
        <time>2017-08-01T16:26:04Z</time>
      </trkpt>
      <trkpt lat="49.44134" lon="1.1672">
        <ele>132</ele>
        <time>2017-08-01T16:26:04Z</time>
      </trkpt>
      <trkpt lat="49.44139" lon="1.1672">
        <ele>132</ele>
        <time>2017-08-01T16:26:04Z</time>
      </trkpt>
      <trkpt lat="49.44144" lon="1.16725">
        <ele>132</ele>
        <time>2017-08-01T16:26:20Z</time>
      </trkpt>
      <trkpt lat="49.44147" lon="1.16729">
        <ele>132</ele>
        <time>2017-08-01T16:26:20Z</time>
      </trkpt>
      <trkpt lat="49.44153" lon="1.16729">
        <ele>132</ele>
        <time>2017-08-01T16:26:20Z</time>
      </trkpt>
      <trkpt lat="49.44156" lon="1.16725">
        <ele>132</ele>
        <time>2017-08-01T16:26:20Z</time>
      </trkpt>
      <trkpt lat="49.44163" lon="1.16727">
        <ele>132</ele>
        <time>2017-08-01T16:26:36Z</time>
      </trkpt>
      <trkpt lat="49.44168" lon="1.16728">
        <ele>132</ele>
        <time>2017-08-01T16:26:36Z</time>
      </trkpt>
      <trkpt lat="49.44173" lon="1.16732">
        <ele>132</ele>
        <time>2017-08-01T16:26:36Z</time>
      </trkpt>
      <trkpt lat="49.44177" lon="1.16732">
        <ele>132</ele>
        <time>2017-08-01T16:26:36Z</time>
      </trkpt>
      <trkpt lat="49.44183" lon="1.16739">
        <ele>132</ele>
        <time>2017-08-01T16:26:52Z</time>
      </trkpt>
      <trkpt lat="49.44185" lon="1.16747">
        <ele>132</ele>
        <time>2017-08-01T16:26:52Z</time>
      </trkpt>
      <trkpt lat="49.44189" lon="1.16755">
        <ele>132</ele>
        <time>2017-08-01T16:26:52Z</time>
      </trkpt>
      <trkpt lat="49.44193" lon="1.16763">
        <ele>132</ele>
        <time>2017-08-01T16:26:52Z</time>
      </trkpt>
      <trkpt lat="49.44194" lon="1.16768">
        <ele>132</ele>
        <time>2017-08-01T16:27:08Z</time>
      </trkpt>
      <trkpt lat="49.44199" lon="1.16774">
        <ele>132</ele>
        <time>2017-08-01T16:27:08Z</time>
      </trkpt>
      <trkpt lat="49.44203" lon="1.16781">
        <ele>132</ele>
        <time>2017-08-01T16:27:08Z</time>
      </trkpt>
      <trkpt lat="49.44211" lon="1.1678">
        <ele>132</ele>
        <time>2017-08-01T16:27:08Z</time>
      </trkpt>
      <trkpt lat="49.44217" lon="1.16786">
        <ele>132</ele>
        <time>2017-08-01T16:27:28Z</time>
      </trkpt>
      <trkpt lat="49.44216" lon="1.16787">
        <ele>132</ele>
        <time>2017-08-01T16:27:28Z</time>
      </trkpt>
      <trkpt lat="49.44217" lon="1.16792">
        <ele>136</ele>
        <time>2017-08-01T16:27:28Z</time>
      </trkpt>
      <trkpt lat="49.4422" lon="1.16798">
        <ele>136</ele>
        <time>2017-08-01T16:27:28Z</time>
      </trkpt>
      <trkpt lat="49.44219" lon="1.16806">
        <ele>136</ele>
        <time>2017-08-01T16:27:28Z</time>
      </trkpt>
      <trkpt lat="49.44221" lon="1.16807">
        <ele>136</ele>
        <time>2017-08-01T16:27:44Z</time>
      </trkpt>
      <trkpt lat="49.4422" lon="1.16809">
        <ele>136</ele>
        <time>2017-08-01T16:27:44Z</time>
      </trkpt>
      <trkpt lat="49.4422" lon="1.1681">
        <ele>136</ele>
        <time>2017-08-01T16:27:44Z</time>
      </trkpt>
      <trkpt lat="49.44219" lon="1.16822">
        <ele>136</ele>
        <time>2017-08-01T16:27:44Z</time>
      </trkpt>
      <trkpt lat="49.44222" lon="1.16837">
        <ele>136</ele>
        <time>2017-08-01T16:28:00Z</time>
      </trkpt>
      <trkpt lat="49.44226" lon="1.16847">
        <ele>136</ele>
        <time>2017-08-01T16:28:00Z</time>
      </trkpt>
      <trkpt lat="49.44228" lon="1.1685">
        <ele>136</ele>
        <time>2017-08-01T16:28:00Z</time>
      </trkpt>
      <trkpt lat="49.44226" lon="1.16862">
        <ele>136</ele>
        <time>2017-08-01T16:28:00Z</time>
      </trkpt>
      <trkpt lat="49.44233" lon="1.16885">
        <ele>137</ele>
        <time>2017-08-01T16:28:32Z</time>
      </trkpt>
      <trkpt lat="49.44233" lon="1.16891">
        <ele>137</ele>
        <time>2017-08-01T16:28:32Z</time>
      </trkpt>
      <trkpt lat="49.44232" lon="1.16894">
        <ele>137</ele>
        <time>2017-08-01T16:28:32Z</time>
      </trkpt>
      <trkpt lat="49.4423" lon="1.16902">
        <ele>137</ele>
        <time>2017-08-01T16:28:32Z</time>
      </trkpt>
      <trkpt lat="49.44232" lon="1.1691">
        <ele>137</ele>
        <time>2017-08-01T16:28:32Z</time>
      </trkpt>
      <trkpt lat="49.44235" lon="1.1692">
        <ele>137</ele>
        <time>2017-08-01T16:28:48Z</time>
      </trkpt>
      <trkpt lat="49.44238" lon="1.16922">
        <ele>137</ele>
        <time>2017-08-01T16:28:48Z</time>
      </trkpt>
      <trkpt lat="49.44236" lon="1.16932">
        <ele>137</ele>
        <time>2017-08-01T16:28:48Z</time>
      </trkpt>
      <trkpt lat="49.44239" lon="1.16936">
        <ele>137</ele>
        <time>2017-08-01T16:28:48Z</time>
      </trkpt>
      <trkpt lat="49.44237" lon="1.16945">
        <ele>137</ele>
        <time>2017-08-01T16:29:04Z</time>
      </trkpt>
      <trkpt lat="49.44238" lon="1.16951">
        <ele>137</ele>
        <time>2017-08-01T16:29:04Z</time>
      </trkpt>
      <trkpt lat="49.44238" lon="1.16957">
        <ele>137</ele>
        <time>2017-08-01T16:29:04Z</time>
      </trkpt>
      <trkpt lat="49.44237" lon="1.16967">
        <ele>139</ele>
        <time>2017-08-01T16:29:04Z</time>
      </trkpt>
      <trkpt lat="49.44238" lon="1.1698">
        <ele>139</ele>
        <time>2017-08-01T16:29:20Z</time>
      </trkpt>
      <trkpt lat="49.44237" lon="1.16987">
        <ele>139</ele>
        <time>2017-08-01T16:29:20Z</time>
      </trkpt>
      <trkpt lat="49.44237" lon="1.16994">
        <ele>139</ele>
        <time>2017-08-01T16:29:20Z</time>
      </trkpt>
      <trkpt lat="49.44236" lon="1.17004">
        <ele>139</ele>
        <time>2017-08-01T16:29:20Z</time>
      </trkpt>
      <trkpt lat="49.44238" lon="1.1701">
        <ele>139</ele>
        <time>2017-08-01T16:29:36Z</time>
      </trkpt>
      <trkpt lat="49.44237" lon="1.17018">
        <ele>139</ele>
        <time>2017-08-01T16:29:36Z</time>
      </trkpt>
      <trkpt lat="49.44235" lon="1.17027">
        <ele>139</ele>
        <time>2017-08-01T16:29:36Z</time>
      </trkpt>
      <trkpt lat="49.44233" lon="1.17036">
        <ele>139</ele>
        <time>2017-08-01T16:29:36Z</time>
      </trkpt>
      <trkpt lat="49.44227" lon="1.17038">
        <ele>139</ele>
        <time>2017-08-01T16:29:52Z</time>
      </trkpt>
      <trkpt lat="49.44228" lon="1.17046">
        <ele>139</ele>
        <time>2017-08-01T16:29:52Z</time>
      </trkpt>
      <trkpt lat="49.44229" lon="1.17052">
        <ele>139</ele>
        <time>2017-08-01T16:29:52Z</time>
      </trkpt>
      <trkpt lat="49.4423" lon="1.17057">
        <ele>139</ele>
        <time>2017-08-01T16:29:52Z</time>
      </trkpt>
      <trkpt lat="49.44232" lon="1.17065">
        <ele>139</ele>
        <time>2017-08-01T16:30:08Z</time>
      </trkpt>
      <trkpt lat="49.44233" lon="1.17072">
        <ele>139</ele>
        <time>2017-08-01T16:30:08Z</time>
      </trkpt>
      <trkpt lat="49.4423" lon="1.17086">
        <ele>139</ele>
        <time>2017-08-01T16:30:08Z</time>
      </trkpt>
      <trkpt lat="49.44231" lon="1.17093">
        <ele>139</ele>
        <time>2017-08-01T16:30:08Z</time>
      </trkpt>
      <trkpt lat="49.44231" lon="1.17108">
        <ele>139</ele>
        <time>2017-08-01T16:30:24Z</time>
      </trkpt>
      <trkpt lat="49.44231" lon="1.17114">
        <ele>139</ele>
        <time>2017-08-01T16:30:24Z</time>
      </trkpt>
      <trkpt lat="49.4423" lon="1.17119">
        <ele>139</ele>
        <time>2017-08-01T16:30:24Z</time>
      </trkpt>
      <trkpt lat="49.44228" lon="1.17125">
        <ele>139</ele>
        <time>2017-08-01T16:30:24Z</time>
      </trkpt>
      <trkpt lat="49.44229" lon="1.17135">
        <ele>140</ele>
        <time>2017-08-01T16:30:40Z</time>
      </trkpt>
      <trkpt lat="49.44227" lon="1.17144">
        <ele>140</ele>
        <time>2017-08-01T16:30:40Z</time>
      </trkpt>
      <trkpt lat="49.44224" lon="1.17149">
        <ele>140</ele>
        <time>2017-08-01T16:30:40Z</time>
      </trkpt>
      <trkpt lat="49.44222" lon="1.17159">
        <ele>140</ele>
        <time>2017-08-01T16:30:40Z</time>
      </trkpt>
      <trkpt lat="49.44224" lon="1.17163">
        <ele>140</ele>
        <time>2017-08-01T16:30:56Z</time>
      </trkpt>
      <trkpt lat="49.44227" lon="1.17173">
        <ele>140</ele>
        <time>2017-08-01T16:30:56Z</time>
      </trkpt>
      <trkpt lat="49.44222" lon="1.17179">
        <ele>140</ele>
        <time>2017-08-01T16:30:56Z</time>
      </trkpt>
      <trkpt lat="49.44225" lon="1.17187">
        <ele>140</ele>
        <time>2017-08-01T16:30:56Z</time>
      </trkpt>
      <trkpt lat="49.44222" lon="1.17196">
        <ele>140</ele>
        <time>2017-08-01T16:31:12Z</time>
      </trkpt>
      <trkpt lat="49.44221" lon="1.172">
        <ele>140</ele>
        <time>2017-08-01T16:31:12Z</time>
      </trkpt>
      <trkpt lat="49.44219" lon="1.17205">
        <ele>140</ele>
        <time>2017-08-01T16:31:12Z</time>
      </trkpt>
      <trkpt lat="49.44218" lon="1.17215">
        <ele>141</ele>
        <time>2017-08-01T16:31:12Z</time>
      </trkpt>
      <trkpt lat="49.44218" lon="1.1722">
        <ele>141</ele>
        <time>2017-08-01T16:31:28Z</time>
      </trkpt>
      <trkpt lat="49.4422" lon="1.17226">
        <ele>141</ele>
        <time>2017-08-01T16:31:28Z</time>
      </trkpt>
      <trkpt lat="49.4422" lon="1.17234">
        <ele>141</ele>
        <time>2017-08-01T16:31:28Z</time>
      </trkpt>
      <trkpt lat="49.44219" lon="1.17242">
        <ele>141</ele>
        <time>2017-08-01T16:31:28Z</time>
      </trkpt>
      <trkpt lat="49.44218" lon="1.17251">
        <ele>141</ele>
        <time>2017-08-01T16:31:44Z</time>
      </trkpt>
      <trkpt lat="49.44216" lon="1.1726">
        <ele>141</ele>
        <time>2017-08-01T16:31:44Z</time>
      </trkpt>
      <trkpt lat="49.44218" lon="1.17269">
        <ele>141</ele>
        <time>2017-08-01T16:31:44Z</time>
      </trkpt>
      <trkpt lat="49.44216" lon="1.17277">
        <ele>141</ele>
        <time>2017-08-01T16:31:44Z</time>
      </trkpt>
      <trkpt lat="49.44214" lon="1.17283">
        <ele>141</ele>
        <time>2017-08-01T16:32:00Z</time>
      </trkpt>
      <trkpt lat="49.44214" lon="1.17289">
        <ele>141</ele>
        <time>2017-08-01T16:32:00Z</time>
      </trkpt>
      <trkpt lat="49.44212" lon="1.17297">
        <ele>139</ele>
        <time>2017-08-01T16:32:00Z</time>
      </trkpt>
      <trkpt lat="49.44212" lon="1.17305">
        <ele>139</ele>
        <time>2017-08-01T16:32:00Z</time>
      </trkpt>
      <trkpt lat="49.4421" lon="1.1731">
        <ele>139</ele>
        <time>2017-08-01T16:32:16Z</time>
      </trkpt>
      <trkpt lat="49.44208" lon="1.17318">
        <ele>141</ele>
        <time>2017-08-01T16:32:16Z</time>
      </trkpt>
      <trkpt lat="49.44208" lon="1.17325">
        <ele>141</ele>
        <time>2017-08-01T16:32:16Z</time>
      </trkpt>
      <trkpt lat="49.44207" lon="1.17334">
        <ele>141</ele>
        <time>2017-08-01T16:32:16Z</time>
      </trkpt>
      <trkpt lat="49.44207" lon="1.17345">
        <ele>141</ele>
        <time>2017-08-01T16:32:32Z</time>
      </trkpt>
      <trkpt lat="49.44206" lon="1.1735">
        <ele>141</ele>
        <time>2017-08-01T16:32:32Z</time>
      </trkpt>
      <trkpt lat="49.44206" lon="1.17356">
        <ele>141</ele>
        <time>2017-08-01T16:32:32Z</time>
      </trkpt>
      <trkpt lat="49.44207" lon="1.17363">
        <ele>141</ele>
        <time>2017-08-01T16:32:32Z</time>
      </trkpt>
      <trkpt lat="49.44207" lon="1.17367">
        <ele>141</ele>
        <time>2017-08-01T16:32:48Z</time>
      </trkpt>
      <trkpt lat="49.44205" lon="1.1737">
        <ele>141</ele>
        <time>2017-08-01T16:32:48Z</time>
      </trkpt>
      <trkpt lat="49.44205" lon="1.17379">
        <ele>141</ele>
        <time>2017-08-01T16:32:48Z</time>
      </trkpt>
      <trkpt lat="49.44205" lon="1.17389">
        <ele>141</ele>
        <time>2017-08-01T16:32:48Z</time>
      </trkpt>
      <trkpt lat="49.44204" lon="1.17398">
        <ele>141</ele>
        <time>2017-08-01T16:33:04Z</time>
      </trkpt>
      <trkpt lat="49.44204" lon="1.17407">
        <ele>141</ele>
        <time>2017-08-01T16:33:04Z</time>
      </trkpt>
      <trkpt lat="49.44205" lon="1.17412">
        <ele>141</ele>
        <time>2017-08-01T16:33:04Z</time>
      </trkpt>
      <trkpt lat="49.44203" lon="1.17424">
        <ele>141</ele>
        <time>2017-08-01T16:33:04Z</time>
      </trkpt>
      <trkpt lat="49.44203" lon="1.17431">
        <ele>141</ele>
        <time>2017-08-01T16:33:20Z</time>
      </trkpt>
      <trkpt lat="49.44203" lon="1.17436">
        <ele>141</ele>
        <time>2017-08-01T16:33:20Z</time>
      </trkpt>
      <trkpt lat="49.44203" lon="1.17447">
        <ele>141</ele>
        <time>2017-08-01T16:33:20Z</time>
      </trkpt>
      <trkpt lat="49.44203" lon="1.17452">
        <ele>141</ele>
        <time>2017-08-01T16:33:20Z</time>
      </trkpt>
      <trkpt lat="49.44202" lon="1.17457">
        <ele>141</ele>
        <time>2017-08-01T16:33:36Z</time>
      </trkpt>
      <trkpt lat="49.44203" lon="1.17466">
        <ele>141</ele>
        <time>2017-08-01T16:33:36Z</time>
      </trkpt>
      <trkpt lat="49.44204" lon="1.17473">
        <ele>141</ele>
        <time>2017-08-01T16:33:36Z</time>
      </trkpt>
      <trkpt lat="49.44204" lon="1.17481">
        <ele>141</ele>
        <time>2017-08-01T16:33:36Z</time>
      </trkpt>
      <trkpt lat="49.44205" lon="1.17487">
        <ele>141</ele>
        <time>2017-08-01T16:33:52Z</time>
      </trkpt>
      <trkpt lat="49.44207" lon="1.17494">
        <ele>141</ele>
        <time>2017-08-01T16:33:52Z</time>
      </trkpt>
      <trkpt lat="49.44206" lon="1.17501">
        <ele>141</ele>
        <time>2017-08-01T16:33:52Z</time>
      </trkpt>
      <trkpt lat="49.44205" lon="1.17509">
        <ele>141</ele>
        <time>2017-08-01T16:33:52Z</time>
      </trkpt>
      <trkpt lat="49.44207" lon="1.17515">
        <ele>141</ele>
        <time>2017-08-01T16:34:08Z</time>
      </trkpt>
      <trkpt lat="49.44207" lon="1.17521">
        <ele>141</ele>
        <time>2017-08-01T16:34:08Z</time>
      </trkpt>
      <trkpt lat="49.44207" lon="1.17528">
        <ele>141</ele>
        <time>2017-08-01T16:34:08Z</time>
      </trkpt>
      <trkpt lat="49.44206" lon="1.17533">
        <ele>141</ele>
        <time>2017-08-01T16:34:08Z</time>
      </trkpt>
      <trkpt lat="49.44206" lon="1.1754">
        <ele>141</ele>
        <time>2017-08-01T16:34:24Z</time>
      </trkpt>
      <trkpt lat="49.44207" lon="1.1755">
        <ele>142</ele>
        <time>2017-08-01T16:34:24Z</time>
      </trkpt>
      <trkpt lat="49.44205" lon="1.17559">
        <ele>142</ele>
        <time>2017-08-01T16:34:24Z</time>
      </trkpt>
      <trkpt lat="49.44206" lon="1.17562">
        <ele>142</ele>
        <time>2017-08-01T16:34:24Z</time>
      </trkpt>
      <trkpt lat="49.44207" lon="1.17564">
        <ele>142</ele>
        <time>2017-08-01T16:34:40Z</time>
      </trkpt>
      <trkpt lat="49.44207" lon="1.17572">
        <ele>142</ele>
        <time>2017-08-01T16:34:40Z</time>
      </trkpt>
      <trkpt lat="49.44205" lon="1.17575">
        <ele>142</ele>
        <time>2017-08-01T16:34:40Z</time>
      </trkpt>
      <trkpt lat="49.44206" lon="1.17585">
        <ele>142</ele>
        <time>2017-08-01T16:34:40Z</time>
      </trkpt>
      <trkpt lat="49.44205" lon="1.17594">
        <ele>142</ele>
        <time>2017-08-01T16:34:56Z</time>
      </trkpt>
      <trkpt lat="49.44203" lon="1.17603">
        <ele>142</ele>
        <time>2017-08-01T16:34:56Z</time>
      </trkpt>
      <trkpt lat="49.44203" lon="1.17609">
        <ele>142</ele>
        <time>2017-08-01T16:34:56Z</time>
      </trkpt>
      <trkpt lat="49.44202" lon="1.17617">
        <ele>142</ele>
        <time>2017-08-01T16:34:56Z</time>
      </trkpt>
      <trkpt lat="49.44201" lon="1.17621">
        <ele>142</ele>
        <time>2017-08-01T16:35:12Z</time>
      </trkpt>
      <trkpt lat="49.442" lon="1.17628">
        <ele>142</ele>
        <time>2017-08-01T16:35:12Z</time>
      </trkpt>
      <trkpt lat="49.442" lon="1.17633">
        <ele>142</ele>
        <time>2017-08-01T16:35:12Z</time>
      </trkpt>
      <trkpt lat="49.44198" lon="1.17641">
        <ele>142</ele>
        <time>2017-08-01T16:35:12Z</time>
      </trkpt>
      <trkpt lat="49.44195" lon="1.17645">
        <ele>142</ele>
        <time>2017-08-01T16:35:48Z</time>
      </trkpt>
      <trkpt lat="49.44195" lon="1.17645">
        <ele>142</ele>
        <time>2017-08-01T16:35:48Z</time>
      </trkpt>
      <trkpt lat="49.44195" lon="1.17646">
        <ele>142</ele>
        <time>2017-08-01T16:35:48Z</time>
      </trkpt>
      <trkpt lat="49.44195" lon="1.17646">
        <ele>142</ele>
        <time>2017-08-01T16:35:48Z</time>
      </trkpt>
      <trkpt lat="49.44187" lon="1.17647">
        <ele>142</ele>
        <time>2017-08-01T16:35:48Z</time>
      </trkpt>
      <trkpt lat="49.44183" lon="1.1766">
        <ele>142</ele>
        <time>2017-08-01T16:36:36Z</time>
      </trkpt>
      <trkpt lat="49.44184" lon="1.17665">
        <ele>142</ele>
        <time>2017-08-01T16:36:36Z</time>
      </trkpt>
      <trkpt lat="49.4418" lon="1.17667">
        <ele>142</ele>
        <time>2017-08-01T16:36:36Z</time>
      </trkpt>
      <trkpt lat="49.44176" lon="1.17677">
        <ele>142</ele>
        <time>2017-08-01T16:36:36Z</time>
      </trkpt>
      <trkpt lat="49.44175" lon="1.17687">
        <ele>142</ele>
        <time>2017-08-01T16:36:36Z</time>
      </trkpt>
      <trkpt lat="49.44173" lon="1.17692">
        <ele>142</ele>
        <time>2017-08-01T16:36:52Z</time>
      </trkpt>
      <trkpt lat="49.44171" lon="1.17699">
        <ele>142</ele>
        <time>2017-08-01T16:36:52Z</time>
      </trkpt>
      <trkpt lat="49.44166" lon="1.17698">
        <ele>142</ele>
        <time>2017-08-01T16:36:52Z</time>
      </trkpt>
      <trkpt lat="49.44162" lon="1.177">
        <ele>142</ele>
        <time>2017-08-01T16:36:52Z</time>
      </trkpt>
      <trkpt lat="49.44157" lon="1.17701">
        <ele>142</ele>
        <time>2017-08-01T16:37:08Z</time>
      </trkpt>
      <trkpt lat="49.44153" lon="1.17705">
        <ele>142</ele>
        <time>2017-08-01T16:37:08Z</time>
      </trkpt>
      <trkpt lat="49.4415" lon="1.17713">
        <ele>143</ele>
        <time>2017-08-01T16:37:08Z</time>
      </trkpt>
      <trkpt lat="49.44146" lon="1.17718">
        <ele>143</ele>
        <time>2017-08-01T16:37:08Z</time>
      </trkpt>
      <trkpt lat="49.44142" lon="1.17724">
        <ele>143</ele>
        <time>2017-08-01T16:37:24Z</time>
      </trkpt>
      <trkpt lat="49.44139" lon="1.17727">
        <ele>143</ele>
        <time>2017-08-01T16:37:24Z</time>
      </trkpt>
      <trkpt lat="49.44136" lon="1.17734">
        <ele>143</ele>
        <time>2017-08-01T16:37:24Z</time>
      </trkpt>
      <trkpt lat="49.44133" lon="1.17742">
        <ele>143</ele>
        <time>2017-08-01T16:37:24Z</time>
      </trkpt>
      <trkpt lat="49.44131" lon="1.17745">
        <ele>143</ele>
        <time>2017-08-01T16:37:40Z</time>
      </trkpt>
      <trkpt lat="49.44131" lon="1.17746">
        <ele>143</ele>
        <time>2017-08-01T16:37:40Z</time>
      </trkpt>
      <trkpt lat="49.44126" lon="1.17752">
        <ele>143</ele>
        <time>2017-08-01T16:37:40Z</time>
      </trkpt>
      <trkpt lat="49.44122" lon="1.17752">
        <ele>143</ele>
        <time>2017-08-01T16:37:40Z</time>
      </trkpt>
      <trkpt lat="49.44119" lon="1.1775">
        <ele>143</ele>
        <time>2017-08-01T16:37:56Z</time>
      </trkpt>
      <trkpt lat="49.44113" lon="1.17746">
        <ele>143</ele>
        <time>2017-08-01T16:37:56Z</time>
      </trkpt>
      <trkpt lat="49.44108" lon="1.17743">
        <ele>143</ele>
        <time>2017-08-01T16:37:56Z</time>
      </trkpt>
      <trkpt lat="49.44105" lon="1.17738">
        <ele>143</ele>
        <time>2017-08-01T16:37:56Z</time>
      </trkpt>
      <trkpt lat="49.44101" lon="1.17735">
        <ele>143</ele>
        <time>2017-08-01T16:38:12Z</time>
      </trkpt>
      <trkpt lat="49.44095" lon="1.17734">
        <ele>143</ele>
        <time>2017-08-01T16:38:12Z</time>
      </trkpt>
      <trkpt lat="49.44091" lon="1.17731">
        <ele>143</ele>
        <time>2017-08-01T16:38:12Z</time>
      </trkpt>
      <trkpt lat="49.44084" lon="1.17728">
        <ele>143</ele>
        <time>2017-08-01T16:38:12Z</time>
      </trkpt>
      <trkpt lat="49.4408" lon="1.17728">
        <ele>143</ele>
        <time>2017-08-01T16:38:28Z</time>
      </trkpt>
      <trkpt lat="49.44076" lon="1.17725">
        <ele>143</ele>
        <time>2017-08-01T16:38:28Z</time>
      </trkpt>
      <trkpt lat="49.44071" lon="1.17726">
        <ele>143</ele>
        <time>2017-08-01T16:38:28Z</time>
      </trkpt>
      <trkpt lat="49.44065" lon="1.17728">
        <ele>143</ele>
        <time>2017-08-01T16:38:28Z</time>
      </trkpt>
      <trkpt lat="49.4406" lon="1.17723">
        <ele>143</ele>
        <time>2017-08-01T16:38:44Z</time>
      </trkpt>
      <trkpt lat="49.44055" lon="1.17721">
        <ele>143</ele>
        <time>2017-08-01T16:38:44Z</time>
      </trkpt>
      <trkpt lat="49.44053" lon="1.17718">
        <ele>143</ele>
        <time>2017-08-01T16:38:44Z</time>
      </trkpt>
      <trkpt lat="49.44048" lon="1.17713">
        <ele>143</ele>
        <time>2017-08-01T16:38:44Z</time>
      </trkpt>
      <trkpt lat="49.44042" lon="1.1771">
        <ele>143</ele>
        <time>2017-08-01T16:39:00Z</time>
      </trkpt>
      <trkpt lat="49.44038" lon="1.17708">
        <ele>144</ele>
        <time>2017-08-01T16:39:00Z</time>
      </trkpt>
      <trkpt lat="49.44033" lon="1.17706">
        <ele>144</ele>
        <time>2017-08-01T16:39:00Z</time>
      </trkpt>
      <trkpt lat="49.4403" lon="1.17701">
        <ele>144</ele>
        <time>2017-08-01T16:39:00Z</time>
      </trkpt>
      <trkpt lat="49.44027" lon="1.17697">
        <ele>144</ele>
        <time>2017-08-01T16:39:16Z</time>
      </trkpt>
      <trkpt lat="49.44021" lon="1.17699">
        <ele>144</ele>
        <time>2017-08-01T16:39:16Z</time>
      </trkpt>
      <trkpt lat="49.44015" lon="1.177">
        <ele>144</ele>
        <time>2017-08-01T16:39:16Z</time>
      </trkpt>
      <trkpt lat="49.4401" lon="1.17704">
        <ele>144</ele>
        <time>2017-08-01T16:39:16Z</time>
      </trkpt>
      <trkpt lat="49.44005" lon="1.17707">
        <ele>144</ele>
        <time>2017-08-01T16:39:32Z</time>
      </trkpt>
      <trkpt lat="49.44001" lon="1.17713">
        <ele>143</ele>
        <time>2017-08-01T16:39:32Z</time>
      </trkpt>
      <trkpt lat="49.43999" lon="1.17716">
        <ele>143</ele>
        <time>2017-08-01T16:39:32Z</time>
      </trkpt>
      <trkpt lat="49.43998" lon="1.17717">
        <ele>143</ele>
        <time>2017-08-01T16:39:32Z</time>
      </trkpt>
      <trkpt lat="49.43997" lon="1.17719">
        <ele>143</ele>
        <time>2017-08-01T16:40:08Z</time>
      </trkpt>
      <trkpt lat="49.43997" lon="1.17719">
        <ele>143</ele>
        <time>2017-08-01T16:40:08Z</time>
      </trkpt>
      <trkpt lat="49.43997" lon="1.1772">
        <ele>143</ele>
        <time>2017-08-01T16:40:08Z</time>
      </trkpt>
      <trkpt lat="49.43996" lon="1.17725">
        <ele>143</ele>
        <time>2017-08-01T16:40:08Z</time>
      </trkpt>
      <trkpt lat="49.43994" lon="1.17733">
        <ele>143</ele>
        <time>2017-08-01T16:40:08Z</time>
      </trkpt>
      <trkpt lat="49.43993" lon="1.17746">
        <ele>143</ele>
        <time>2017-08-01T16:40:24Z</time>
      </trkpt>
      <trkpt lat="49.43992" lon="1.17759">
        <ele>143</ele>
        <time>2017-08-01T16:40:24Z</time>
      </trkpt>
      <trkpt lat="49.43991" lon="1.17769">
        <ele>143</ele>
        <time>2017-08-01T16:40:24Z</time>
      </trkpt>
      <trkpt lat="49.43991" lon="1.17772">
        <ele>143</ele>
        <time>2017-08-01T16:40:24Z</time>
      </trkpt>
      <trkpt lat="49.43992" lon="1.17775">
        <ele>143</ele>
        <time>2017-08-01T16:40:40Z</time>
      </trkpt>
      <trkpt lat="49.43992" lon="1.17777">
        <ele>143</ele>
        <time>2017-08-01T16:40:40Z</time>
      </trkpt>
      <trkpt lat="49.43991" lon="1.1778">
        <ele>143</ele>
        <time>2017-08-01T16:40:40Z</time>
      </trkpt>
      <trkpt lat="49.4399" lon="1.17793">
        <ele>143</ele>
        <time>2017-08-01T16:40:40Z</time>
      </trkpt>
      <trkpt lat="49.43988" lon="1.17804">
        <ele>143</ele>
        <time>2017-08-01T16:40:56Z</time>
      </trkpt>
      <trkpt lat="49.43987" lon="1.17809">
        <ele>143</ele>
        <time>2017-08-01T16:40:56Z</time>
      </trkpt>
      <trkpt lat="49.43987" lon="1.17812">
        <ele>143</ele>
        <time>2017-08-01T16:40:56Z</time>
      </trkpt>
      <trkpt lat="49.43985" lon="1.17819">
        <ele>143</ele>
        <time>2017-08-01T16:40:56Z</time>
      </trkpt>
      <trkpt lat="49.43983" lon="1.17827">
        <ele>143</ele>
        <time>2017-08-01T16:41:12Z</time>
      </trkpt>
      <trkpt lat="49.43981" lon="1.17834">
        <ele>143</ele>
        <time>2017-08-01T16:41:12Z</time>
      </trkpt>
      <trkpt lat="49.4398" lon="1.1784">
        <ele>143</ele>
        <time>2017-08-01T16:41:12Z</time>
      </trkpt>
      <trkpt lat="49.43978" lon="1.17849">
        <ele>143</ele>
        <time>2017-08-01T16:41:12Z</time>
      </trkpt>
      <trkpt lat="49.43977" lon="1.17853">
        <ele>143</ele>
        <time>2017-08-01T16:41:28Z</time>
      </trkpt>
      <trkpt lat="49.43976" lon="1.1786">
        <ele>143</ele>
        <time>2017-08-01T16:41:28Z</time>
      </trkpt>
      <trkpt lat="49.43974" lon="1.1787">
        <ele>143</ele>
        <time>2017-08-01T16:41:28Z</time>
      </trkpt>
      <trkpt lat="49.43972" lon="1.17878">
        <ele>144</ele>
        <time>2017-08-01T16:41:28Z</time>
      </trkpt>
      <trkpt lat="49.43971" lon="1.1789">
        <ele>144</ele>
        <time>2017-08-01T16:41:44Z</time>
      </trkpt>
      <trkpt lat="49.43969" lon="1.179">
        <ele>144</ele>
        <time>2017-08-01T16:41:44Z</time>
      </trkpt>
      <trkpt lat="49.43968" lon="1.17907">
        <ele>144</ele>
        <time>2017-08-01T16:41:44Z</time>
      </trkpt>
      <trkpt lat="49.43966" lon="1.17913">
        <ele>144</ele>
        <time>2017-08-01T16:41:44Z</time>
      </trkpt>
      <trkpt lat="49.43965" lon="1.17921">
        <ele>144</ele>
        <time>2017-08-01T16:42:00Z</time>
      </trkpt>
      <trkpt lat="49.43964" lon="1.17929">
        <ele>144</ele>
        <time>2017-08-01T16:42:00Z</time>
      </trkpt>
      <trkpt lat="49.43963" lon="1.17937">
        <ele>144</ele>
        <time>2017-08-01T16:42:00Z</time>
      </trkpt>
      <trkpt lat="49.43961" lon="1.17944">
        <ele>144</ele>
        <time>2017-08-01T16:42:00Z</time>
      </trkpt>
      <trkpt lat="49.43958" lon="1.17951">
        <ele>144</ele>
        <time>2017-08-01T16:42:20Z</time>
      </trkpt>
      <trkpt lat="49.43958" lon="1.17954">
        <ele>144</ele>
        <time>2017-08-01T16:42:20Z</time>
      </trkpt>
      <trkpt lat="49.43957" lon="1.17957">
        <ele>144</ele>
        <time>2017-08-01T16:42:20Z</time>
      </trkpt>
      <trkpt lat="49.43956" lon="1.17958">
        <ele>144</ele>
        <time>2017-08-01T16:42:20Z</time>
      </trkpt>
      <trkpt lat="49.43953" lon="1.17981">
        <ele>144</ele>
        <time>2017-08-01T16:42:20Z</time>
      </trkpt>
      <trkpt lat="49.43951" lon="1.17991">
        <ele>144</ele>
        <time>2017-08-01T16:42:36Z</time>
      </trkpt>
      <trkpt lat="49.43949" lon="1.17996">
        <ele>144</ele>
        <time>2017-08-01T16:42:36Z</time>
      </trkpt>
      <trkpt lat="49.43948" lon="1.18001">
        <ele>144</ele>
        <time>2017-08-01T16:42:36Z</time>
      </trkpt>
      <trkpt lat="49.43947" lon="1.18014">
        <ele>144</ele>
        <time>2017-08-01T16:42:36Z</time>
      </trkpt>
      <trkpt lat="49.43946" lon="1.18021">
        <ele>144</ele>
        <time>2017-08-01T16:42:52Z</time>
      </trkpt>
      <trkpt lat="49.43944" lon="1.1803">
        <ele>144</ele>
        <time>2017-08-01T16:42:52Z</time>
      </trkpt>
      <trkpt lat="49.43944" lon="1.18034">
        <ele>144</ele>
        <time>2017-08-01T16:42:52Z</time>
      </trkpt>
      <trkpt lat="49.43942" lon="1.18044">
        <ele>144</ele>
        <time>2017-08-01T16:42:52Z</time>
      </trkpt>
      <trkpt lat="49.43941" lon="1.1805">
        <ele>144</ele>
        <time>2017-08-01T16:43:08Z</time>
      </trkpt>
      <trkpt lat="49.43939" lon="1.18058">
        <ele>144</ele>
        <time>2017-08-01T16:43:08Z</time>
      </trkpt>
      <trkpt lat="49.43938" lon="1.18062">
        <ele>144</ele>
        <time>2017-08-01T16:43:08Z</time>
      </trkpt>
      <trkpt lat="49.43938" lon="1.18065">
        <ele>144</ele>
        <time>2017-08-01T16:43:08Z</time>
      </trkpt>
      <trkpt lat="49.43935" lon="1.18075">
        <ele>144</ele>
        <time>2017-08-01T16:43:24Z</time>
      </trkpt>
      <trkpt lat="49.43933" lon="1.18084">
        <ele>144</ele>
        <time>2017-08-01T16:43:24Z</time>
      </trkpt>
      <trkpt lat="49.43932" lon="1.18093">
        <ele>144</ele>
        <time>2017-08-01T16:43:24Z</time>
      </trkpt>
      <trkpt lat="49.4393" lon="1.18102">
        <ele>144</ele>
        <time>2017-08-01T16:43:24Z</time>
      </trkpt>
      <trkpt lat="49.43928" lon="1.18111">
        <ele>144</ele>
        <time>2017-08-01T16:43:40Z</time>
      </trkpt>
      <trkpt lat="49.43927" lon="1.18118">
        <ele>144</ele>
        <time>2017-08-01T16:43:40Z</time>
      </trkpt>
      <trkpt lat="49.43925" lon="1.18128">
        <ele>145</ele>
        <time>2017-08-01T16:43:40Z</time>
      </trkpt>
      <trkpt lat="49.43924" lon="1.18131">
        <ele>145</ele>
        <time>2017-08-01T16:43:40Z</time>
      </trkpt>
      <trkpt lat="49.43923" lon="1.18139">
        <ele>145</ele>
        <time>2017-08-01T16:44:00Z</time>
      </trkpt>
      <trkpt lat="49.43922" lon="1.18142">
        <ele>145</ele>
        <time>2017-08-01T16:44:00Z</time>
      </trkpt>
      <trkpt lat="49.43922" lon="1.18145">
        <ele>145</ele>
        <time>2017-08-01T16:44:00Z</time>
      </trkpt>
      <trkpt lat="49.43921" lon="1.18149">
        <ele>145</ele>
        <time>2017-08-01T16:44:00Z</time>
      </trkpt>
      <trkpt lat="49.4392" lon="1.18153">
        <ele>145</ele>
        <time>2017-08-01T16:44:00Z</time>
      </trkpt>
      <trkpt lat="49.43919" lon="1.1816">
        <ele>145</ele>
        <time>2017-08-01T16:44:16Z</time>
      </trkpt>
      <trkpt lat="49.43917" lon="1.18171">
        <ele>145</ele>
        <time>2017-08-01T16:44:16Z</time>
      </trkpt>
      <trkpt lat="49.43914" lon="1.18181">
        <ele>145</ele>
        <time>2017-08-01T16:44:16Z</time>
      </trkpt>
      <trkpt lat="49.43913" lon="1.18186">
        <ele>145</ele>
        <time>2017-08-01T16:44:16Z</time>
      </trkpt>
      <trkpt lat="49.43911" lon="1.18199">
        <ele>145</ele>
        <time>2017-08-01T16:44:32Z</time>
      </trkpt>
      <trkpt lat="49.43909" lon="1.18211">
        <ele>146</ele>
        <time>2017-08-01T16:44:32Z</time>
      </trkpt>
      <trkpt lat="49.43907" lon="1.18222">
        <ele>146</ele>
        <time>2017-08-01T16:44:32Z</time>
      </trkpt>
      <trkpt lat="49.43906" lon="1.18231">
        <ele>146</ele>
        <time>2017-08-01T16:44:32Z</time>
      </trkpt>
      <trkpt lat="49.43905" lon="1.18239">
        <ele>146</ele>
        <time>2017-08-01T16:44:48Z</time>
      </trkpt>
      <trkpt lat="49.43904" lon="1.18246">
        <ele>146</ele>
        <time>2017-08-01T16:44:48Z</time>
      </trkpt>
      <trkpt lat="49.43903" lon="1.18252">
        <ele>146</ele>
        <time>2017-08-01T16:44:48Z</time>
      </trkpt>
      <trkpt lat="49.43903" lon="1.18255">
        <ele>146</ele>
        <time>2017-08-01T16:44:48Z</time>
      </trkpt>
      <trkpt lat="49.43902" lon="1.18265">
        <ele>146</ele>
        <time>2017-08-01T16:45:04Z</time>
      </trkpt>
      <trkpt lat="49.43901" lon="1.18273">
        <ele>146</ele>
        <time>2017-08-01T16:45:04Z</time>
      </trkpt>
      <trkpt lat="49.439" lon="1.18278">
        <ele>146</ele>
        <time>2017-08-01T16:45:04Z</time>
      </trkpt>
      <trkpt lat="49.43898" lon="1.18288">
        <ele>146</ele>
        <time>2017-08-01T16:45:04Z</time>
      </trkpt>
      <trkpt lat="49.43898" lon="1.18291">
        <ele>146</ele>
        <time>2017-08-01T16:45:20Z</time>
      </trkpt>
      <trkpt lat="49.43897" lon="1.18298">
        <ele>146</ele>
        <time>2017-08-01T16:45:20Z</time>
      </trkpt>
      <trkpt lat="49.43896" lon="1.18307">
        <ele>146</ele>
        <time>2017-08-01T16:45:20Z</time>
      </trkpt>
      <trkpt lat="49.43894" lon="1.18317">
        <ele>146</ele>
        <time>2017-08-01T16:45:20Z</time>
      </trkpt>
      <trkpt lat="49.43892" lon="1.18323">
        <ele>146</ele>
        <time>2017-08-01T16:45:40Z</time>
      </trkpt>
      <trkpt lat="49.43891" lon="1.18326">
        <ele>146</ele>
        <time>2017-08-01T16:45:40Z</time>
      </trkpt>
      <trkpt lat="49.43889" lon="1.1833">
        <ele>146</ele>
        <time>2017-08-01T16:45:40Z</time>
      </trkpt>
      <trkpt lat="49.43884" lon="1.18327">
        <ele>146</ele>
        <time>2017-08-01T16:45:40Z</time>
      </trkpt>
      <trkpt lat="49.43879" lon="1.18324">
        <ele>146</ele>
        <time>2017-08-01T16:45:40Z</time>
      </trkpt>
      <trkpt lat="49.43877" lon="1.18323">
        <ele>146</ele>
        <time>2017-08-01T16:45:56Z</time>
      </trkpt>
      <trkpt lat="49.4387" lon="1.18324">
        <ele>144</ele>
        <time>2017-08-01T16:45:56Z</time>
      </trkpt>
      <trkpt lat="49.43866" lon="1.18323">
        <ele>144</ele>
        <time>2017-08-01T16:45:56Z</time>
      </trkpt>
      <trkpt lat="49.43862" lon="1.1832">
        <ele>144</ele>
        <time>2017-08-01T16:45:56Z</time>
      </trkpt>
      <trkpt lat="49.43859" lon="1.18319">
        <ele>144</ele>
        <time>2017-08-01T16:46:12Z</time>
      </trkpt>
      <trkpt lat="49.43854" lon="1.18318">
        <ele>144</ele>
        <time>2017-08-01T16:46:12Z</time>
      </trkpt>
      <trkpt lat="49.4385" lon="1.18322">
        <ele>144</ele>
        <time>2017-08-01T16:46:12Z</time>
      </trkpt>
      <trkpt lat="49.43849" lon="1.18323">
        <ele>144</ele>
        <time>2017-08-01T16:46:12Z</time>
      </trkpt>
      <trkpt lat="49.43847" lon="1.18332">
        <ele>144</ele>
        <time>2017-08-01T16:46:32Z</time>
      </trkpt>
      <trkpt lat="49.43846" lon="1.18333">
        <ele>144</ele>
        <time>2017-08-01T16:46:32Z</time>
      </trkpt>
      <trkpt lat="49.43844" lon="1.18339">
        <ele>144</ele>
        <time>2017-08-01T16:46:32Z</time>
      </trkpt>
      <trkpt lat="49.43843" lon="1.1834">
        <ele>144</ele>
        <time>2017-08-01T16:46:32Z</time>
      </trkpt>
      <trkpt lat="49.43842" lon="1.18346">
        <ele>144</ele>
        <time>2017-08-01T16:46:32Z</time>
      </trkpt>
      <trkpt lat="49.4384" lon="1.18356">
        <ele>144</ele>
        <time>2017-08-01T16:46:48Z</time>
      </trkpt>
      <trkpt lat="49.43838" lon="1.18365">
        <ele>144</ele>
        <time>2017-08-01T16:46:48Z</time>
      </trkpt>
      <trkpt lat="49.43836" lon="1.18375">
        <ele>145</ele>
        <time>2017-08-01T16:46:48Z</time>
      </trkpt>
      <trkpt lat="49.43835" lon="1.18383">
        <ele>145</ele>
        <time>2017-08-01T16:46:48Z</time>
      </trkpt>
      <trkpt lat="49.43833" lon="1.1839">
        <ele>145</ele>
        <time>2017-08-01T16:47:04Z</time>
      </trkpt>
      <trkpt lat="49.43833" lon="1.18396">
        <ele>145</ele>
        <time>2017-08-01T16:47:04Z</time>
      </trkpt>
      <trkpt lat="49.43832" lon="1.18405">
        <ele>145</ele>
        <time>2017-08-01T16:47:04Z</time>
      </trkpt>
      <trkpt lat="49.43832" lon="1.18408">
        <ele>145</ele>
        <time>2017-08-01T16:47:04Z</time>
      </trkpt>
      <trkpt lat="49.43831" lon="1.18416">
        <ele>145</ele>
        <time>2017-08-01T16:47:20Z</time>
      </trkpt>
      <trkpt lat="49.4383" lon="1.1842">
        <ele>145</ele>
        <time>2017-08-01T16:47:20Z</time>
      </trkpt>
      <trkpt lat="49.43829" lon="1.18426">
        <ele>145</ele>
        <time>2017-08-01T16:47:20Z</time>
      </trkpt>
      <trkpt lat="49.43827" lon="1.18435">
        <ele>145</ele>
        <time>2017-08-01T16:47:20Z</time>
      </trkpt>
      <trkpt lat="49.43825" lon="1.18443">
        <ele>145</ele>
        <time>2017-08-01T16:47:36Z</time>
      </trkpt>
      <trkpt lat="49.43824" lon="1.18452">
        <ele>145</ele>
        <time>2017-08-01T16:47:36Z</time>
      </trkpt>
      <trkpt lat="49.43823" lon="1.18459">
        <ele>146</ele>
        <time>2017-08-01T16:47:36Z</time>
      </trkpt>
      <trkpt lat="49.4382" lon="1.18469">
        <ele>146</ele>
        <time>2017-08-01T16:47:36Z</time>
      </trkpt>
      <trkpt lat="49.4382" lon="1.18475">
        <ele>146</ele>
        <time>2017-08-01T16:47:52Z</time>
      </trkpt>
      <trkpt lat="49.43822" lon="1.18482">
        <ele>146</ele>
        <time>2017-08-01T16:47:52Z</time>
      </trkpt>
      <trkpt lat="49.43824" lon="1.18484">
        <ele>146</ele>
        <time>2017-08-01T16:47:52Z</time>
      </trkpt>
      <trkpt lat="49.43828" lon="1.18487">
        <ele>146</ele>
        <time>2017-08-01T16:47:52Z</time>
      </trkpt>
      <trkpt lat="49.43831" lon="1.18493">
        <ele>146</ele>
        <time>2017-08-01T16:49:56Z</time>
      </trkpt>
      <trkpt lat="49.43831" lon="1.18493">
        <ele>146</ele>
        <time>2017-08-01T16:49:56Z</time>
      </trkpt>
      <trkpt lat="49.43831" lon="1.18493">
        <ele>146</ele>
        <time>2017-08-01T16:49:56Z</time>
      </trkpt>
      <trkpt lat="49.43831" lon="1.18495">
        <ele>146</ele>
        <time>2017-08-01T16:49:56Z</time>
      </trkpt>
      <trkpt lat="49.4383" lon="1.18502">
        <ele>146</ele>
        <time>2017-08-01T16:49:56Z</time>
      </trkpt>
      <trkpt lat="49.43829" lon="1.18507">
        <ele>146</ele>
        <time>2017-08-01T16:50:12Z</time>
      </trkpt>
      <trkpt lat="49.43829" lon="1.18513">
        <ele>146</ele>
        <time>2017-08-01T16:50:12Z</time>
      </trkpt>
      <trkpt lat="49.43828" lon="1.18523">
        <ele>146</ele>
        <time>2017-08-01T16:50:12Z</time>
      </trkpt>
      <trkpt lat="49.43828" lon="1.18526">
        <ele>146</ele>
        <time>2017-08-01T16:50:12Z</time>
      </trkpt>
      <trkpt lat="49.43826" lon="1.18536">
        <ele>146</ele>
        <time>2017-08-01T16:50:28Z</time>
      </trkpt>
      <trkpt lat="49.43825" lon="1.18544">
        <ele>147</ele>
        <time>2017-08-01T16:50:28Z</time>
      </trkpt>
      <trkpt lat="49.43824" lon="1.1855">
        <ele>147</ele>
        <time>2017-08-01T16:50:28Z</time>
      </trkpt>
      <trkpt lat="49.43824" lon="1.18553">
        <ele>147</ele>
        <time>2017-08-01T16:50:28Z</time>
      </trkpt>
      <trkpt lat="49.43821" lon="1.18565">
        <ele>147</ele>
        <time>2017-08-01T16:50:44Z</time>
      </trkpt>
      <trkpt lat="49.4382" lon="1.18568">
        <ele>147</ele>
        <time>2017-08-01T16:50:44Z</time>
      </trkpt>
      <trkpt lat="49.4382" lon="1.18573">
        <ele>147</ele>
        <time>2017-08-01T16:50:44Z</time>
      </trkpt>
      <trkpt lat="49.43815" lon="1.18586">
        <ele>147</ele>
        <time>2017-08-01T16:50:44Z</time>
      </trkpt>
      <trkpt lat="49.43814" lon="1.18594">
        <ele>147</ele>
        <time>2017-08-01T16:51:00Z</time>
      </trkpt>
      <trkpt lat="49.43813" lon="1.18605">
        <ele>147</ele>
        <time>2017-08-01T16:51:00Z</time>
      </trkpt>
      <trkpt lat="49.43812" lon="1.18611">
        <ele>147</ele>
        <time>2017-08-01T16:51:00Z</time>
      </trkpt>
      <trkpt lat="49.43811" lon="1.18613">
        <ele>147</ele>
        <time>2017-08-01T16:51:00Z</time>
      </trkpt>
      <trkpt lat="49.43812" lon="1.18618">
        <ele>147</ele>
        <time>2017-08-01T16:51:16Z</time>
      </trkpt>
      <trkpt lat="49.4381" lon="1.18626">
        <ele>149</ele>
        <time>2017-08-01T16:51:16Z</time>
      </trkpt>
      <trkpt lat="49.43809" lon="1.18636">
        <ele>149</ele>
        <time>2017-08-01T16:51:16Z</time>
      </trkpt>
      <trkpt lat="49.43807" lon="1.18644">
        <ele>149</ele>
        <time>2017-08-01T16:51:16Z</time>
      </trkpt>
      <trkpt lat="49.43805" lon="1.18651">
        <ele>149</ele>
        <time>2017-08-01T16:51:36Z</time>
      </trkpt>
      <trkpt lat="49.43805" lon="1.18655">
        <ele>149</ele>
        <time>2017-08-01T16:51:36Z</time>
      </trkpt>
      <trkpt lat="49.43804" lon="1.18658">
        <ele>149</ele>
        <time>2017-08-01T16:51:36Z</time>
      </trkpt>
      <trkpt lat="49.43803" lon="1.18664">
        <ele>149</ele>
        <time>2017-08-01T16:51:36Z</time>
      </trkpt>
      <trkpt lat="49.43801" lon="1.18672">
        <ele>149</ele>
        <time>2017-08-01T16:51:36Z</time>
      </trkpt>
      <trkpt lat="49.43799" lon="1.18683">
        <ele>149</ele>
        <time>2017-08-01T16:51:52Z</time>
      </trkpt>
      <trkpt lat="49.43798" lon="1.18693">
        <ele>149</ele>
        <time>2017-08-01T16:51:52Z</time>
      </trkpt>
      <trkpt lat="49.43797" lon="1.18695">
        <ele>149</ele>
        <time>2017-08-01T16:51:52Z</time>
      </trkpt>
      <trkpt lat="49.43796" lon="1.18698">
        <ele>149</ele>
        <time>2017-08-01T16:51:52Z</time>
      </trkpt>
      <trkpt lat="49.43796" lon="1.187">
        <ele>149</ele>
        <time>2017-08-01T16:52:08Z</time>
      </trkpt>
      <trkpt lat="49.43795" lon="1.18704">
        <ele>149</ele>
        <time>2017-08-01T16:52:08Z</time>
      </trkpt>
      <trkpt lat="49.43794" lon="1.18711">
        <ele>149</ele>
        <time>2017-08-01T16:52:08Z</time>
      </trkpt>
      <trkpt lat="49.43792" lon="1.18723">
        <ele>146</ele>
        <time>2017-08-01T16:52:08Z</time>
      </trkpt>
      <trkpt lat="49.43789" lon="1.18734">
        <ele>146</ele>
        <time>2017-08-01T16:52:24Z</time>
      </trkpt>
      <trkpt lat="49.43787" lon="1.18745">
        <ele>146</ele>
        <time>2017-08-01T16:52:24Z</time>
      </trkpt>
      <trkpt lat="49.43786" lon="1.18753">
        <ele>146</ele>
        <time>2017-08-01T16:52:24Z</time>
      </trkpt>
      <trkpt lat="49.43785" lon="1.18765">
        <ele>146</ele>
        <time>2017-08-01T16:52:24Z</time>
      </trkpt>
      <trkpt lat="49.43783" lon="1.18772">
        <ele>146</ele>
        <time>2017-08-01T16:52:44Z</time>
      </trkpt>
      <trkpt lat="49.43783" lon="1.18777">
        <ele>146</ele>
        <time>2017-08-01T16:52:44Z</time>
      </trkpt>
      <trkpt lat="49.43784" lon="1.18778">
        <ele>146</ele>
        <time>2017-08-01T16:52:44Z</time>
      </trkpt>
      <trkpt lat="49.43781" lon="1.18782">
        <ele>146</ele>
        <time>2017-08-01T16:52:44Z</time>
      </trkpt>
      <trkpt lat="49.43781" lon="1.18788">
        <ele>146</ele>
        <time>2017-08-01T16:52:44Z</time>
      </trkpt>
      <trkpt lat="49.43778" lon="1.18795">
        <ele>147</ele>
        <time>2017-08-01T16:53:00Z</time>
      </trkpt>
      <trkpt lat="49.43778" lon="1.188">
        <ele>147</ele>
        <time>2017-08-01T16:53:00Z</time>
      </trkpt>
      <trkpt lat="49.43776" lon="1.18807">
        <ele>147</ele>
        <time>2017-08-01T16:53:00Z</time>
      </trkpt>
      <trkpt lat="49.43774" lon="1.18815">
        <ele>147</ele>
        <time>2017-08-01T16:53:00Z</time>
      </trkpt>
      <trkpt lat="49.43774" lon="1.18818">
        <ele>147</ele>
        <time>2017-08-01T16:53:16Z</time>
      </trkpt>
      <trkpt lat="49.43774" lon="1.18821">
        <ele>147</ele>
        <time>2017-08-01T16:53:16Z</time>
      </trkpt>
      <trkpt lat="49.43773" lon="1.18832">
        <ele>147</ele>
        <time>2017-08-01T16:53:16Z</time>
      </trkpt>
      <trkpt lat="49.43771" lon="1.18841">
        <ele>147</ele>
        <time>2017-08-01T16:53:16Z</time>
      </trkpt>
      <trkpt lat="49.4377" lon="1.18849">
        <ele>147</ele>
        <time>2017-08-01T16:53:32Z</time>
      </trkpt>
      <trkpt lat="49.43768" lon="1.18859">
        <ele>147</ele>
        <time>2017-08-01T16:53:32Z</time>
      </trkpt>
      <trkpt lat="49.43767" lon="1.18868">
        <ele>147</ele>
        <time>2017-08-01T16:53:32Z</time>
      </trkpt>
      <trkpt lat="49.43766" lon="1.18875">
        <ele>147</ele>
        <time>2017-08-01T16:53:32Z</time>
      </trkpt>
      <trkpt lat="49.43769" lon="1.18881">
        <ele>147</ele>
        <time>2017-08-01T16:54:00Z</time>
      </trkpt>
      <trkpt lat="49.43768" lon="1.18882">
        <ele>147</ele>
        <time>2017-08-01T16:54:00Z</time>
      </trkpt>
      <trkpt lat="49.43767" lon="1.1889">
        <ele>147</ele>
        <time>2017-08-01T16:54:00Z</time>
      </trkpt>
      <trkpt lat="49.43766" lon="1.18893">
        <ele>147</ele>
        <time>2017-08-01T16:54:00Z</time>
      </trkpt>
      <trkpt lat="49.43765" lon="1.18907">
        <ele>147</ele>
        <time>2017-08-01T16:54:00Z</time>
      </trkpt>
      <trkpt lat="49.43764" lon="1.18917">
        <ele>147</ele>
        <time>2017-08-01T16:54:16Z</time>
      </trkpt>
      <trkpt lat="49.43763" lon="1.18923">
        <ele>147</ele>
        <time>2017-08-01T16:54:16Z</time>
      </trkpt>
      <trkpt lat="49.43763" lon="1.18931">
        <ele>147</ele>
        <time>2017-08-01T16:54:16Z</time>
      </trkpt>
      <trkpt lat="49.43763" lon="1.18938">
        <ele>147</ele>
        <time>2017-08-01T16:54:16Z</time>
      </trkpt>
      <trkpt lat="49.43764" lon="1.18949">
        <ele>147</ele>
        <time>2017-08-01T16:54:32Z</time>
      </trkpt>
      <trkpt lat="49.43765" lon="1.18955">
        <ele>147</ele>
        <time>2017-08-01T16:54:32Z</time>
      </trkpt>
      <trkpt lat="49.43766" lon="1.18965">
        <ele>148</ele>
        <time>2017-08-01T16:54:32Z</time>
      </trkpt>
      <trkpt lat="49.43769" lon="1.18972">
        <ele>148</ele>
        <time>2017-08-01T16:54:32Z</time>
      </trkpt>
      <trkpt lat="49.43769" lon="1.18977">
        <ele>148</ele>
        <time>2017-08-01T16:54:48Z</time>
      </trkpt>
      <trkpt lat="49.43771" lon="1.18985">
        <ele>148</ele>
        <time>2017-08-01T16:54:48Z</time>
      </trkpt>
      <trkpt lat="49.43773" lon="1.18993">
        <ele>148</ele>
        <time>2017-08-01T16:54:48Z</time>
      </trkpt>
      <trkpt lat="49.43773" lon="1.19001">
        <ele>148</ele>
        <time>2017-08-01T16:54:48Z</time>
      </trkpt>
      <trkpt lat="49.43775" lon="1.19008">
        <ele>148</ele>
        <time>2017-08-01T16:55:04Z</time>
      </trkpt>
      <trkpt lat="49.43777" lon="1.19016">
        <ele>148</ele>
        <time>2017-08-01T16:55:04Z</time>
      </trkpt>
      <trkpt lat="49.43778" lon="1.19023">
        <ele>148</ele>
        <time>2017-08-01T16:55:04Z</time>
      </trkpt>
      <trkpt lat="49.43778" lon="1.1903">
        <ele>148</ele>
        <time>2017-08-01T16:55:04Z</time>
      </trkpt>
      <trkpt lat="49.43779" lon="1.19036">
        <ele>148</ele>
        <time>2017-08-01T16:55:20Z</time>
      </trkpt>
      <trkpt lat="49.43782" lon="1.19044">
        <ele>146</ele>
        <time>2017-08-01T16:55:20Z</time>
      </trkpt>
      <trkpt lat="49.43784" lon="1.19052">
        <ele>146</ele>
        <time>2017-08-01T16:55:20Z</time>
      </trkpt>
      <trkpt lat="49.43785" lon="1.19057">
        <ele>146</ele>
        <time>2017-08-01T16:55:20Z</time>
      </trkpt>
      <trkpt lat="49.43785" lon="1.19062">
        <ele>146</ele>
        <time>2017-08-01T16:55:36Z</time>
      </trkpt>
      <trkpt lat="49.43787" lon="1.19069">
        <ele>146</ele>
        <time>2017-08-01T16:55:36Z</time>
      </trkpt>
      <trkpt lat="49.43789" lon="1.19075">
        <ele>146</ele>
        <time>2017-08-01T16:55:36Z</time>
      </trkpt>
      <trkpt lat="49.4379" lon="1.19084">
        <ele>146</ele>
        <time>2017-08-01T16:55:36Z</time>
      </trkpt>
      <trkpt lat="49.43791" lon="1.19091">
        <ele>146</ele>
        <time>2017-08-01T16:55:52Z</time>
      </trkpt>
      <trkpt lat="49.43793" lon="1.19097">
        <ele>148</ele>
        <time>2017-08-01T16:55:52Z</time>
      </trkpt>
      <trkpt lat="49.43793" lon="1.19103">
        <ele>148</ele>
        <time>2017-08-01T16:55:52Z</time>
      </trkpt>
      <trkpt lat="49.43794" lon="1.19109">
        <ele>148</ele>
        <time>2017-08-01T16:55:52Z</time>
      </trkpt>
      <trkpt lat="49.43796" lon="1.19118">
        <ele>148</ele>
        <time>2017-08-01T16:56:08Z</time>
      </trkpt>
      <trkpt lat="49.43797" lon="1.19125">
        <ele>149</ele>
        <time>2017-08-01T16:56:08Z</time>
      </trkpt>
      <trkpt lat="49.438" lon="1.19134">
        <ele>149</ele>
        <time>2017-08-01T16:56:08Z</time>
      </trkpt>
      <trkpt lat="49.43801" lon="1.19142">
        <ele>149</ele>
        <time>2017-08-01T16:56:08Z</time>
      </trkpt>
      <trkpt lat="49.43802" lon="1.19149">
        <ele>149</ele>
        <time>2017-08-01T16:56:24Z</time>
      </trkpt>
      <trkpt lat="49.43802" lon="1.1915">
        <ele>149</ele>
        <time>2017-08-01T16:56:24Z</time>
      </trkpt>
      <trkpt lat="49.43803" lon="1.19159">
        <ele>149</ele>
        <time>2017-08-01T16:56:24Z</time>
      </trkpt>
      <trkpt lat="49.43803" lon="1.19162">
        <ele>149</ele>
        <time>2017-08-01T16:56:24Z</time>
      </trkpt>
      <trkpt lat="49.43805" lon="1.19171">
        <ele>149</ele>
        <time>2017-08-01T16:56:40Z</time>
      </trkpt>
      <trkpt lat="49.43807" lon="1.1918">
        <ele>149</ele>
        <time>2017-08-01T16:56:40Z</time>
      </trkpt>
      <trkpt lat="49.43808" lon="1.19189">
        <ele>149</ele>
        <time>2017-08-01T16:56:40Z</time>
      </trkpt>
      <trkpt lat="49.4381" lon="1.19197">
        <ele>149</ele>
        <time>2017-08-01T16:56:40Z</time>
      </trkpt>
      <trkpt lat="49.43811" lon="1.19205">
        <ele>149</ele>
        <time>2017-08-01T16:56:56Z</time>
      </trkpt>
      <trkpt lat="49.43813" lon="1.19213">
        <ele>150</ele>
        <time>2017-08-01T16:56:56Z</time>
      </trkpt>
      <trkpt lat="49.43813" lon="1.1922">
        <ele>150</ele>
        <time>2017-08-01T16:56:56Z</time>
      </trkpt>
      <trkpt lat="49.43813" lon="1.19227">
        <ele>150</ele>
        <time>2017-08-01T16:56:56Z</time>
      </trkpt>
      <trkpt lat="49.43815" lon="1.19234">
        <ele>150</ele>
        <time>2017-08-01T16:57:12Z</time>
      </trkpt>
      <trkpt lat="49.43815" lon="1.1924">
        <ele>150</ele>
        <time>2017-08-01T16:57:12Z</time>
      </trkpt>
      <trkpt lat="49.43816" lon="1.19248">
        <ele>150</ele>
        <time>2017-08-01T16:57:13Z</time>
      </trkpt>
      <trkpt lat="49.43816" lon="1.19256">
        <ele>150</ele>
        <time>2017-08-01T16:57:13Z</time>
      </trkpt>
      <trkpt lat="49.43817" lon="1.19264">
        <ele>150</ele>
        <time>2017-08-01T16:57:28Z</time>
      </trkpt>
      <trkpt lat="49.43818" lon="1.19272">
        <ele>150</ele>
        <time>2017-08-01T16:57:28Z</time>
      </trkpt>
      <trkpt lat="49.43819" lon="1.19279">
        <ele>150</ele>
        <time>2017-08-01T16:57:28Z</time>
      </trkpt>
      <trkpt lat="49.4382" lon="1.19286">
        <ele>150</ele>
        <time>2017-08-01T16:57:28Z</time>
      </trkpt>
      <trkpt lat="49.4382" lon="1.19292">
        <ele>150</ele>
        <time>2017-08-01T16:57:44Z</time>
      </trkpt>
      <trkpt lat="49.4382" lon="1.19298">
        <ele>150</ele>
        <time>2017-08-01T16:57:44Z</time>
      </trkpt>
      <trkpt lat="49.4382" lon="1.19303">
        <ele>150</ele>
        <time>2017-08-01T16:57:44Z</time>
      </trkpt>
      <trkpt lat="49.43821" lon="1.1931">
        <ele>150</ele>
        <time>2017-08-01T16:57:44Z</time>
      </trkpt>
      <trkpt lat="49.43821" lon="1.19326">
        <ele>150</ele>
        <time>2017-08-01T16:58:08Z</time>
      </trkpt>
      <trkpt lat="49.4382" lon="1.19327">
        <ele>150</ele>
        <time>2017-08-01T16:58:08Z</time>
      </trkpt>
      <trkpt lat="49.4382" lon="1.19328">
        <ele>150</ele>
        <time>2017-08-01T16:58:08Z</time>
      </trkpt>
      <trkpt lat="49.4382" lon="1.19332">
        <ele>150</ele>
        <time>2017-08-01T16:58:08Z</time>
      </trkpt>
      <trkpt lat="49.4382" lon="1.19341">
        <ele>150</ele>
        <time>2017-08-01T16:58:08Z</time>
      </trkpt>
      <trkpt lat="49.43819" lon="1.19354">
        <ele>150</ele>
        <time>2017-08-01T16:58:24Z</time>
      </trkpt>
      <trkpt lat="49.43817" lon="1.19366">
        <ele>150</ele>
        <time>2017-08-01T16:58:24Z</time>
      </trkpt>
      <trkpt lat="49.43817" lon="1.19376">
        <ele>149</ele>
        <time>2017-08-01T16:58:24Z</time>
      </trkpt>
      <trkpt lat="49.43817" lon="1.19378">
        <ele>149</ele>
        <time>2017-08-01T16:58:24Z</time>
      </trkpt>
      <trkpt lat="49.43817" lon="1.19389">
        <ele>149</ele>
        <time>2017-08-01T16:58:40Z</time>
      </trkpt>
      <trkpt lat="49.43816" lon="1.19397">
        <ele>149</ele>
        <time>2017-08-01T16:58:40Z</time>
      </trkpt>
      <trkpt lat="49.43815" lon="1.19406">
        <ele>149</ele>
        <time>2017-08-01T16:58:40Z</time>
      </trkpt>
      <trkpt lat="49.43815" lon="1.19417">
        <ele>149</ele>
        <time>2017-08-01T16:58:40Z</time>
      </trkpt>
      <trkpt lat="49.43813" lon="1.19424">
        <ele>149</ele>
        <time>2017-08-01T16:58:56Z</time>
      </trkpt>
      <trkpt lat="49.43812" lon="1.19429">
        <ele>149</ele>
        <time>2017-08-01T16:58:56Z</time>
      </trkpt>
      <trkpt lat="49.43811" lon="1.19437">
        <ele>149</ele>
        <time>2017-08-01T16:58:56Z</time>
      </trkpt>
      <trkpt lat="49.4381" lon="1.19439">
        <ele>149</ele>
        <time>2017-08-01T16:58:56Z</time>
      </trkpt>
      <trkpt lat="49.43809" lon="1.19449">
        <ele>149</ele>
        <time>2017-08-01T16:59:12Z</time>
      </trkpt>
      <trkpt lat="49.43808" lon="1.19459">
        <ele>150</ele>
        <time>2017-08-01T16:59:12Z</time>
      </trkpt>
      <trkpt lat="49.43807" lon="1.19465">
        <ele>150</ele>
        <time>2017-08-01T16:59:12Z</time>
      </trkpt>
      <trkpt lat="49.43806" lon="1.19468">
        <ele>150</ele>
        <time>2017-08-01T16:59:12Z</time>
      </trkpt>
      <trkpt lat="49.43806" lon="1.19476">
        <ele>150</ele>
        <time>2017-08-01T16:59:28Z</time>
      </trkpt>
      <trkpt lat="49.43804" lon="1.19486">
        <ele>150</ele>
        <time>2017-08-01T16:59:28Z</time>
      </trkpt>
      <trkpt lat="49.43802" lon="1.19495">
        <ele>150</ele>
        <time>2017-08-01T16:59:28Z</time>
      </trkpt>
      <trkpt lat="49.43802" lon="1.19496">
        <ele>150</ele>
        <time>2017-08-01T16:59:28Z</time>
      </trkpt>
      <trkpt lat="49.438" lon="1.19504">
        <ele>150</ele>
        <time>2017-08-01T16:59:44Z</time>
      </trkpt>
      <trkpt lat="49.43798" lon="1.19512">
        <ele>150</ele>
        <time>2017-08-01T16:59:44Z</time>
      </trkpt>
      <trkpt lat="49.43798" lon="1.19514">
        <ele>150</ele>
        <time>2017-08-01T16:59:44Z</time>
      </trkpt>
      <trkpt lat="49.43797" lon="1.19523">
        <ele>150</ele>
        <time>2017-08-01T16:59:44Z</time>
      </trkpt>
      <trkpt lat="49.43795" lon="1.19531">
        <ele>150</ele>
        <time>2017-08-01T17:00:00Z</time>
      </trkpt>
      <trkpt lat="49.43794" lon="1.19538">
        <ele>150</ele>
        <time>2017-08-01T17:00:00Z</time>
      </trkpt>
      <trkpt lat="49.43793" lon="1.19541">
        <ele>150</ele>
        <time>2017-08-01T17:00:00Z</time>
      </trkpt>
      <trkpt lat="49.43793" lon="1.1955">
        <ele>149</ele>
        <time>2017-08-01T17:00:00Z</time>
      </trkpt>
      <trkpt lat="49.4379" lon="1.1956">
        <ele>147</ele>
        <time>2017-08-01T17:00:16Z</time>
      </trkpt>
      <trkpt lat="49.43789" lon="1.19571">
        <ele>147</ele>
        <time>2017-08-01T17:00:16Z</time>
      </trkpt>
      <trkpt lat="49.43787" lon="1.19577">
        <ele>147</ele>
        <time>2017-08-01T17:00:16Z</time>
      </trkpt>
      <trkpt lat="49.43784" lon="1.19583">
        <ele>147</ele>
        <time>2017-08-01T17:00:16Z</time>
      </trkpt>
      <trkpt lat="49.43783" lon="1.19593">
        <ele>147</ele>
        <time>2017-08-01T17:00:32Z</time>
      </trkpt>
      <trkpt lat="49.43782" lon="1.196">
        <ele>147</ele>
        <time>2017-08-01T17:00:32Z</time>
      </trkpt>
      <trkpt lat="49.43781" lon="1.19609">
        <ele>147</ele>
        <time>2017-08-01T17:00:32Z</time>
      </trkpt>
      <trkpt lat="49.4378" lon="1.19611">
        <ele>147</ele>
        <time>2017-08-01T17:00:32Z</time>
      </trkpt>
      <trkpt lat="49.43778" lon="1.1962">
        <ele>147</ele>
        <time>2017-08-01T17:00:48Z</time>
      </trkpt>
      <trkpt lat="49.43777" lon="1.19633">
        <ele>147</ele>
        <time>2017-08-01T17:00:48Z</time>
      </trkpt>
      <trkpt lat="49.43777" lon="1.19638">
        <ele>147</ele>
        <time>2017-08-01T17:00:48Z</time>
      </trkpt>
      <trkpt lat="49.43774" lon="1.19646">
        <ele>147</ele>
        <time>2017-08-01T17:00:48Z</time>
      </trkpt>
      <trkpt lat="49.4377" lon="1.19657">
        <ele>147</ele>
        <time>2017-08-01T17:01:12Z</time>
      </trkpt>
      <trkpt lat="49.43769" lon="1.19661">
        <ele>147</ele>
        <time>2017-08-01T17:01:12Z</time>
      </trkpt>
      <trkpt lat="49.43769" lon="1.19663">
        <ele>147</ele>
        <time>2017-08-01T17:01:12Z</time>
      </trkpt>
      <trkpt lat="49.43768" lon="1.19664">
        <ele>147</ele>
        <time>2017-08-01T17:01:12Z</time>
      </trkpt>
      <trkpt lat="49.43767" lon="1.19669">
        <ele>147</ele>
        <time>2017-08-01T17:01:12Z</time>
      </trkpt>
      <trkpt lat="49.43765" lon="1.19675">
        <ele>147</ele>
        <time>2017-08-01T17:01:28Z</time>
      </trkpt>
      <trkpt lat="49.43765" lon="1.19678">
        <ele>147</ele>
        <time>2017-08-01T17:01:28Z</time>
      </trkpt>
      <trkpt lat="49.43763" lon="1.19686">
        <ele>147</ele>
        <time>2017-08-01T17:01:28Z</time>
      </trkpt>
      <trkpt lat="49.43761" lon="1.19696">
        <ele>147</ele>
        <time>2017-08-01T17:01:28Z</time>
      </trkpt>
      <trkpt lat="49.4376" lon="1.197">
        <ele>147</ele>
        <time>2017-08-01T17:01:44Z</time>
      </trkpt>
      <trkpt lat="49.43759" lon="1.19703">
        <ele>147</ele>
        <time>2017-08-01T17:01:44Z</time>
      </trkpt>
      <trkpt lat="49.43757" lon="1.1971">
        <ele>148</ele>
        <time>2017-08-01T17:01:44Z</time>
      </trkpt>
      <trkpt lat="49.43756" lon="1.19716">
        <ele>148</ele>
        <time>2017-08-01T17:01:44Z</time>
      </trkpt>
      <trkpt lat="49.43753" lon="1.1973">
        <ele>148</ele>
        <time>2017-08-01T17:02:00Z</time>
      </trkpt>
      <trkpt lat="49.43752" lon="1.19737">
        <ele>148</ele>
        <time>2017-08-01T17:02:00Z</time>
      </trkpt>
      <trkpt lat="49.4375" lon="1.19746">
        <ele>148</ele>
        <time>2017-08-01T17:02:00Z</time>
      </trkpt>
      <trkpt lat="49.43749" lon="1.19753">
        <ele>148</ele>
        <time>2017-08-01T17:02:00Z</time>
      </trkpt>
      <trkpt lat="49.43746" lon="1.19766">
        <ele>148</ele>
        <time>2017-08-01T17:02:16Z</time>
      </trkpt>
      <trkpt lat="49.43745" lon="1.1977">
        <ele>148</ele>
        <time>2017-08-01T17:02:16Z</time>
      </trkpt>
      <trkpt lat="49.43744" lon="1.19773">
        <ele>148</ele>
        <time>2017-08-01T17:02:16Z</time>
      </trkpt>
      <trkpt lat="49.43742" lon="1.1978">
        <ele>148</ele>
        <time>2017-08-01T17:02:16Z</time>
      </trkpt>
      <trkpt lat="49.43741" lon="1.19791">
        <ele>148</ele>
        <time>2017-08-01T17:02:32Z</time>
      </trkpt>
      <trkpt lat="49.43738" lon="1.19804">
        <ele>149</ele>
        <time>2017-08-01T17:02:32Z</time>
      </trkpt>
      <trkpt lat="49.43736" lon="1.19807">
        <ele>149</ele>
        <time>2017-08-01T17:02:32Z</time>
      </trkpt>
      <trkpt lat="49.43736" lon="1.19812">
        <ele>149</ele>
        <time>2017-08-01T17:02:32Z</time>
      </trkpt>
      <trkpt lat="49.43733" lon="1.19824">
        <ele>149</ele>
        <time>2017-08-01T17:03:08Z</time>
      </trkpt>
      <trkpt lat="49.43733" lon="1.19825">
        <ele>149</ele>
        <time>2017-08-01T17:03:08Z</time>
      </trkpt>
      <trkpt lat="49.43733" lon="1.19826">
        <ele>149</ele>
        <time>2017-08-01T17:03:08Z</time>
      </trkpt>
      <trkpt lat="49.43733" lon="1.19827">
        <ele>149</ele>
        <time>2017-08-01T17:03:08Z</time>
      </trkpt>
      <trkpt lat="49.43733" lon="1.19827">
        <ele>149</ele>
        <time>2017-08-01T17:03:08Z</time>
      </trkpt>
      <trkpt lat="49.43729" lon="1.19835">
        <ele>149</ele>
        <time>2017-08-01T17:07:32Z</time>
      </trkpt>
      <trkpt lat="49.43729" lon="1.19838">
        <ele>149</ele>
        <time>2017-08-01T17:07:32Z</time>
      </trkpt>
      <trkpt lat="49.43728" lon="1.19844">
        <ele>149</ele>
        <time>2017-08-01T17:07:32Z</time>
      </trkpt>
      <trkpt lat="49.43727" lon="1.19848">
        <ele>149</ele>
        <time>2017-08-01T17:07:32Z</time>
      </trkpt>
      <trkpt lat="49.43727" lon="1.1985">
        <ele>149</ele>
        <time>2017-08-01T17:07:32Z</time>
      </trkpt>
      <trkpt lat="49.43728" lon="1.19851">
        <ele>149</ele>
        <time>2017-08-01T17:08:00Z</time>
      </trkpt>
      <trkpt lat="49.43728" lon="1.19857">
        <ele>149</ele>
        <time>2017-08-01T17:08:00Z</time>
      </trkpt>
      <trkpt lat="49.43727" lon="1.19859">
        <ele>149</ele>
        <time>2017-08-01T17:08:00Z</time>
      </trkpt>
      <trkpt lat="49.43725" lon="1.19868">
        <ele>149</ele>
        <time>2017-08-01T17:08:00Z</time>
      </trkpt>
      <trkpt lat="49.43725" lon="1.19871">
        <ele>149</ele>
        <time>2017-08-01T17:08:00Z</time>
      </trkpt>
      <trkpt lat="49.43724" lon="1.19872">
        <ele>149</ele>
        <time>2017-08-01T17:08:16Z</time>
      </trkpt>
      <trkpt lat="49.43722" lon="1.19887">
        <ele>151</ele>
        <time>2017-08-01T17:08:16Z</time>
      </trkpt>
      <trkpt lat="49.4372" lon="1.19896">
        <ele>151</ele>
        <time>2017-08-01T17:08:16Z</time>
      </trkpt>
      <trkpt lat="49.4372" lon="1.199">
        <ele>151</ele>
        <time>2017-08-01T17:08:16Z</time>
      </trkpt>
      <trkpt lat="49.43719" lon="1.199">
        <ele>151</ele>
        <time>2017-08-01T17:08:36Z</time>
      </trkpt>
      <trkpt lat="49.43719" lon="1.19902">
        <ele>151</ele>
        <time>2017-08-01T17:08:36Z</time>
      </trkpt>
      <trkpt lat="49.4372" lon="1.19903">
        <ele>151</ele>
        <time>2017-08-01T17:08:36Z</time>
      </trkpt>
      <trkpt lat="49.43718" lon="1.19905">
        <ele>151</ele>
        <time>2017-08-01T17:08:36Z</time>
      </trkpt>
      <trkpt lat="49.43715" lon="1.19916">
        <ele>151</ele>
        <time>2017-08-01T17:08:36Z</time>
      </trkpt>
      <trkpt lat="49.43714" lon="1.19921">
        <ele>151</ele>
        <time>2017-08-01T17:08:52Z</time>
      </trkpt>
      <trkpt lat="49.43715" lon="1.19932">
        <ele>151</ele>
        <time>2017-08-01T17:08:52Z</time>
      </trkpt>
      <trkpt lat="49.43714" lon="1.19935">
        <ele>151</ele>
        <time>2017-08-01T17:08:52Z</time>
      </trkpt>
      <trkpt lat="49.43713" lon="1.19941">
        <ele>151</ele>
        <time>2017-08-01T17:08:52Z</time>
      </trkpt>
      <trkpt lat="49.43712" lon="1.19949">
        <ele>151</ele>
        <time>2017-08-01T17:09:08Z</time>
      </trkpt>
      <trkpt lat="49.43713" lon="1.19953">
        <ele>151</ele>
        <time>2017-08-01T17:09:08Z</time>
      </trkpt>
      <trkpt lat="49.43708" lon="1.19964">
        <ele>151</ele>
        <time>2017-08-01T17:09:08Z</time>
      </trkpt>
      <trkpt lat="49.43709" lon="1.19974">
        <ele>151</ele>
        <time>2017-08-01T17:09:08Z</time>
      </trkpt>
      <trkpt lat="49.43709" lon="1.19983">
        <ele>151</ele>
        <time>2017-08-01T17:09:24Z</time>
      </trkpt>
      <trkpt lat="49.43707" lon="1.19984">
        <ele>151</ele>
        <time>2017-08-01T17:09:24Z</time>
      </trkpt>
      <trkpt lat="49.43705" lon="1.19991">
        <ele>151</ele>
        <time>2017-08-01T17:09:24Z</time>
      </trkpt>
      <trkpt lat="49.43702" lon="1.20003">
        <ele>151</ele>
        <time>2017-08-01T17:09:24Z</time>
      </trkpt>
      <trkpt lat="49.43702" lon="1.20011">
        <ele>151</ele>
        <time>2017-08-01T17:09:40Z</time>
      </trkpt>
      <trkpt lat="49.43703" lon="1.20012">
        <ele>151</ele>
        <time>2017-08-01T17:09:40Z</time>
      </trkpt>
      <trkpt lat="49.43702" lon="1.20019">
        <ele>151</ele>
        <time>2017-08-01T17:09:40Z</time>
      </trkpt>
      <trkpt lat="49.43702" lon="1.20028">
        <ele>151</ele>
        <time>2017-08-01T17:09:40Z</time>
      </trkpt>
      <trkpt lat="49.43708" lon="1.20036">
        <ele>151</ele>
        <time>2017-08-01T17:09:56Z</time>
      </trkpt>
      <trkpt lat="49.43706" lon="1.20041">
        <ele>151</ele>
        <time>2017-08-01T17:09:56Z</time>
      </trkpt>
      <trkpt lat="49.43705" lon="1.20045">
        <ele>150</ele>
        <time>2017-08-01T17:09:56Z</time>
      </trkpt>
      <trkpt lat="49.43702" lon="1.20058">
        <ele>150</ele>
        <time>2017-08-01T17:09:56Z</time>
      </trkpt>
      <trkpt lat="49.43703" lon="1.20066">
        <ele>150</ele>
        <time>2017-08-01T17:10:12Z</time>
      </trkpt>
      <trkpt lat="49.43701" lon="1.20075">
        <ele>150</ele>
        <time>2017-08-01T17:10:12Z</time>
      </trkpt>
      <trkpt lat="49.43699" lon="1.2008">
        <ele>150</ele>
        <time>2017-08-01T17:10:12Z</time>
      </trkpt>
      <trkpt lat="49.43697" lon="1.20088">
        <ele>150</ele>
        <time>2017-08-01T17:10:12Z</time>
      </trkpt>
      <trkpt lat="49.43697" lon="1.20097">
        <ele>150</ele>
        <time>2017-08-01T17:10:28Z</time>
      </trkpt>
      <trkpt lat="49.43695" lon="1.20107">
        <ele>150</ele>
        <time>2017-08-01T17:10:28Z</time>
      </trkpt>
      <trkpt lat="49.43693" lon="1.20107">
        <ele>150</ele>
        <time>2017-08-01T17:10:28Z</time>
      </trkpt>
      <trkpt lat="49.43693" lon="1.20116">
        <ele>150</ele>
        <time>2017-08-01T17:10:28Z</time>
      </trkpt>
      <trkpt lat="49.43688" lon="1.20123">
        <ele>150</ele>
        <time>2017-08-01T17:10:44Z</time>
      </trkpt>
      <trkpt lat="49.43688" lon="1.20128">
        <ele>152</ele>
        <time>2017-08-01T17:10:44Z</time>
      </trkpt>
      <trkpt lat="49.43689" lon="1.20137">
        <ele>152</ele>
        <time>2017-08-01T17:10:44Z</time>
      </trkpt>
      <trkpt lat="49.43689" lon="1.20143">
        <ele>152</ele>
        <time>2017-08-01T17:10:44Z</time>
      </trkpt>
      <trkpt lat="49.43688" lon="1.2015">
        <ele>152</ele>
        <time>2017-08-01T17:11:00Z</time>
      </trkpt>
      <trkpt lat="49.43687" lon="1.20159">
        <ele>152</ele>
        <time>2017-08-01T17:11:00Z</time>
      </trkpt>
      <trkpt lat="49.43686" lon="1.20165">
        <ele>152</ele>
        <time>2017-08-01T17:11:00Z</time>
      </trkpt>
      <trkpt lat="49.43686" lon="1.20176">
        <ele>152</ele>
        <time>2017-08-01T17:11:00Z</time>
      </trkpt>
      <trkpt lat="49.43686" lon="1.20185">
        <ele>152</ele>
        <time>2017-08-01T17:11:20Z</time>
      </trkpt>
      <trkpt lat="49.43685" lon="1.20189">
        <ele>152</ele>
        <time>2017-08-01T17:11:20Z</time>
      </trkpt>
      <trkpt lat="49.43683" lon="1.20196">
        <ele>152</ele>
        <time>2017-08-01T17:11:20Z</time>
      </trkpt>
      <trkpt lat="49.43683" lon="1.20196">
        <ele>152</ele>
        <time>2017-08-01T17:11:20Z</time>
      </trkpt>
      <trkpt lat="49.43683" lon="1.20204">
        <ele>152</ele>
        <time>2017-08-01T17:11:20Z</time>
      </trkpt>
      <trkpt lat="49.43683" lon="1.20206">
        <ele>152</ele>
        <time>2017-08-01T17:11:52Z</time>
      </trkpt>
      <trkpt lat="49.43683" lon="1.20207">
        <ele>152</ele>
        <time>2017-08-01T17:11:52Z</time>
      </trkpt>
      <trkpt lat="49.43683" lon="1.20207">
        <ele>152</ele>
        <time>2017-08-01T17:11:52Z</time>
      </trkpt>
      <trkpt lat="49.43683" lon="1.20207">
        <ele>152</ele>
        <time>2017-08-01T17:11:52Z</time>
      </trkpt>
      <trkpt lat="49.43692" lon="1.20217">
        <ele>154</ele>
        <time>2017-08-01T17:11:52Z</time>
      </trkpt>
      <trkpt lat="49.43696" lon="1.20224">
        <ele>154</ele>
        <time>2017-08-01T17:12:08Z</time>
      </trkpt>
      <trkpt lat="49.437" lon="1.20227">
        <ele>154</ele>
        <time>2017-08-01T17:12:08Z</time>
      </trkpt>
      <trkpt lat="49.43708" lon="1.20231">
        <ele>154</ele>
        <time>2017-08-01T17:12:08Z</time>
      </trkpt>
      <trkpt lat="49.43709" lon="1.20235">
        <ele>153</ele>
        <time>2017-08-01T17:12:08Z</time>
      </trkpt>
      <trkpt lat="49.43714" lon="1.20242">
        <ele>153</ele>
        <time>2017-08-01T17:12:24Z</time>
      </trkpt>
      <trkpt lat="49.4372" lon="1.20245">
        <ele>153</ele>
        <time>2017-08-01T17:12:24Z</time>
      </trkpt>
      <trkpt lat="49.4372" lon="1.20249">
        <ele>153</ele>
        <time>2017-08-01T17:12:24Z</time>
      </trkpt>
      <trkpt lat="49.43726" lon="1.20255">
        <ele>153</ele>
        <time>2017-08-01T17:12:24Z</time>
      </trkpt>
      <trkpt lat="49.43728" lon="1.2026">
        <ele>153</ele>
        <time>2017-08-01T17:12:40Z</time>
      </trkpt>
      <trkpt lat="49.43729" lon="1.20264">
        <ele>153</ele>
        <time>2017-08-01T17:12:40Z</time>
      </trkpt>
      <trkpt lat="49.43737" lon="1.20263">
        <ele>153</ele>
        <time>2017-08-01T17:12:40Z</time>
      </trkpt>
      <trkpt lat="49.43739" lon="1.20263">
        <ele>153</ele>
        <time>2017-08-01T17:12:40Z</time>
      </trkpt>
      <trkpt lat="49.43742" lon="1.20269">
        <ele>153</ele>
        <time>2017-08-01T17:12:56Z</time>
      </trkpt>
      <trkpt lat="49.43745" lon="1.2027">
        <ele>153</ele>
        <time>2017-08-01T17:12:57Z</time>
      </trkpt>
      <trkpt lat="49.43749" lon="1.20275">
        <ele>153</ele>
        <time>2017-08-01T17:12:57Z</time>
      </trkpt>
      <trkpt lat="49.43758" lon="1.2028">
        <ele>153</ele>
        <time>2017-08-01T17:12:57Z</time>
      </trkpt>
      <trkpt lat="49.43764" lon="1.20283">
        <ele>153</ele>
        <time>2017-08-01T17:13:12Z</time>
      </trkpt>
      <trkpt lat="49.43767" lon="1.20286">
        <ele>153</ele>
        <time>2017-08-01T17:13:12Z</time>
      </trkpt>
      <trkpt lat="49.43771" lon="1.2029">
        <ele>153</ele>
        <time>2017-08-01T17:13:12Z</time>
      </trkpt>
      <trkpt lat="49.43774" lon="1.20291">
        <ele>153</ele>
        <time>2017-08-01T17:13:12Z</time>
      </trkpt>
      <trkpt lat="49.4378" lon="1.20296">
        <ele>154</ele>
        <time>2017-08-01T17:13:28Z</time>
      </trkpt>
      <trkpt lat="49.43783" lon="1.20298">
        <ele>154</ele>
        <time>2017-08-01T17:13:28Z</time>
      </trkpt>
      <trkpt lat="49.43789" lon="1.203">
        <ele>154</ele>
        <time>2017-08-01T17:13:29Z</time>
      </trkpt>
      <trkpt lat="49.43792" lon="1.203">
        <ele>155</ele>
        <time>2017-08-01T17:13:29Z</time>
      </trkpt>
      <trkpt lat="49.438" lon="1.20307">
        <ele>155</ele>
        <time>2017-08-01T17:13:52Z</time>
      </trkpt>
      <trkpt lat="49.43802" lon="1.20307">
        <ele>155</ele>
        <time>2017-08-01T17:13:52Z</time>
      </trkpt>
      <trkpt lat="49.43806" lon="1.2031">
        <ele>155</ele>
        <time>2017-08-01T17:13:52Z</time>
      </trkpt>
      <trkpt lat="49.43806" lon="1.20312">
        <ele>155</ele>
        <time>2017-08-01T17:13:52Z</time>
      </trkpt>
      <trkpt lat="49.43806" lon="1.20312">
        <ele>155</ele>
        <time>2017-08-01T17:13:52Z</time>
      </trkpt>
      <trkpt lat="49.43807" lon="1.20313">
        <ele>155</ele>
        <time>2017-08-01T17:14:08Z</time>
      </trkpt>
      <trkpt lat="49.43807" lon="1.20314">
        <ele>155</ele>
        <time>2017-08-01T17:14:08Z</time>
      </trkpt>
      <trkpt lat="49.43812" lon="1.20321">
        <ele>155</ele>
        <time>2017-08-01T17:14:08Z</time>
      </trkpt>
      <trkpt lat="49.43819" lon="1.20325">
        <ele>155</ele>
        <time>2017-08-01T17:14:08Z</time>
      </trkpt>
      <trkpt lat="49.43824" lon="1.20327">
        <ele>155</ele>
        <time>2017-08-01T17:14:24Z</time>
      </trkpt>
      <trkpt lat="49.43829" lon="1.2033">
        <ele>155</ele>
        <time>2017-08-01T17:14:24Z</time>
      </trkpt>
      <trkpt lat="49.43834" lon="1.20331">
        <ele>155</ele>
        <time>2017-08-01T17:14:24Z</time>
      </trkpt>
      <trkpt lat="49.43837" lon="1.20334">
        <ele>155</ele>
        <time>2017-08-01T17:14:24Z</time>
      </trkpt>
      <trkpt lat="49.43844" lon="1.20338">
        <ele>155</ele>
        <time>2017-08-01T17:14:40Z</time>
      </trkpt>
      <trkpt lat="49.43848" lon="1.20343">
        <ele>155</ele>
        <time>2017-08-01T17:14:40Z</time>
      </trkpt>
      <trkpt lat="49.43855" lon="1.20345">
        <ele>155</ele>
        <time>2017-08-01T17:14:40Z</time>
      </trkpt>
      <trkpt lat="49.4386" lon="1.20351">
        <ele>155</ele>
        <time>2017-08-01T17:14:40Z</time>
      </trkpt>
      <trkpt lat="49.43865" lon="1.20354">
        <ele>155</ele>
        <time>2017-08-01T17:14:56Z</time>
      </trkpt>
      <trkpt lat="49.43869" lon="1.20359">
        <ele>155</ele>
        <time>2017-08-01T17:14:56Z</time>
      </trkpt>
      <trkpt lat="49.43871" lon="1.20365">
        <ele>155</ele>
        <time>2017-08-01T17:14:56Z</time>
      </trkpt>
      <trkpt lat="49.43873" lon="1.20371">
        <ele>155</ele>
        <time>2017-08-01T17:14:56Z</time>
      </trkpt>
      <trkpt lat="49.43879" lon="1.20371">
        <ele>157</ele>
        <time>2017-08-01T17:15:12Z</time>
      </trkpt>
      <trkpt lat="49.43882" lon="1.20375">
        <ele>157</ele>
        <time>2017-08-01T17:15:12Z</time>
      </trkpt>
      <trkpt lat="49.43887" lon="1.20375">
        <ele>159</ele>
        <time>2017-08-01T17:15:12Z</time>
      </trkpt>
      <trkpt lat="49.4389" lon="1.20378">
        <ele>159</ele>
        <time>2017-08-01T17:15:12Z</time>
      </trkpt>
      <trkpt lat="49.43895" lon="1.2038">
        <ele>159</ele>
        <time>2017-08-01T17:15:28Z</time>
      </trkpt>
      <trkpt lat="49.43898" lon="1.20382">
        <ele>159</ele>
        <time>2017-08-01T17:15:28Z</time>
      </trkpt>
      <trkpt lat="49.43901" lon="1.20383">
        <ele>159</ele>
        <time>2017-08-01T17:15:28Z</time>
      </trkpt>
      <trkpt lat="49.43905" lon="1.20383">
        <ele>159</ele>
        <time>2017-08-01T17:15:28Z</time>
      </trkpt>
      <trkpt lat="49.43909" lon="1.20385">
        <ele>159</ele>
        <time>2017-08-01T17:15:44Z</time>
      </trkpt>
      <trkpt lat="49.43913" lon="1.20386">
        <ele>159</ele>
        <time>2017-08-01T17:15:44Z</time>
      </trkpt>
      <trkpt lat="49.43919" lon="1.20386">
        <ele>159</ele>
        <time>2017-08-01T17:15:44Z</time>
      </trkpt>
      <trkpt lat="49.43926" lon="1.20386">
        <ele>159</ele>
        <time>2017-08-01T17:15:44Z</time>
      </trkpt>
      <trkpt lat="49.43928" lon="1.20385">
        <ele>159</ele>
        <time>2017-08-01T17:16:00Z</time>
      </trkpt>
      <trkpt lat="49.43929" lon="1.20385">
        <ele>159</ele>
        <time>2017-08-01T17:16:00Z</time>
      </trkpt>
      <trkpt lat="49.43932" lon="1.20377">
        <ele>159</ele>
        <time>2017-08-01T17:16:00Z</time>
      </trkpt>
      <trkpt lat="49.43938" lon="1.20376">
        <ele>159</ele>
        <time>2017-08-01T17:16:00Z</time>
      </trkpt>
      <trkpt lat="49.43942" lon="1.2037">
        <ele>157</ele>
        <time>2017-08-01T17:16:16Z</time>
      </trkpt>
      <trkpt lat="49.43952" lon="1.20367">
        <ele>157</ele>
        <time>2017-08-01T17:16:16Z</time>
      </trkpt>
      <trkpt lat="49.43953" lon="1.20362">
        <ele>157</ele>
        <time>2017-08-01T17:16:16Z</time>
      </trkpt>
      <trkpt lat="49.43957" lon="1.20356">
        <ele>157</ele>
        <time>2017-08-01T17:16:16Z</time>
      </trkpt>
      <trkpt lat="49.43961" lon="1.20341">
        <ele>159</ele>
        <time>2017-08-01T17:17:04Z</time>
      </trkpt>
      <trkpt lat="49.43961" lon="1.20341">
        <ele>159</ele>
        <time>2017-08-01T17:17:04Z</time>
      </trkpt>
      <trkpt lat="49.4397" lon="1.20332">
        <ele>159</ele>
        <time>2017-08-01T17:17:04Z</time>
      </trkpt>
      <trkpt lat="49.4397" lon="1.20321">
        <ele>159</ele>
        <time>2017-08-01T17:17:04Z</time>
      </trkpt>
      <trkpt lat="49.43969" lon="1.2031">
        <ele>159</ele>
        <time>2017-08-01T17:17:04Z</time>
      </trkpt>
      <trkpt lat="49.43964" lon="1.20272">
        <ele>160</ele>
        <time>2017-08-01T17:22:32Z</time>
      </trkpt>
      <trkpt lat="49.43982" lon="1.20278">
        <ele>160</ele>
        <time>2017-08-01T17:22:32Z</time>
      </trkpt>
      <trkpt lat="49.43986" lon="1.20271">
        <ele>160</ele>
        <time>2017-08-01T17:22:32Z</time>
      </trkpt>
      <trkpt lat="49.43988" lon="1.20265">
        <ele>160</ele>
        <time>2017-08-01T17:22:32Z</time>
      </trkpt>
      <trkpt lat="49.4399" lon="1.20256">
        <ele>160</ele>
        <time>2017-08-01T17:22:32Z</time>
      </trkpt>
      <trkpt lat="49.43991" lon="1.20254">
        <ele>160</ele>
        <time>2017-08-01T17:22:48Z</time>
      </trkpt>
      <trkpt lat="49.43989" lon="1.20246">
        <ele>160</ele>
        <time>2017-08-01T17:22:48Z</time>
      </trkpt>
      <trkpt lat="49.43991" lon="1.2024">
        <ele>160</ele>
        <time>2017-08-01T17:22:48Z</time>
      </trkpt>
      <trkpt lat="49.43991" lon="1.20237">
        <ele>160</ele>
        <time>2017-08-01T17:22:48Z</time>
      </trkpt>
    </trkseg>
  </trk>
</gpx>